[[{"header":{"parameterUnit":"m.s-1","parameterCategory":1,"la1":30.6,"la2":29.2853,"lo1":-89.7004,"lo2":-87.6739,"dy":0.0162,"dx":0.0183,"nx":112,"ny":82,"refTime":"2023-10-08T12:00:00:Z","depth":0,"parameterNumber":2,"parameterNumberName":"U-component_of_WINDS"},"data":[0.0,0.0,0.0,0.0,0.0,0.0,0.0,0.0,0.0,0.0,0.0,0.0,0.0,0.0,0.0,0.0,0.0,0.0,0.0,0.0,0.0,0.0,0.0,0.0,0.0,0.0,0.0,0.0,0.0,0.0,0.0,0.0,0.0,0.0,0.0,0.0,0.0,0.0,0.0,0.0,0.0,0.0,0.0,0.0,0.0,0.0,0.0,0.0,0.0,0.0,0.0,0.0,0.0,0.0,0.0,0.0,0.0,0.0,0.0,0.0,0.0,0.0,0.0,0.0,0.0,0.0,0.0,0.0,0.0,0.0,0.0,0.0,0.0,0.0,0.0,0.0,0.0,0.0,0.0,0.0,0.0,0.0,0.0,0.0,0.0,0.0,0.0,0.0,0.0,0.0,-4.1852,-4.2648,-4.3235,-4.3568,-4.3432,-4.2912,-4.2253,-4.1393,0.0,0.0,0.0,0.0,0.0,0.0,0.0,0.0,0.0,0.0,0.0,0.0,0.0,0.0,0.0,0.0,0.0,0.0,0.0,0.0,0.0,0.0,0.0,0.0,0.0,0.0,0.0,0.0,0.0,0.0,0.0,0.0,0.0,0.0,0.0,0.0,0.0,0.0,0.0,0.0,0.0,0.0,0.0,0.0,0.0,0.0,0.0,0.0,0.0,0.0,0.0,0.0,0.0,0.0,0.0,0.0,0.0,0.0,0.0,0.0,0.0,0.0,0.0,0.0,0.0,0.0,0.0,0.0,0.0,0.0,0.0,0.0,0.0,0.0,0.0,0.0,0.0,0.0,0.0,0.0,0.0,0.0,0.0,0.0,0.0,0.0,0.0,0.0,0.0,0.0,0.0,0.0,0.0,0.0,0.0,0.0,0.0,0.0,0.0,0.0,0.0,0.0,0.0,0.0,-4.1981,-4.3295,-4.3568,-4.3372,-4.2772,-4.2648,-4.2061,-4.0737,0.0,0.0,0.0,0.0,0.0,0.0,0.0,0.0,0.0,0.0,0.0,0.0,0.0,0.0,0.0,0.0,0.0,0.0,0.0,0.0,0.0,0.0,0.0,0.0,0.0,0.0,0.0,0.0,0.0,0.0,0.0,0.0,0.0,0.0,0.0,0.0,0.0,0.0,0.0,0.0,0.0,0.0,0.0,0.0,0.0,0.0,0.0,0.0,0.0,0.0,0.0,0.0,0.0,0.0,0.0,0.0,0.0,0.0,0.0,0.0,0.0,0.0,0.0,0.0,0.0,0.0,0.0,0.0,0.0,0.0,0.0,0.0,0.0,0.0,0.0,0.0,0.0,0.0,0.0,0.0,0.0,0.0,0.0,0.0,0.0,0.0,0.0,0.0,0.0,0.0,0.0,0.0,0.0,0.0,0.0,0.0,0.0,0.0,0.0,0.0,0.0,0.0,0.0,-4.1459,-4.2506,-4.3492,-4.3628,-4.3312,-4.2648,-4.2253,-4.1591,-4.0547,-4.0146,0.0,0.0,0.0,0.0,0.0,0.0,0.0,0.0,0.0,0.0,0.0,0.0,0.0,0.0,0.0,0.0,0.0,0.0,0.0,0.0,0.0,0.0,0.0,0.0,0.0,0.0,0.0,0.0,0.0,0.0,0.0,0.0,0.0,0.0,0.0,0.0,0.0,0.0,0.0,0.0,0.0,0.0,0.0,0.0,0.0,0.0,0.0,0.0,0.0,0.0,0.0,0.0,0.0,0.0,0.0,0.0,0.0,0.0,0.0,0.0,0.0,0.0,0.0,0.0,0.0,0.0,0.0,0.0,0.0,0.0,0.0,0.0,0.0,0.0,0.0,0.0,0.0,0.0,0.0,0.0,0.0,0.0,0.0,0.0,0.0,0.0,0.0,0.0,0.0,0.0,0.0,0.0,0.0,0.0,0.0,0.0,0.0,0.0,0.0,0.0,0.0,0.0,-4.1656,-4.2237,-4.2958,-4.3019,-4.2756,-4.2126,-4.1591,-4.1008,-4.027,-3.9681,0.0,0.0,0.0,0.0,0.0,0.0,0.0,0.0,0.0,0.0,0.0,0.0,0.0,0.0,0.0,0.0,0.0,0.0,0.0,0.0,0.0,0.0,0.0,0.0,0.0,0.0,0.0,0.0,0.0,0.0,0.0,0.0,0.0,0.0,0.0,0.0,0.0,0.0,0.0,0.0,0.0,0.0,0.0,0.0,0.0,0.0,0.0,0.0,0.0,0.0,0.0,0.0,0.0,0.0,0.0,0.0,0.0,0.0,0.0,0.0,0.0,0.0,0.0,0.0,0.0,0.0,0.0,0.0,0.0,0.0,0.0,0.0,0.0,0.0,0.0,0.0,0.0,0.0,0.0,0.0,0.0,0.0,0.0,0.0,0.0,0.0,0.0,0.0,0.0,0.0,0.0,0.0,0.0,0.0,0.0,0.0,0.0,0.0,0.0,0.0,0.0,0.0,-4.0185,-4.0432,-4.128,-4.1346,-4.1095,-4.0409,-4.0478,-4.0285,-3.9553,-3.9424,0.0,0.0,0.0,0.0,0.0,0.0,0.0,0.0,0.0,0.0,0.0,0.0,0.0,0.0,0.0,0.0,0.0,0.0,0.0,0.0,0.0,0.0,0.0,0.0,0.0,0.0,0.0,0.0,0.0,0.0,0.0,0.0,0.0,0.0,0.0,0.0,0.0,0.0,0.0,0.0,0.0,0.0,0.0,0.0,0.0,0.0,0.0,0.0,0.0,0.0,0.0,0.0,0.0,0.0,0.0,0.0,0.0,0.0,0.0,0.0,0.0,0.0,0.0,0.0,0.0,0.0,0.0,0.0,0.0,0.0,0.0,0.0,0.0,0.0,0.0,0.0,0.0,0.0,0.0,0.0,0.0,0.0,0.0,0.0,0.0,0.0,0.0,0.0,0.0,0.0,0.0,0.0,0.0,0.0,0.0,0.0,0.0,0.0,0.0,0.0,0.0,0.0,-4.006,-4.0309,-4.0914,-4.1213,-4.1044,-4.027,-4.0409,-4.013,-3.9265,0.0,0.0,0.0,0.0,0.0,0.0,0.0,0.0,0.0,0.0,0.0,0.0,0.0,0.0,0.0,0.0,0.0,0.0,0.0,0.0,0.0,0.0,0.0,0.0,0.0,0.0,0.0,0.0,0.0,0.0,0.0,0.0,0.0,0.0,0.0,0.0,0.0,0.0,0.0,0.0,0.0,0.0,0.0,0.0,0.0,0.0,0.0,0.0,0.0,0.0,0.0,0.0,0.0,0.0,0.0,0.0,0.0,0.0,0.0,0.0,0.0,0.0,0.0,0.0,0.0,0.0,0.0,0.0,0.0,0.0,0.0,0.0,0.0,0.0,0.0,0.0,0.0,0.0,0.0,0.0,0.0,0.0,0.0,0.0,0.0,0.0,0.0,0.0,0.0,0.0,0.0,0.0,0.0,0.0,0.0,0.0,0.0,0.0,0.0,0.0,0.0,0.0,-3.9406,-3.9493,-3.9677,-4.0109,-4.0401,-4.0309,-3.9722,-3.9849,-3.9707,-3.9017,0.0,0.0,0.0,0.0,0.0,0.0,0.0,0.0,0.0,0.0,0.0,0.0,0.0,0.0,0.0,0.0,0.0,0.0,0.0,0.0,0.0,0.0,0.0,0.0,0.0,0.0,0.0,0.0,0.0,0.0,0.0,0.0,0.0,0.0,0.0,0.0,0.0,0.0,0.0,0.0,0.0,0.0,0.0,0.0,0.0,0.0,0.0,0.0,0.0,0.0,0.0,0.0,0.0,0.0,0.0,0.0,0.0,0.0,0.0,0.0,0.0,0.0,0.0,0.0,0.0,0.0,0.0,0.0,0.0,0.0,0.0,0.0,0.0,0.0,0.0,0.0,0.0,0.0,0.0,0.0,0.0,0.0,0.0,0.0,0.0,0.0,0.0,0.0,0.0,0.0,0.0,0.0,0.0,0.0,0.0,0.0,0.0,0.0,0.0,0.0,0.0,0.0,-3.8441,-3.8277,-3.8277,-3.8441,-3.8516,-3.8516,-3.8516,-3.8649,-3.8782,0.0,0.0,0.0,0.0,0.0,0.0,0.0,0.0,0.0,0.0,0.0,0.0,0.0,0.0,0.0,0.0,0.0,0.0,0.0,0.0,0.0,0.0,0.0,0.0,0.0,0.0,0.0,0.0,0.0,0.0,0.0,0.0,0.0,0.0,0.0,0.0,0.0,0.0,0.0,0.0,0.0,0.0,0.0,0.0,0.0,0.0,0.0,0.0,0.0,0.0,0.0,0.0,0.0,0.0,0.0,0.0,0.0,0.0,0.0,0.0,0.0,0.0,0.0,0.0,0.0,0.0,0.0,0.0,0.0,0.0,0.0,0.0,0.0,0.0,0.0,0.0,0.0,0.0,0.0,0.0,0.0,0.0,0.0,0.0,0.0,0.0,0.0,0.0,0.0,0.0,0.0,0.0,0.0,0.0,0.0,0.0,0.0,0.0,0.0,0.0,0.0,0.0,0.0,-3.8277,-3.8366,-3.8366,-3.8277,-3.8575,-3.8649,-3.8516,-3.8649,-3.8723,-3.859,0.0,0.0,0.0,0.0,0.0,0.0,0.0,0.0,0.0,0.0,0.0,0.0,0.0,0.0,0.0,0.0,0.0,0.0,0.0,0.0,0.0,0.0,0.0,0.0,0.0,0.0,0.0,0.0,0.0,0.0,0.0,0.0,0.0,0.0,0.0,0.0,0.0,0.0,0.0,0.0,0.0,0.0,0.0,0.0,0.0,0.0,0.0,0.0,0.0,0.0,0.0,0.0,0.0,0.0,0.0,0.0,0.0,0.0,0.0,0.0,0.0,0.0,0.0,0.0,0.0,0.0,0.0,0.0,0.0,0.0,0.0,0.0,0.0,0.0,0.0,0.0,0.0,0.0,0.0,0.0,0.0,0.0,0.0,0.0,0.0,0.0,0.0,0.0,0.0,0.0,0.0,0.0,0.0,0.0,0.0,0.0,0.0,0.0,0.0,0.0,0.0,0.0,-3.8202,-3.8277,-3.8366,-3.8202,-3.8427,-3.8501,-3.8366,-3.8501,-3.8501,-3.8366,0.0,0.0,0.0,0.0,0.0,0.0,0.0,0.0,0.0,0.0,0.0,0.0,0.0,0.0,0.0,0.0,0.0,0.0,0.0,0.0,0.0,0.0,0.0,0.0,0.0,0.0,0.0,0.0,0.0,0.0,0.0,0.0,0.0,0.0,0.0,0.0,0.0,0.0,0.0,0.0,0.0,0.0,0.0,0.0,0.0,0.0,0.0,0.0,0.0,0.0,0.0,0.0,0.0,0.0,0.0,0.0,0.0,0.0,0.0,0.0,0.0,0.0,0.0,0.0,0.0,0.0,0.0,0.0,0.0,0.0,0.0,0.0,0.0,0.0,0.0,0.0,0.0,0.0,0.0,0.0,0.0,0.0,0.0,0.0,0.0,0.0,0.0,0.0,0.0,0.0,0.0,0.0,0.0,0.0,0.0,0.0,0.0,0.0,0.0,0.0,0.0,0.0,-3.8202,-3.8202,-3.8202,-3.8202,-3.8202,-3.8202,-3.8202,-3.8202,-3.8202,-3.8202,0.0,0.0,0.0,0.0,0.0,0.0,0.0,0.0,0.0,0.0,0.0,0.0,0.0,0.0,0.0,0.0,0.0,0.0,0.0,0.0,0.0,0.0,0.0,0.0,0.0,0.0,0.0,0.0,0.0,0.0,0.0,0.0,0.0,0.0,0.0,0.0,0.0,0.0,0.0,0.0,0.0,0.0,0.0,0.0,0.0,0.0,0.0,0.0,0.0,0.0,0.0,0.0,0.0,0.0,0.0,0.0,0.0,0.0,0.0,0.0,-3.5504,-3.5504,0.0,0.0,0.0,0.0,0.0,0.0,0.0,0.0,0.0,0.0,0.0,0.0,0.0,0.0,0.0,0.0,0.0,0.0,0.0,0.0,0.0,0.0,0.0,0.0,0.0,0.0,0.0,0.0,0.0,0.0,0.0,0.0,0.0,0.0,0.0,0.0,0.0,0.0,0.0,0.0,-3.8127,-3.8202,-3.8202,-3.8202,-3.8202,-3.8202,-3.8202,-3.8202,-3.8202,-3.8202,-3.8202,0.0,0.0,0.0,0.0,0.0,0.0,0.0,0.0,0.0,0.0,0.0,0.0,0.0,0.0,0.0,0.0,0.0,0.0,0.0,0.0,0.0,0.0,0.0,0.0,0.0,0.0,0.0,0.0,0.0,0.0,0.0,0.0,0.0,0.0,0.0,0.0,0.0,0.0,0.0,0.0,0.0,0.0,0.0,0.0,0.0,0.0,0.0,0.0,0.0,0.0,0.0,0.0,0.0,0.0,0.0,0.0,0.0,0.0,0.0,-3.5344,-3.5504,0.0,0.0,0.0,0.0,0.0,0.0,0.0,0.0,0.0,0.0,0.0,0.0,0.0,0.0,0.0,0.0,0.0,0.0,0.0,0.0,0.0,0.0,0.0,0.0,0.0,0.0,0.0,0.0,0.0,0.0,0.0,0.0,0.0,0.0,0.0,0.0,0.0,0.0,0.0,0.0,-3.8127,-3.8202,-3.8202,-3.8202,-3.8202,-3.8202,-3.8202,-3.8202,-3.8037,-3.7567,-3.7567,0.0,0.0,0.0,0.0,0.0,0.0,0.0,0.0,0.0,0.0,0.0,0.0,0.0,0.0,0.0,0.0,0.0,0.0,0.0,0.0,0.0,0.0,0.0,0.0,0.0,0.0,0.0,0.0,0.0,0.0,0.0,0.0,0.0,0.0,0.0,0.0,0.0,0.0,0.0,0.0,0.0,0.0,0.0,0.0,0.0,0.0,0.0,0.0,0.0,0.0,0.0,0.0,0.0,-3.3073,-3.3143,-3.3353,-3.3297,-3.363,-3.4312,-3.4854,-3.5148,-3.5279,-3.5424,0.0,0.0,0.0,0.0,0.0,0.0,0.0,0.0,0.0,0.0,0.0,0.0,0.0,0.0,0.0,0.0,0.0,0.0,0.0,0.0,0.0,0.0,-3.4828,-3.5305,-3.491,-3.4581,-3.5224,0.0,0.0,0.0,0.0,0.0,0.0,0.0,0.0,0.0,0.0,0.0,-3.781,-3.7796,-3.772,-3.772,-3.772,-3.772,-3.772,-3.772,-3.7477,-3.6688,-3.6688,-3.6688,0.0,0.0,0.0,0.0,0.0,0.0,0.0,0.0,0.0,0.0,0.0,0.0,0.0,0.0,0.0,0.0,0.0,0.0,0.0,0.0,0.0,0.0,0.0,0.0,0.0,0.0,0.0,0.0,0.0,0.0,0.0,0.0,-3.0101,-3.0241,0.0,0.0,0.0,0.0,0.0,0.0,0.0,0.0,0.0,0.0,0.0,0.0,0.0,-3.1468,-3.2218,-3.1616,-3.1969,-3.3213,-3.2577,-3.2918,-3.4095,-3.3492,-3.363,-3.4245,-3.3713,0.0,-3.4528,-3.5198,0.0,0.0,0.0,0.0,0.0,0.0,0.0,0.0,0.0,0.0,0.0,0.0,0.0,0.0,0.0,0.0,0.0,0.0,0.0,0.0,0.0,0.0,-3.3398,-3.3484,-3.3398,-3.3569,-3.4384,-3.3979,-3.3725,-3.4716,-3.4134,-3.3725,0.0,0.0,0.0,0.0,0.0,0.0,-3.6858,-3.6439,-3.5935,-3.5935,-3.5935,-3.5935,-3.5935,-3.5935,-3.5855,-3.5775,-3.5775,-3.5775,-3.5775,-3.5019,0.0,0.0,0.0,0.0,0.0,0.0,0.0,0.0,0.0,0.0,0.0,0.0,0.0,0.0,0.0,0.0,0.0,0.0,0.0,0.0,0.0,0.0,0.0,0.0,0.0,0.0,0.0,0.0,0.0,-2.9419,-3.0101,-3.0101,-3.1198,-3.189,0.0,0.0,0.0,0.0,0.0,0.0,0.0,0.0,0.0,-3.0986,-3.0986,-3.1123,-3.1468,-3.1198,-3.1334,-3.1969,-3.1603,-3.1809,-3.2448,-3.1955,-3.2232,-3.3059,-3.2563,-3.2577,-3.2989,-3.4206,-3.4423,-3.4056,0.0,0.0,0.0,0.0,-3.3519,-3.3831,-3.2751,-3.2501,-3.2658,-3.2787,0.0,0.0,0.0,0.0,0.0,0.0,0.0,-3.3081,-3.3081,-3.3081,-3.3081,-3.3081,-3.3081,-3.324,-3.3569,-3.3411,-3.3484,-3.4841,-3.405,-3.3411,-3.423,-3.3654,0.0,0.0,0.0,-3.4868,-3.6042,-3.5869,-3.5615,-3.5615,-3.5615,-3.5615,-3.5615,-3.5615,-3.5386,-3.4924,-3.4937,-3.4937,-3.4937,-3.4134,-3.3907,0.0,0.0,0.0,0.0,0.0,0.0,0.0,0.0,0.0,0.0,0.0,0.0,0.0,0.0,0.0,0.0,0.0,0.0,0.0,0.0,0.0,0.0,0.0,0.0,0.0,0.0,0.0,0.0,-2.9431,-3.0037,-3.0037,-3.111,-3.1817,0.0,0.0,0.0,0.0,0.0,0.0,-3.0986,-3.0986,-3.0986,-3.0986,-3.0986,-3.0986,-3.0986,-3.0986,-3.0986,-3.0986,-3.0986,-3.1123,-3.1259,-3.0911,-3.1185,-3.2015,-3.1576,-3.1663,-3.2087,-3.3283,-3.3699,-3.3547,-3.3283,-3.3382,-3.3593,-3.3101,-3.3287,-3.379,-3.304,-3.2842,-3.2908,-3.329,-3.3098,-3.2866,-3.3779,0.0,0.0,0.0,0.0,-3.3081,-3.3081,-3.3081,-3.3081,-3.3081,-3.3081,-3.3081,-3.3081,-3.3081,-3.3471,-3.4746,-3.3953,-3.3326,-3.3992,-3.3484,0.0,-3.423,-3.423,-3.4384,-3.5156,-3.5061,-3.4979,-3.4979,-3.4979,-3.4979,-3.4979,-3.4979,-3.4677,-3.4063,-3.4076,-3.4076,-3.4076,-3.3398,-3.3411,-3.4063,0.0,0.0,0.0,0.0,0.0,0.0,0.0,0.0,0.0,0.0,0.0,0.0,0.0,0.0,0.0,0.0,0.0,0.0,0.0,0.0,0.0,0.0,0.0,0.0,0.0,0.0,0.0,0.0,0.0,-3.0037,-3.111,0.0,0.0,0.0,0.0,-3.1061,-3.1198,-3.1198,-3.0986,-3.0986,-3.0986,-3.0986,-3.0986,-3.0986,-3.0986,-3.0986,-3.0986,-3.0986,-3.0986,-3.1408,-3.2015,-3.111,-3.111,-3.1796,-3.0872,-3.1307,-3.269,-3.2918,-3.2777,-3.2475,-3.2407,-3.3066,-3.3982,-3.3178,-3.2804,-3.2765,-3.318,-3.2898,-3.2349,-3.2928,-3.3116,-3.3043,-3.3154,-3.3154,0.0,0.0,-3.3081,-3.3081,-3.3081,-3.3081,-3.3081,-3.3081,-3.3081,-3.3081,-3.3081,-3.3081,-3.3167,-3.324,-3.3154,-3.3081,-3.3167,0.0,-3.3411,-3.423,-3.3738,-3.3496,-3.4314,-3.3738,-3.324,-3.324,-3.324,-3.324,-3.324,-3.324,-3.324,-3.3167,-3.3167,-3.3167,-3.3167,-3.3167,-3.3167,-3.3154,-3.3167,0.0,0.0,0.0,0.0,0.0,0.0,0.0,0.0,0.0,0.0,0.0,0.0,0.0,0.0,0.0,0.0,0.0,0.0,0.0,0.0,0.0,0.0,0.0,0.0,0.0,0.0,0.0,0.0,-3.0596,-3.1123,0.0,-3.1347,-3.1347,-3.1286,-3.0986,-3.1061,-3.1061,-3.0986,-3.0986,-3.0986,-3.0986,-3.0986,-3.0986,-3.0986,-3.0986,-3.0911,-3.0849,-3.0911,-3.096,-3.1009,-3.0672,-3.0659,-3.0872,-3.0444,-3.052,-3.1048,-3.1478,-3.2137,-3.2878,-3.2185,-3.2408,-3.3071,-3.2579,-3.2691,-3.3125,-3.3226,-3.3009,-3.2805,-3.3006,-3.3081,-3.3081,-3.3081,-3.3081,-3.3081,-3.3081,-3.3081,-3.3081,-3.3081,-3.3081,-3.3081,-3.3081,-3.3081,-3.3081,-3.3081,-3.3081,-3.3081,-3.3081,-3.3081,-3.3081,-3.3081,-3.3081,-3.324,-3.3496,-3.3326,-3.324,-3.3484,-3.3326,-3.3081,-3.3081,-3.3081,-3.3081,-3.3081,-3.3081,-3.3081,-3.3081,-3.3081,-3.3081,-3.3081,-3.3081,-3.3081,-3.3081,-3.3081,-3.3081,0.0,0.0,0.0,0.0,0.0,0.0,0.0,0.0,0.0,0.0,0.0,0.0,0.0,0.0,0.0,0.0,0.0,0.0,0.0,0.0,0.0,0.0,0.0,0.0,0.0,-2.9419,-2.9871,-3.0508,-3.0973,-3.1198,-3.1198,-3.1272,-3.1198,-3.0986,-3.0986,-3.0986,-3.0986,-3.0986,-3.0986,-3.0986,-3.0986,-3.0986,-3.0986,-3.0986,-3.0911,-3.0698,-3.0849,-3.0761,-3.0368,-3.0292,-3.0292,-3.0305,-3.0278,-3.0431,-3.0676,-3.095,-3.1967,-3.3171,-3.2046,-3.2109,-3.2826,-3.2396,-3.2663,-3.3296,-3.3114,-3.3081,-3.3081,-3.3081,-3.3081,-3.3081,-3.3081,-3.3081,-3.3081,-3.3081,-3.3081,-3.3081,-3.3081,-3.3081,-3.3081,-3.3081,-3.3081,-3.3081,-3.3081,-3.3081,-3.3081,-3.3081,-3.3081,-3.3081,-3.3081,-3.3081,-3.3081,-3.3081,-3.3081,-3.3081,-3.3081,-3.3081,-3.3081,-3.3081,-3.3081,-3.3081,-3.3081,-3.3081,-3.3081,-3.3081,-3.3081,-3.3081,-3.3081,-3.3081,-3.3081,-3.3081,-3.3081,-3.3081,-3.2982,0.0,0.0,0.0,0.0,0.0,0.0,0.0,0.0,0.0,0.0,0.0,0.0,0.0,0.0,0.0,0.0,0.0,0.0,0.0,0.0,0.0,0.0,0.0,-2.851,-2.904,-2.9484,-2.9704,-3.0432,-3.0986,-3.0986,-3.1123,-3.1198,-3.0986,-3.0986,-3.0986,-3.0986,-3.0986,-3.0986,-3.0986,-3.0986,-3.0986,-3.0986,-3.0986,-3.0911,-3.0698,-3.0698,-3.0622,-3.0368,-3.0228,-3.0088,-3.0138,-3.0461,-3.0966,-3.1668,-3.1483,-3.2204,-3.32,-3.194,-3.223,-3.329,-3.2478,-3.2591,-3.3081,-3.3081,-3.3081,-3.3081,-3.3081,-3.3081,-3.3081,-3.3081,-3.3081,-3.3081,-3.3081,-3.3081,-3.3081,-3.3081,-3.3081,-3.3081,-3.3081,-3.3081,-3.3081,-3.3081,-3.3081,-3.3081,-3.3081,-3.3081,-3.3081,-3.3081,-3.3081,-3.3081,-3.3081,-3.3081,0.0,-3.3081,-3.3081,-3.3081,-3.3081,-3.3081,-3.3081,-3.3081,-3.3081,-3.3081,-3.3081,-3.3081,-3.3081,-3.3081,-3.3081,-3.3081,-3.3081,-3.3081,-3.2982,-3.2711,0.0,0.0,0.0,0.0,0.0,0.0,0.0,0.0,0.0,0.0,0.0,0.0,0.0,0.0,0.0,0.0,0.0,0.0,0.0,0.0,0.0,-2.8122,-2.851,-2.9118,-2.8949,-2.9015,-2.9626,-3.019,-3.0508,-3.0317,-3.0722,-3.1061,-3.0986,-3.0986,-3.0986,-3.0986,-3.0986,-3.0986,-3.0986,-3.0986,-3.0986,-3.0986,-3.0986,-3.0836,-3.0444,-3.0622,-3.047,-2.9934,-3.0088,-3.0226,-3.0473,-3.0545,-3.0981,-3.1508,-3.1833,-3.223,-3.2523,-3.2122,-3.2495,-3.317,-3.2915,-3.2943,-3.3081,-3.3081,-3.3081,-3.3081,-3.3081,-3.3081,-3.3081,-3.3081,-3.3081,-3.3081,-3.3081,-3.3081,-3.3081,-3.3081,-3.3081,-3.3081,-3.3081,-3.3081,-3.3081,-3.3081,-3.3081,-3.3081,-3.3081,-3.3081,-3.3081,-3.3081,-3.3081,-3.3081,-3.3081,-3.3081,-3.3081,-3.3081,-3.3081,-3.3081,-3.3081,-3.3081,-3.3081,-3.3081,-3.3081,-3.3081,-3.3081,-3.3081,-3.3081,-3.3081,-3.3081,-3.3081,-3.3081,-3.3081,-3.2982,0.0,0.0,0.0,0.0,0.0,0.0,0.0,0.0,0.0,0.0,0.0,0.0,0.0,0.0,0.0,0.0,0.0,0.0,0.0,0.0,0.0,0.0,-2.7777,-2.8167,-2.8724,-2.8486,-2.8474,-2.9081,-2.9561,-2.9871,-2.9845,-3.057,-3.0986,-3.0986,-3.0986,-3.0986,-3.0986,-3.0986,-3.0986,-3.0986,-3.0986,-3.0986,-3.0986,-3.0986,-3.0836,-3.0533,-3.0778,-3.0663,-3.0287,-3.0514,-3.0792,-3.0947,-3.1185,-3.1449,-3.1775,-3.234,-3.2579,-3.2579,0.0,0.0,0.0,0.0,-3.3081,-3.3081,-3.3081,-3.3081,-3.3081,-3.3081,-3.3081,-3.3081,-3.3081,-3.3081,-3.3081,-3.3081,-3.3081,-3.3081,-3.3081,-3.3081,-3.3081,-3.3081,-3.3081,-3.3081,-3.3081,-3.3081,-3.3081,-3.3081,-3.3081,0.0,-3.3081,-3.3081,-3.3081,-3.3081,-3.3081,-3.3081,-3.3081,-3.3081,-3.3081,-3.3081,-3.3081,-3.3081,-3.3081,-3.3081,0.0,0.0,0.0,-3.3081,-3.3081,-3.3081,0.0,0.0,0.0,-3.281,-3.255,-3.2463,0.0,0.0,-3.1879,-3.1867,0.0,0.0,0.0,0.0,0.0,0.0,0.0,0.0,0.0,0.0,0.0,0.0,0.0,0.0,0.0,0.0,-2.7185,-2.736,-2.78,-2.78,-2.7857,-2.8223,-2.8767,-2.9238,-2.9537,-3.0419,-3.0986,-3.0986,-3.0986,-3.0986,-3.0986,-3.0986,0.0,0.0,0.0,-3.0986,-3.0986,-3.1052,-3.1016,-3.0788,-3.1112,-3.1225,-3.1026,-3.1254,-3.1424,-3.1512,-3.2001,-3.2252,-3.2353,-3.2867,-3.3081,-3.3081,-3.3081,-3.3081,-3.3081,-3.3081,-3.3081,-3.3081,-3.3081,0.0,0.0,-3.3081,-3.3081,-3.3081,-3.3081,-3.3081,-3.3081,-3.3081,-3.3081,-3.3081,-3.3081,-3.3081,-3.3081,-3.3081,-3.3081,-3.3081,-3.3081,-3.3081,-3.3081,-3.3081,-3.3081,-3.3081,-3.3081,-3.3081,-3.3081,-3.3081,-3.3081,-3.3081,-3.3081,-3.3081,-3.3081,-3.3081,-3.3081,0.0,-3.3081,-3.3081,-3.3081,-3.3081,-3.3081,-3.3081,-3.3081,-3.3068,-3.3068,-3.3068,-3.281,-3.255,-3.2388,-3.2125,-3.1937,-3.1661,-3.1849,-3.195,0.0,0.0,0.0,0.0,0.0,0.0,0.0,0.0,0.0,0.0,0.0,0.0,0.0,0.0,0.0,-2.7103,-2.7185,-2.7267,-2.7348,-2.7033,-2.6775,-2.6846,-2.8211,-2.8991,-2.8664,-3.0101,-3.0986,-3.0986,-3.0986,-3.0986,-3.0986,-3.0986,-3.0986,-3.0986,-3.0986,-3.0986,-3.0986,-3.1444,-3.1512,-3.1358,-3.1716,0.0,-3.1665,-3.143,-3.1637,-3.2051,-3.2164,-3.2478,-3.2918,-3.3031,-3.3081,-3.3081,-3.3081,-3.3081,-3.3081,-3.3081,-3.3081,-3.3081,-3.3081,-3.3081,-3.3081,-3.3081,-3.3081,-3.3081,-3.3081,-3.3081,0.0,-3.3081,-3.3081,-3.3081,-3.3081,-3.3081,-3.3081,-3.3081,-3.3081,-3.3081,-3.3081,-3.3081,-3.3081,-3.3081,-3.3081,-3.3081,-3.3081,-3.3081,-3.3081,-3.3081,-3.3081,-3.3081,-3.3081,-3.3081,-3.3081,-3.3081,-3.3081,-3.3081,-3.3081,-3.3081,-3.3081,-3.3081,-3.3081,-3.3081,-3.3081,-3.2896,-3.281,-3.281,-3.2562,-3.23,-3.2038,-3.2038,-3.1937,-3.1661,-3.1749,-3.1761,0.0,0.0,0.0,0.0,0.0,0.0,0.0,0.0,0.0,0.0,0.0,-2.329,-2.4059,0.0,-2.5768,-2.6682,-2.6857,-2.6857,-2.6857,-2.6456,-2.629,-2.6445,-2.7487,-2.8051,-2.7799,-2.9316,-3.0343,-3.0343,-3.0748,-3.0986,-3.0986,-3.0986,-3.0986,-3.0986,-3.0986,-3.1117,-3.1418,-3.1692,-3.1902,-3.2098,-3.2455,-3.2577,-3.2332,-3.2351,-3.2462,-3.2641,-3.2641,-3.2805,-3.3081,-3.3081,-3.3081,-3.3081,-3.3081,-3.3081,-3.3081,-3.3081,-3.3081,-3.3081,-3.3081,-3.3081,-3.3081,-3.3081,-3.3081,-3.3081,-3.3081,-3.3081,-3.3081,-3.3081,-3.3081,-3.3081,-3.3081,-3.3081,-3.3081,-3.3081,-3.3081,-3.3081,-3.3081,-3.3081,-3.3081,-3.3081,-3.3081,-3.3081,-3.3081,-3.3081,-3.3081,-3.3081,-3.3081,-3.3081,-3.3081,-3.3081,-3.3081,-3.3081,-3.3081,-3.3081,-3.3081,-3.3081,-3.3081,-3.3081,-3.3081,-3.3081,-3.2896,-3.281,-3.2636,-3.255,-3.23,-3.2125,-3.2038,-3.1937,-3.1761,-3.1661,-3.1661,-3.1661,0.0,0.0,0.0,0.0,0.0,0.0,0.0,-2.1615,-2.2185,-2.1909,-2.1909,-2.2432,-2.3541,-2.4145,-2.4925,-2.6102,-2.6362,-2.6362,-2.6362,-2.6135,-2.6063,-2.6373,-2.6857,-2.7185,-2.7185,-2.8688,-2.9704,-2.9704,-3.0508,-3.0986,-3.0986,-3.0986,-3.0986,-3.0986,-3.1091,-3.1365,-3.1836,-3.2071,-3.2411,-3.2868,-3.32,-3.332,-3.3098,-3.3365,-3.3313,-3.3154,-3.3167,-3.3081,-3.3081,-3.3081,-3.3081,-3.3081,-3.3081,-3.3081,-3.3081,-3.3081,-3.3081,-3.3081,-3.3081,-3.3081,-3.3081,-3.3081,-3.3081,-3.3081,-3.3081,-3.3081,-3.3081,-3.3081,-3.3081,-3.3081,-3.3081,-3.3081,-3.3081,-3.3081,-3.3081,-3.3081,-3.3081,-3.3081,-3.3081,-3.3081,-3.3081,-3.3081,-3.3081,-3.3081,-3.3081,-3.3081,-3.3081,-3.3081,-3.3081,-3.3081,-3.3081,-3.3081,-3.3081,-3.3081,-3.3081,-3.3081,-3.3081,-3.2995,-3.3068,-3.2982,-3.2636,-3.2636,-3.255,-3.23,-3.2038,-3.1937,-3.1937,-3.1761,-3.1661,-3.1661,-3.1661,-3.1661,-1.9869,-2.0059,-1.9985,-2.0447,-2.0988,-2.1606,0.0,-2.2608,-2.2882,-2.2432,-2.2882,-2.3309,-2.3444,-2.4231,-2.502,-2.5495,-2.5779,-2.5979,-2.5979,-2.5895,-2.5906,-2.5979,-2.6704,-2.7185,-2.7185,-2.8688,-2.9704,-2.9704,-3.0508,-3.0986,-3.0986,-3.0986,-3.0986,-3.0986,-3.1483,-3.1771,-3.1759,-3.2868,-3.343,-3.3496,-3.3809,-3.3985,-3.3985,-3.3784,-3.3556,-3.3398,-3.3154,-3.3081,-3.3081,-3.3081,-3.3081,-3.3081,-3.3081,-3.3081,-3.3081,-3.3081,-3.3081,-3.3081,-3.3081,-3.3081,-3.3081,-3.3081,-3.3081,-3.3081,-3.3081,-3.3081,-3.3081,-3.3081,-3.3081,-3.3081,-3.3081,-3.3081,-3.3081,-3.3081,-3.3081,-3.3081,-3.3081,-3.3081,-3.3081,-3.3081,-3.3081,-3.3081,-3.3081,-3.3081,-3.3081,-3.3081,-3.3081,-3.3081,-3.3081,-3.3081,-3.3081,-3.3081,-3.3081,-3.3081,-3.3081,-3.3081,-3.2995,-3.2723,-3.2982,-3.2909,-3.2475,-3.2388,-3.23,-3.2038,-3.1849,-3.1749,-3.1749,-3.1749,-3.1661,-3.1661,-3.1661,-3.1661,-1.8156,-1.8796,-1.9247,-1.9347,-2.0339,-2.1329,-2.1507,-2.2069,-2.2441,-2.2264,-2.2353,-2.2618,-2.295,-2.3387,-2.382,-2.4392,-2.4925,-2.5295,-2.5295,-2.5644,-2.5895,-2.5895,-2.6218,-2.6456,-2.6456,-2.7568,-2.8291,-2.8291,-2.9471,-3.0254,-3.0254,-3.0735,-3.0986,-3.0986,-3.1535,-3.2006,-3.2333,-3.3169,-3.3757,-3.4071,-3.421,-3.4243,-3.4076,-3.3992,-3.3738,-3.3398,-3.3313,-3.324,-3.3081,-3.3081,-3.3081,-3.3081,-3.3081,-3.3081,-3.3081,-3.3081,-3.3081,-3.3081,-3.3081,-3.3081,-3.3081,-3.3081,-3.3081,-3.3081,-3.3081,-3.3081,-3.3081,-3.3081,-3.3081,-3.3081,-3.3081,-3.3081,-3.3081,-3.3081,-3.3081,-3.3081,-3.3081,-3.3081,-3.3081,-3.3081,-3.3081,-3.3081,-3.3081,-3.3081,-3.3081,-3.3081,-3.3081,-3.3081,-3.3081,-3.3081,-3.3081,-3.3081,-3.3081,-3.3081,-3.3081,-3.2982,-3.281,-3.2711,-3.2736,-3.2562,-3.2213,-3.2213,-3.2038,-3.1849,-3.1749,-3.1383,-3.0824,-3.0824,-3.0543,-2.9977,-2.9977,-2.9977,-1.6979,-1.7613,-1.8342,-1.8342,-1.9695,-2.097,-2.0962,-2.1713,-2.2274,-2.2097,-2.1919,-2.1919,-2.2441,-2.2618,-2.2969,-2.3464,-2.4337,-2.4861,-2.4861,-2.5464,-2.5895,-2.5895,-2.5895,-2.5895,-2.5895,-2.6704,-2.7255,-2.7487,-2.8912,-2.9781,-3.0024,-3.0659,-3.1052,-3.1222,-3.1784,-3.2359,-3.2934,-3.3522,-3.4018,-3.4397,-3.4397,-3.4314,-3.416,-3.416,-3.3907,-3.3471,-3.3398,-3.3326,-3.3081,-3.3081,-3.3081,-3.3081,-3.3081,-3.3081,-3.3081,-3.3081,-3.3081,-3.3081,-3.3081,-3.3081,-3.3081,-3.3081,-3.3081,-3.3081,-3.3081,-3.3081,-3.3081,-3.3081,-3.3081,-3.3081,-3.3081,-3.3081,-3.3081,-3.3081,-3.3081,-3.3081,-3.3081,-3.3081,-3.3081,-3.3081,-3.3081,-3.3081,-3.3081,-3.3081,-3.3081,-3.3081,-3.3081,-3.3081,-3.3081,-3.2896,-3.2711,-3.2711,-3.2438,-3.2251,-3.2239,-3.1977,-3.1801,-3.1701,-3.1625,-3.146,-3.1104,-3.1104,-3.1104,-3.0913,-3.0913,-3.0543,-2.9795,-2.9795,-2.9418,-2.868,-2.868,-2.868,-1.6979,-1.7073,-1.7254,-1.8156,-1.933,-2.0331,-2.0898,-2.19,-2.2627,-2.2185,-2.2097,-2.2008,-2.1741,-2.2353,-2.2803,-2.2803,-2.4003,-2.4861,-2.4861,-2.5464,-2.5895,-2.5895,-2.5895,-2.5895,-2.5895,-2.6704,-2.7487,-2.8267,-2.9225,-3.0101,-3.0911,-3.0986,-3.1248,-3.1797,-3.2372,-3.2947,-3.3561,-3.411,-3.4384,-3.4397,-3.4397,-3.4397,-3.4397,-3.416,-3.3979,-3.3713,-3.3471,-3.3326,-3.3081,-3.3081,-3.3081,-3.3081,-3.3081,-3.3081,-3.3081,-3.3081,-3.3081,-3.3081,-3.3081,-3.3081,-3.3081,-3.3081,-3.3081,-3.3081,-3.3081,-3.3081,-3.3081,-3.3081,-3.3081,-3.3081,-3.3081,-3.3081,-3.3081,-3.3081,-3.3081,-3.3081,-3.3081,-3.3081,-3.3081,-3.3081,-3.3081,-3.3081,-3.3081,-3.3081,-3.3081,-3.3081,-3.3081,-3.3081,-3.3081,-3.2264,-3.1625,-3.1625,-3.0812,-3.0158,-2.9943,-2.9852,-2.9681,-2.9143,-2.9315,-2.9315,-2.8866,-2.8958,-2.8958,-2.8773,-2.8773,-2.8773,-2.8773,-2.8773,-2.8773,-2.868,-2.868,-2.868,-1.7246,-1.7246,-1.7426,-1.8427,-1.888,-1.943,-2.0881,-2.1239,-2.1516,-2.1998,-2.1919,-2.183,-2.1741,-2.1909,-2.2087,-2.2087,-2.3212,-2.4155,-2.4155,-2.52,-2.5895,-2.5895,-2.5895,-2.5895,-2.5895,-2.6146,-2.6704,-2.7568,-2.8347,-2.9225,-3.0101,-3.0672,-3.1248,-3.1746,-3.2398,-3.2986,-3.3587,-3.4123,-3.4397,-3.4397,-3.4397,-3.4397,-3.4397,-3.4314,-3.4147,-3.3979,-3.3725,-3.3471,-3.3326,-3.3154,-3.3081,-3.3081,-3.3081,-3.3081,-3.3081,-3.3081,-3.3081,-3.3081,-3.3081,-3.3081,-3.3081,-3.3081,-3.3081,-3.3081,-3.3081,-3.3081,-3.3081,-3.3081,-3.3081,-3.3081,-3.3081,-3.3081,-3.3081,-3.3081,-3.3081,-3.3081,-3.3081,-3.3081,-3.3081,-3.3081,-3.2537,-3.2077,-3.2077,-3.1625,-3.1169,-3.1169,-3.2251,-3.2896,-3.2176,-3.1813,-3.1347,-3.0722,-3.0237,-2.9863,-2.9761,-2.9487,-2.9223,-2.905,-2.8958,-2.8855,-2.868,-2.8773,-2.8773,-2.868,-2.868,-2.8402,-2.7746,-2.7746,-2.7389,-2.6754,-2.6754,-2.6754,-1.7232,-1.7239,-1.7333,-1.7978,-1.8249,-1.8703,-1.9786,-2.0051,-2.0322,-2.1257,-2.1356,-2.1275,-2.1642,-2.1741,-2.1741,-2.1741,-2.2687,-2.3551,-2.38,-2.485,-2.5644,-2.5895,-2.5895,-2.5895,-2.5895,-2.5895,-2.6373,-2.7568,-2.8108,-2.89,-3.0101,-3.0853,-3.1548,-3.2123,-3.2712,-3.33,-3.3875,-3.4228,-3.4397,-3.4397,-3.4397,-3.4397,-3.4397,-3.4397,-3.4314,-3.4076,-3.381,-3.3556,-3.3398,-3.3154,-3.3081,-3.3081,-3.3081,-3.3081,-3.3081,-3.3081,-3.3081,-3.3081,-3.3081,-3.3081,-3.3081,-3.3081,-3.3081,-3.3081,-3.3081,-3.3081,-3.3081,-3.3081,-3.3081,-3.3081,-3.3081,-3.3081,-3.3081,-3.3081,-3.3081,-3.3081,-3.3081,-3.3081,-3.3081,-3.3081,-3.2264,-3.1625,-3.1625,-3.0812,-3.017,-3.017,-3.1258,-3.1801,-3.1169,-3.0812,-3.026,-2.9612,-2.9061,-2.868,-2.8484,-2.8121,-2.7945,-2.7861,-2.7662,-2.7673,-2.7673,-2.7673,-2.7673,-2.7673,-2.7673,-2.7295,-2.6638,-2.6638,-2.638,-2.5742,-2.5742,-2.5742,-1.7239,-1.7153,-1.6979,-1.6979,-1.7613,-1.8149,-1.7785,-1.8411,-1.9231,-2.0158,-2.0339,-2.0619,-2.1553,-2.1741,-2.1741,-2.1741,-2.2353,-2.3047,-2.3714,-2.4413,-2.5211,-2.5812,-2.5895,-2.5895,-2.5895,-2.5895,-2.6622,-2.8303,-2.8462,-2.9184,-3.095,-3.1575,-3.215,-3.2725,-3.33,-3.3849,-3.4384,-3.4397,-3.4397,-3.4397,-3.4397,-3.4397,-3.4397,-3.4397,-3.4314,-3.4076,-3.381,-3.3641,-3.3398,-3.324,-3.3081,-3.3081,-3.3081,-3.3081,-3.3081,-3.3081,-3.3081,-3.3081,-3.3081,-3.3081,-3.3081,-3.3081,-3.3081,-3.3081,-3.3081,-3.3081,-3.3081,-3.3081,-3.3081,-3.3081,-3.3081,-3.3081,-3.3081,-3.3081,-3.3081,-3.3081,-3.3081,-3.3081,-3.3068,-3.3068,-3.2164,-3.1448,-3.1359,-3.0621,-3.0079,-3.0079,-3.0079,-3.0079,-3.0079,-2.9268,-2.8527,-2.8236,-2.7431,-2.6699,-2.61,-2.61,-2.6014,-2.5742,-2.5742,-2.5742,-2.5742,-2.5742,-2.5742,-2.5742,-2.5742,-2.5742,-2.5742,-2.5742,-2.5742,-2.5742,-2.5742,-2.5742,-1.7333,-1.7153,-1.6979,-1.6979,-1.6878,-1.6958,-1.7598,-1.7684,-1.8241,-1.9977,-2.0339,-2.0619,-2.1553,-2.1741,-2.1741,-2.1741,-2.2775,-2.3627,-2.38,-2.485,-2.5728,-2.5895,-2.5895,-2.5895,-2.5895,-2.5895,-2.6768,-2.8934,-2.9039,-2.9843,-3.155,-3.2163,-3.2751,-3.3339,-3.3509,-3.3849,-3.4384,-3.4397,-3.4397,-3.4397,-3.4397,-3.4397,-3.4397,-3.4397,-3.4397,-3.4314,-3.4076,-3.3894,-3.3641,-3.3398,-3.324,-3.3081,-3.3081,-3.3081,-3.3081,-3.3081,-3.3081,-3.3081,-3.3081,-3.3081,-3.3081,-3.3081,-3.3081,-3.3081,-3.3081,-3.3081,-3.3081,-3.3081,-3.3081,-3.3081,-3.3081,-3.3081,-3.3081,-3.3081,-3.3081,-3.3081,-3.3081,-3.3081,-3.2896,-3.2164,-3.0633,-2.9176,-2.8538,-2.8175,-2.8081,-2.8081,-2.7904,-2.8081,-2.8991,-2.8702,-2.8154,-2.7347,-2.6688,-2.6294,-2.6091,-2.5917,-2.5732,-2.5742,-2.5742,-2.5742,-2.5742,-2.5742,-2.5742,-2.5742,-2.5742,-2.5742,-2.5742,-2.5742,-2.5742,-2.5742,-2.5742,-2.5742,-1.7326,-1.7239,-1.7059,-1.6878,-1.6595,-1.6494,-1.6763,-1.7138,-1.7785,-1.9338,-1.9977,-2.0619,-2.1553,-2.1741,-2.1741,-2.1741,-2.2599,-2.3464,-2.38,-2.4765,-2.5559,-2.5895,-2.5895,-2.5983,-2.6201,-2.6223,-2.715,-2.9462,-2.9458,-3.0165,-3.2111,-3.2777,-3.3247,-3.3587,-3.3822,-3.4097,-3.4397,-3.4397,-3.4397,-3.4397,-3.4397,-3.4397,-3.4397,-3.4397,-3.4397,-3.4397,-3.416,-3.3979,-3.3713,-3.3471,-3.3326,-3.3081,-3.3081,-3.3081,-3.3081,-3.3081,-3.3081,-3.3081,-3.3081,-3.3081,-3.3081,-3.3081,-3.3081,-3.3081,-3.3081,-3.3081,-3.3081,-3.3081,-3.3081,-3.3081,-3.3081,-3.3081,-3.3081,-3.3081,-3.3081,-3.2982,-3.2537,-3.2438,-3.1989,-3.0621,-2.9452,-2.8351,-2.7441,-2.7262,-2.7262,-2.7262,-2.7081,-2.7177,-2.7809,-2.7704,-2.7231,-2.6592,-2.6294,-2.6004,-2.5907,-2.583,-2.5742,-2.5742,-2.5742,-2.5742,-2.5742,-2.5742,-2.5742,-2.5742,-2.5742,-2.5742,-2.5742,-2.5742,-2.5742,-2.5742,-2.5742,-2.5742,-1.7326,-1.7232,-1.7145,-1.6676,-1.6588,-1.6393,-1.6109,-1.6669,-1.7598,-1.8788,-1.9704,-2.0619,-2.1553,-2.1741,-2.1731,-2.183,-2.2441,-2.3135,-2.3887,-2.4584,-2.5232,-2.591,-2.5994,-2.619,-2.6671,-2.6801,-2.7741,-2.999,-2.9866,-3.0648,-3.2697,-3.3378,-3.3705,-3.3705,-3.4162,-3.4397,-3.4397,-3.4397,-3.4397,-3.4397,-3.4397,-3.4397,-3.4397,-3.4397,-3.4397,-3.4397,-3.4243,-3.3979,-3.3713,-3.3471,-3.3313,-3.3081,-3.3081,-3.3081,-3.3081,-3.3081,-3.3081,-3.3081,-3.3081,-3.3081,-3.3081,-3.3081,-3.3081,-3.3081,-3.3081,-3.3081,-3.3081,-3.3081,-3.3081,-3.3081,-3.3081,-3.3081,-3.3081,-3.3081,-3.2982,-3.2624,-3.1801,-3.1359,-3.0722,-2.8991,-2.8631,-2.8269,-2.7441,-2.7262,-2.7262,-2.7262,-2.7081,-2.6805,-2.6805,-2.6592,-2.64,-2.61,-2.61,-2.5917,-2.5742,-2.5742,-2.5742,-2.5742,-2.5742,-2.5742,-2.5742,-2.5742,-2.5742,-2.5742,-2.5742,-2.5742,-2.5742,-2.5742,-2.5742,-2.5742,-2.5742,-2.5742,-1.7326,-1.7052,-1.6676,-1.6581,-1.6298,-1.6109,-1.6857,-1.7138,-1.7785,-1.9704,-2.0158,-2.0619,-2.1553,-2.1741,-2.1909,-2.2539,-2.3212,-2.3897,-2.4594,-2.5295,-2.588,-2.6452,-2.6507,-2.6682,-2.7151,-2.7861,-2.8993,-3.0639,-3.1366,-3.2307,-3.3336,-3.3953,-3.4254,-3.4254,-3.4345,-3.4397,-3.4397,-3.4397,-3.4397,-3.4397,-3.4397,-3.4397,-3.4397,-3.4397,-3.4397,-3.4397,-3.4397,-3.4063,-3.3713,-3.3628,-3.3398,-3.3081,-3.3081,-3.3081,-3.3081,-3.3081,-3.3081,-3.3081,-3.3081,-3.3081,-3.3081,-3.3081,-3.3081,-3.3081,-3.3081,-3.3081,-3.3081,-3.3081,-3.3081,-3.3081,-3.3081,-3.3081,-3.3081,-3.3081,-3.245,-3.1801,-3.1625,-3.0351,-2.9084,-2.8817,-2.8081,-2.7536,-2.7357,-2.7262,-2.7262,-2.7262,-2.688,-2.6602,-2.6602,-2.6304,-2.6197,-2.61,-2.5917,-2.5732,-2.5742,-2.5742,-2.5742,-2.5742,-2.5742,-2.5742,-2.5742,-2.5742,-2.5742,-2.5742,-2.5742,-2.5742,-2.5742,-2.5742,-2.5742,-2.5742,-2.5742,-2.5742,-1.7326,-1.7052,-1.6784,-1.6588,-1.6305,-1.6211,-1.7138,-1.7692,-1.8519,-1.9977,-2.0709,-2.1177,-2.1642,-2.1998,-2.2264,-2.2264,-2.3474,-2.4327,-2.4327,-2.5413,-2.6365,-2.6605,-2.6846,-2.7173,-2.7643,-2.8553,-2.9701,-3.118,-3.2092,-3.3051,-3.4005,-3.4254,-3.4397,-3.4397,-3.4397,-3.4397,-3.4397,-3.4397,-3.4397,-3.4397,-3.4397,-3.4397,-3.4397,-3.4397,-3.4397,-3.4397,-3.4314,-3.4063,-3.3713,-3.3556,-3.3398,-3.3081,-3.3081,-3.3081,-3.3081,-3.3081,-3.3081,-3.3081,-3.3081,-3.3081,-3.3081,-3.3081,-3.3081,-3.3081,-3.3081,-3.3081,-3.3081,-3.3081,-3.2711,-3.2351,-3.2351,-3.1989,-3.1613,-3.1613,-3.0812,-3.0079,-3.0079,-2.8991,-2.7998,-2.7998,-2.7631,-2.7262,-2.7262,-2.7167,-2.7081,-2.7081,-2.6592,-2.6294,-2.6294,-2.611,-2.5917,-2.5917,-2.5732,-2.5742,-2.5742,-2.5742,-2.5742,-2.5742,-2.5742,-2.5742,-2.5742,-2.5742,-2.5742,-2.5742,-2.5742,-2.5742,-2.5742,-2.5742,-2.5742,-2.5742,-2.5742,-2.5742,-1.7239,-1.7059,-1.6878,-1.6588,-1.6305,-1.64,-1.7419,-1.8241,-1.9155,-2.0348,-2.1177,-2.1731,-2.1919,-2.2441,-2.2706,-2.2432,-2.3901,-2.4922,-2.4471,-2.5753,-2.6899,-2.7172,-2.7502,-2.7999,-2.8667,-2.9685,-3.0719,-3.1816,-3.2809,-3.3602,-3.4397,-3.4397,-3.4397,-3.4397,-3.4397,-3.4397,-3.4397,-3.4397,-3.4397,-3.4397,-3.4397,-3.4397,-3.4397,-3.4397,-3.4397,-3.4314,-3.416,-3.3907,-3.3641,-3.3471,-3.3326,-3.3081,-3.3081,-3.3081,-3.3081,-3.3081,-3.3081,-3.3081,-3.3081,-3.3081,-3.3081,-3.3081,-3.3081,-3.3081,-3.3081,-3.3081,-3.3081,-3.3081,-3.2537,-3.1901,-3.1625,-3.108,-3.0351,-2.9988,-2.9268,-2.8631,-2.8445,-2.7809,-2.7262,-2.7262,-2.7262,-2.7262,-2.7262,-2.7081,-2.69,-2.6805,-2.64,-2.61,-2.61,-2.583,-2.5742,-2.5742,-2.5742,-2.5742,-2.5742,-2.5742,-2.5742,-2.5742,-2.5742,-2.5742,-2.5742,-2.5742,-2.5742,-2.5742,-2.5742,-2.5742,-2.5742,-2.5742,-2.5742,-2.5742,-2.5742,-2.5742,-1.7066,-1.6878,-1.6588,-1.6312,-1.6028,-1.6292,-1.8234,-1.8696,-1.9338,-2.1186,-2.1642,-2.1909,-2.2627,-2.2706,-2.3232,-2.4433,-2.5131,-2.5762,-2.6292,-2.6868,-2.7756,-2.9087,-2.9267,-2.9827,-3.1104,-3.2117,-3.2759,-3.2895,-3.3784,-3.4314,-3.4397,-3.4397,-3.4397,-3.4397,-3.4397,-3.4397,-3.4397,-3.4397,-3.4397,-3.4397,-3.4397,-3.4397,-3.4397,-3.4397,-3.4314,-3.416,-3.4076,-3.3823,-3.3398,-3.3398,-3.3326,-3.3081,-3.3081,-3.3081,-3.3081,-3.3081,-3.3081,-3.3081,-3.3081,-3.3081,-3.3081,-3.3081,-3.3081,-3.3081,-3.3081,-3.3081,-3.3081,-3.3081,-3.3068,-3.2711,-3.1813,-3.1536,-3.0991,-2.9268,-2.8817,-2.8456,-2.7631,-2.7357,-2.7262,-2.7262,-2.7262,-2.7262,-2.6996,-2.69,-2.6805,-2.6592,-2.6304,-2.61,-2.61,-2.583,-2.5742,-2.5742,-2.5742,-2.5742,-2.5742,-2.5742,-2.5742,-2.5742,-2.5742,-2.5742,-2.5742,-2.5742,-2.5742,-2.5742,-2.5742,-2.5742,-2.5742,-2.5742,-2.5742,-2.5742,-2.5742,-2.5742,-1.7699,-1.7707,-1.7426,-1.7145,-1.7318,-1.7956,-1.9338,-1.9704,-2.0076,-2.1454,-2.2087,-2.2441,-2.2715,-2.3484,-2.4079,-2.4241,-2.5335,-2.6184,-2.6011,-2.7513,-2.8876,-2.9424,-3.0232,-3.1009,-3.1553,-3.2451,-3.325,-3.3784,-3.4217,-3.4397,-3.4397,-3.4397,-3.4397,-3.4397,-3.4397,-3.4397,-3.4397,-3.4397,-3.4397,-3.4397,-3.4397,-3.4397,-3.4397,-3.4243,-3.416,-3.4076,-3.3823,-3.3569,-3.3398,-3.324,-3.3154,-3.3081,-3.3081,-3.3081,-3.3081,-3.3081,-3.3081,-3.3081,-3.3081,-3.3081,-3.3081,-3.3081,-3.3081,-3.3081,-3.3081,-3.3081,-3.3081,-3.3081,-3.2624,-3.1989,-3.0991,-2.9897,-2.8817,-2.8081,-2.7904,-2.7715,-2.7347,-2.7262,-2.7262,-2.7262,-2.7262,-2.7167,-2.6996,-2.6805,-2.6602,-2.6294,-2.6014,-2.582,-2.582,-2.5732,-2.5742,-2.5742,-2.5742,-2.5742,-2.5742,-2.5742,-2.5742,-2.5742,-2.5742,-2.5742,-2.5742,-2.5742,-2.5742,-2.5742,-2.5742,-2.5742,-2.5742,-2.5742,-2.5742,-2.5742,-2.5742,-2.5742,-1.8611,-1.8711,-1.8535,-1.8156,-1.8419,-1.9155,-2.0068,-2.043,-2.0881,-2.182,-2.2618,-2.3135,-2.3406,-2.4262,-2.4765,-2.4498,-2.5797,-2.6737,-2.653,-2.832,-2.992,-3.0449,-3.1448,-3.2103,-3.2364,-3.2993,-3.3687,-3.4314,-3.4397,-3.4397,-3.4397,-3.4397,-3.4397,-3.4397,-3.4397,-3.4397,-3.4397,-3.4397,-3.4397,-3.4397,-3.4314,-3.4314,-3.4314,-3.4076,-3.3992,-3.3907,-3.3569,-3.3398,-3.3313,-3.3154,-3.3081,-3.3081,-3.3081,-3.3081,-3.3081,-3.3081,-3.3081,-3.3081,-3.3081,-3.3081,-3.3081,-3.3081,-3.3081,-3.3081,-3.3081,-3.3081,-3.3081,-3.3081,-3.2164,-3.0991,-2.9988,-2.8538,-2.7262,-2.7262,-2.7262,-2.7262,-2.7262,-2.7262,-2.7262,-2.7262,-2.7262,-2.7167,-2.6996,-2.6699,-2.64,-2.61,-2.5917,-2.5742,-2.5742,-2.5742,-2.5742,-2.5742,-2.5742,-2.5742,-2.5742,-2.5742,-2.5742,-2.5742,-2.5742,-2.5742,-2.5742,-2.5742,-2.5742,-2.5742,-2.5742,-2.5742,-2.5742,-2.5742,-2.5742,-2.5742,-2.5742,-2.5742,-1.9613,-1.9712,-1.9712,-1.8972,-1.8964,-1.9322,-2.0158,-2.0773,-2.1569,-2.2608,-2.3299,-2.3973,-2.4775,-2.4861,-2.5115,-2.5728,-2.6693,-2.7645,-2.8557,-2.9515,-3.0866,-3.271,-3.298,-3.3335,-3.4301,-3.4397,-3.4397,-3.4397,-3.4397,-3.4397,-3.4397,-3.4397,-3.4397,-3.4397,-3.4397,-3.4397,-3.4397,-3.4397,-3.4397,-3.4397,-3.4243,-3.4076,-3.4076,-3.381,-3.3556,-3.3398,-3.3398,-3.3326,-3.3081,-3.3081,-3.3081,-3.3081,-3.3081,-3.3081,-3.3081,-3.3081,-3.3081,-3.3081,-3.3081,-3.3081,-3.3081,-3.3081,-3.3081,-3.3081,-3.3081,-3.3081,-3.3081,-3.3081,-3.1713,-2.9988,-2.9002,-2.7987,-2.7262,-2.7262,-2.7262,-2.7262,-2.7262,-2.7262,-2.7262,-2.7262,-2.7262,-2.7167,-2.6996,-2.6699,-2.64,-2.61,-2.5917,-2.5742,-2.5742,-2.5742,-2.5742,-2.5742,-2.5742,-2.5742,-2.5742,-2.5742,-2.5742,-2.5742,-2.5742,-2.5742,-2.5742,-2.5742,-2.5742,-2.5742,-2.5742,-2.5742,-2.5742,-2.5742,-2.5742,-2.5742,-2.5742,-2.5742,-2.0584,-2.0782,-2.0791,-2.0421,-2.0701,-2.1347,-2.2059,-2.2236,-2.2589,-2.329,-2.4069,-2.4594,-2.4861,-2.5295,-2.5644,-2.5895,-2.7272,-2.8321,-2.8654,-3.0644,-3.2364,-3.2907,-3.3602,-3.405,-3.4397,-3.4397,-3.4397,-3.4397,-3.4397,-3.4397,-3.4397,-3.4397,-3.4397,-3.4397,-3.4397,-3.4397,-3.4397,-3.4397,-3.4314,-3.416,-3.416,-3.3992,-3.381,-3.3556,-3.3484,-3.3398,-3.324,-3.3154,-3.3081,-3.3081,-3.3081,-3.3081,-3.3081,-3.3081,-3.3081,-3.3081,-3.3081,-3.3081,-3.3081,-3.3081,-3.3081,-3.3081,-3.3081,-3.3081,-3.3081,-3.2624,-3.1901,-3.1258,-3.017,-2.9084,-2.8817,-2.7998,-2.7262,-2.7262,-2.7262,-2.7262,-2.7262,-2.7262,-2.7262,-2.7262,-2.7262,-2.7167,-2.6996,-2.6699,-2.64,-2.61,-2.5917,-2.5742,-2.5742,-2.5742,-2.5742,-2.5742,-2.5742,-2.5742,-2.5742,-2.5742,-2.5742,-2.5742,-2.5742,-2.5742,-2.5742,-2.5742,-2.5742,-2.5742,-2.5742,-2.5742,-2.5742,-2.5742,-2.5742,-2.5742,-2.5742,-2.5742,-2.1765,-2.1952,-2.1882,-2.1516,-2.2069,-2.2715,-2.2969,-2.3319,-2.3744,-2.4155,-2.4765,-2.5295,-2.5295,-2.5644,-2.5979,-2.6302,-2.7685,-2.89,-2.9653,-3.1601,-3.3164,-3.3518,-3.4037,-3.4397,-3.4397,-3.4397,-3.4397,-3.4397,-3.4397,-3.4397,-3.4397,-3.4397,-3.4397,-3.4397,-3.4397,-3.4397,-3.4397,-3.4314,-3.4243,-3.4076,-3.3907,-3.3738,-3.3556,-3.3398,-3.3326,-3.3326,-3.3154,-3.3081,0.0,-3.3081,-3.3081,-3.3081,-3.3081,-3.3081,-3.3081,-3.3081,-3.3081,-3.3081,-3.3081,-3.3081,-3.3081,-3.3081,-3.3081,-3.3068,-3.2624,-3.2089,-3.1436,-3.0441,-2.9452,-2.8631,-2.8269,-2.7715,-2.7262,-2.7262,-2.7262,-2.7262,-2.7262,-2.7262,-2.7262,-2.7262,-2.7262,-2.7081,-2.69,-2.6592,-2.6294,-2.61,-2.5917,-2.5742,-2.5742,-2.5742,-2.5742,-2.5742,-2.5742,-2.5742,-2.5742,-2.5742,-2.5742,-2.5742,-2.5742,-2.5742,-2.5742,-2.5742,-2.5742,-2.5742,-2.5742,-2.5742,-2.5742,-2.5323,-2.4922,-2.452,-2.452,-2.452,0.0,-2.3135,-2.3047,-2.2353,-2.2882,-2.3493,-2.3057,-2.4003,0.0,-2.4946,-2.5464,-2.5906,-2.5979,-2.5979,-2.6302,-2.7185,-2.8168,-2.9496,-3.1173,-3.2374,-3.342,-3.4314,-3.4397,-3.4397,-3.4397,-3.4397,-3.4397,-3.4481,-3.4481,-3.4564,-3.4551,-3.4481,-3.4468,-3.4468,-3.4397,-3.4397,-3.4397,-3.416,-3.4076,-3.4076,-3.3654,-3.3398,-3.3398,-3.3154,-3.3081,-3.3081,-3.3081,-3.3081,-3.3081,-3.3081,-3.3081,-3.3081,-3.3081,-3.3081,-3.3081,-3.3081,-3.3081,-3.3081,-3.3081,-3.3081,-3.3081,-3.3081,-3.3081,-3.2896,-3.1901,-3.1536,-3.1258,-3.0351,-2.936,-2.8351,-2.7536,-2.7262,-2.7262,-2.7262,-2.7262,-2.7262,-2.7262,-2.7262,-2.7262,-2.7262,-2.7081,-2.69,-2.69,-2.64,-2.61,-2.61,-2.5917,-2.5742,-2.5742,-2.5742,-2.5742,-2.5742,-2.5742,-2.5742,-2.5742,-2.5742,-2.5742,-2.5742,-2.5742,-2.5635,-2.5635,-2.5635,-2.5538,-2.544,-2.544,-2.544,-2.544,-2.4501,-2.3484,-2.2484,-2.2484,-2.2484,-2.4904,0.0,-2.4079,-2.3484,-2.3907,-2.4498,0.0,-2.4775,-2.5031,-2.5549,-2.5812,-2.6135,-2.6787,-2.6857,-2.7174,-2.7947,-2.9642,-3.0914,-3.1336,-3.2982,-3.4134,-3.4397,-3.4397,-3.4397,-3.4397,-3.4397,-3.4716,-3.5345,-3.5426,-3.5655,-3.6267,-3.5548,-3.5074,-3.5074,-3.4275,-3.3979,-3.416,-3.3894,-3.3725,-3.3569,-3.3484,-3.3313,-3.3154,-3.3167,-3.3081,-3.3081,-3.3081,-3.3081,-3.3081,-3.3081,-3.3081,-3.3081,-3.3081,-3.3081,-3.3081,-3.3081,-3.3081,-3.3081,-3.3081,-3.3081,-3.3081,-3.3081,-3.3081,-3.2896,-3.1901,-3.108,-3.0351,-2.936,-2.8362,-2.7536,-2.7357,-2.7262,-2.7262,-2.7262,-2.7262,-2.7262,-2.7262,-2.7262,-2.7262,-2.6986,-2.69,-2.6805,-2.6602,-2.6294,-2.61,-2.61,-2.5917,-2.5742,-2.5742,-2.5742,-2.5742,-2.5742,-2.5742,-2.5742,-2.5742,-2.5742,-2.5742,-2.5742,-2.5742,-2.5323,-2.4501,-2.4501,-2.4097,-2.3302,-2.3302,-2.3302,-2.3302,-2.2994,-2.2793,-2.2484,-2.2484,-2.2484,-2.5421,-2.5179,-2.4754,-2.4337,-2.4584,-2.502,-2.502,-2.5211,-2.5464,-2.5812,-2.6229,-2.6622,-2.7103,-2.7499,-2.8039,-2.8821,-3.0381,-3.1688,-3.2618,-3.3731,-3.4397,-3.4397,-3.4397,-3.4397,-3.4397,-3.4397,-3.4799,-3.5669,-3.5602,-3.591,-3.6752,-3.6108,-3.5561,-3.5156,-3.4538,-3.405,-3.3907,-3.3641,-3.3471,-3.3398,-3.3313,-3.324,-3.3081,-3.3081,-3.3081,-3.3081,-3.3081,-3.3081,-3.3081,-3.3081,-3.3081,-3.3081,-3.3081,-3.3081,-3.3081,-3.3081,-3.3081,-3.3081,-3.3081,-3.3081,-3.2982,-3.2525,-3.2438,-3.2264,-3.1258,-3.026,-2.936,-2.8817,-2.7987,-2.7262,-2.7262,-2.7262,-2.7262,-2.7177,-2.7081,-2.7071,-2.6976,-2.6976,-2.688,-2.6699,-2.6602,-2.6496,-2.6304,-2.611,-2.5917,-2.5917,-2.583,-2.5742,-2.5742,-2.5742,-2.5742,-2.5742,-2.5742,-2.5528,-2.5011,-2.5011,-2.5011,-2.5011,-2.451,-2.4007,-2.3393,-2.3393,-2.3085,-2.2484,-2.2484,-2.2291,-2.1785,-2.1785,-2.1481,-2.0979,-2.0979,-2.0979,-2.5695,-2.5538,-2.5359,-2.5009,-2.5094,-2.5369,-2.5115,-2.5464,-2.5895,-2.6063,-2.6704,-2.7267,-2.7499,-2.8119,-2.8924,-2.9894,-3.0998,-3.2332,-3.4158,-3.4397,-3.4397,-3.4397,-3.4397,-3.4481,-3.4564,-3.4564,-3.4964,-3.591,-3.5843,-3.6097,-3.6922,-3.661,-3.6056,-3.5182,-3.4786,-3.4301,-3.3641,-3.3484,-3.3313,-3.3313,-3.3154,-3.3081,-3.3081,-3.3081,-3.3081,-3.3081,-3.3081,-3.3081,-3.3081,-3.3081,-3.3081,-3.3081,-3.3081,-3.3081,-3.3081,-3.3081,-3.3081,-3.3081,-3.3081,-3.2982,-3.2711,-3.1901,-3.1536,-3.1169,-3.026,-2.936,-2.8631,-2.8538,-2.7904,-2.7262,-2.7262,-2.7262,-2.7167,-2.69,-2.6805,-2.6805,-2.6506,-2.6496,-2.6496,-2.64,-2.6294,-2.61,-2.6004,-2.582,-2.5742,-2.5742,-2.5742,-2.5742,-2.5742,-2.5742,-2.5742,-2.5742,-2.5528,-2.5118,-2.4196,-2.3791,-2.3583,-2.3583,-2.2885,-2.2391,-2.2291,-2.2089,-2.1988,-2.1988,-2.1988,-2.1591,-2.0688,-2.0688,-2.0181,-1.9279,-1.9279,-1.9279,-2.7371,-2.7196,-2.6599,-2.5443,-2.5695,-2.6196,-2.5801,-2.5812,-2.6146,-2.6857,-2.7103,-2.7649,-2.9069,-2.9381,-2.9932,-3.1229,-3.2514,-3.3502,-3.4306,-3.4397,-3.4397,-3.4397,-3.4397,-3.4647,-3.5154,-3.5236,-3.5857,-3.7169,-3.726,-3.763,-3.8397,-3.7601,-3.6646,-3.5789,-3.4937,-3.4063,-3.324,-3.3154,-3.3154,-3.3154,-3.3081,-3.3081,-3.3081,-3.3081,-3.3081,-3.3081,-3.3081,-3.3081,-3.3081,-3.3081,-3.3081,-3.3081,-3.3081,-3.3081,-3.3081,-3.3081,-3.3081,-3.3081,-3.3081,-3.2537,-3.1801,-3.1625,-3.108,-3.026,-2.9268,-2.8817,-2.8538,-2.7715,-2.7441,-2.7262,-2.6986,-2.6996,-2.689,-2.6602,-2.6592,-2.6592,-2.6496,-2.6496,-2.64,-2.6197,-2.61,-2.6004,-2.583,-2.5732,-2.5742,-2.5742,-2.5742,-2.5742,-2.5742,-2.5742,-2.5742,-2.5742,-2.4913,-2.4295,-2.4088,-2.2484,-2.1387,-2.1387,-2.2089,-2.2089,-2.1183,-2.0285,-1.9776,-1.9776,-1.9776,-1.968,-1.9583,-1.9583,-1.948,-1.9279,-1.9279,-1.9279,-2.7615,-2.736,-2.694,-2.5884,-2.5884,-2.6135,-2.5979,-2.5895,-2.6146,-2.7021,-2.7568,-2.8199,-2.9459,-3.0101,-3.0688,-3.1667,-3.2555,-3.33,-3.3875,-3.4214,-3.4397,-3.4397,-3.4314,-3.4564,-3.5318,-3.5304,-3.5843,-3.7491,-3.7505,-3.7825,-3.8575,-3.8098,-3.7309,-3.6439,-3.5561,-3.4607,-3.3823,-3.3326,-3.3081,-3.3081,-3.3081,-3.3081,-3.3081,-3.3081,-3.3081,-3.3081,-3.3081,-3.3081,-3.3081,-3.3081,-3.3081,-3.3081,-3.3081,-3.3081,-3.3081,-3.3081,-3.3081,-3.2982,-3.245,-3.1989,-3.1448,-3.0351,-2.9715,-2.9176,-2.8269,-2.7904,-2.7809,-2.7441,-2.7262,-2.7262,-2.6996,-2.69,-2.6805,-2.64,-2.6294,-2.6207,-2.612,-2.6024,-2.6024,-2.5917,-2.5917,-2.582,-2.5732,-2.5742,-2.5742,-2.5742,-2.5742,-2.5742,-2.5742,-2.5742,-2.5742,-2.5742,-2.5226,-2.451,-2.3294,-2.2282,-2.1285,-2.0086,-2.0483,-2.0585,-2.0078,-1.9576,-1.9279,-1.9279,-1.9279,-1.9279,-1.9279,-1.9279,-1.9279,-1.9279,-1.9279,-1.9279,-2.7429,-2.7103,-2.694,-2.6302,-2.6063,-2.5979,-2.6146,-2.6218,-2.6539,-2.758,-2.8279,-2.9028,-3.0035,-3.0893,-3.1522,-3.1967,-3.2411,-3.2894,-3.3509,-3.3953,-3.4254,-3.4301,-3.416,-3.4481,-3.5467,-3.5359,-3.591,-3.7644,-3.7596,-3.7749,-3.8366,-3.8277,-3.772,-3.661,-3.5949,-3.5156,-3.4063,-3.3398,-3.3081,-3.3081,-3.3081,-3.3081,-3.3081,-3.3081,-3.3081,-3.3081,-3.3081,-3.3081,-3.3081,-3.3081,-3.3081,-3.3081,-3.3081,-3.3081,-3.3081,-3.3081,-3.2982,-3.2624,-3.1901,-3.127,-3.0722,-2.9176,-2.8538,-2.8269,-2.7536,-2.7262,-2.7262,-2.7262,-2.7262,-2.7167,-2.69,-2.6794,-2.6602,-2.611,-2.6004,-2.5917,-2.5732,-2.5742,-2.5742,-2.5742,-2.5742,-2.5742,-2.5742,-2.5742,-2.5742,-2.5742,-2.5742,-2.5742,-2.5742,-2.5742,-2.5635,-2.5323,-2.5128,-2.4106,-2.1887,-2.1785,-2.1089,-1.9376,-1.9279,-1.9279,-1.9279,-1.9279,-1.9279,-1.9279,-1.9279,-1.9279,-1.9279,-1.9279,-1.9279,-1.9279,-1.9279,-1.9279,-2.736,-2.6857,-2.661,-2.7021,-2.6456,-2.6146,-2.694,-2.7103,-2.758,-2.9147,-2.9549,-3.0022,-3.1435,-3.2137,-3.2581,-3.262,-3.2659,-3.2894,-3.3509,-3.3626,-3.3753,-3.4095,-3.4076,-3.4551,-3.583,-3.591,-3.6531,-3.8037,-3.8127,-3.8127,-3.8202,-3.8202,-3.74,-3.5775,-3.5615,-3.4828,-3.324,-3.3154,-3.3081,-3.3081,-3.3081,-3.3081,-3.3081,-3.3081,-3.3081,-3.3081,-3.3081,-3.3081,-3.3081,-3.3081,-3.3081,-3.3081,-3.3081,-3.3081,-3.3081,-3.3081,-3.2525,-3.1713,-3.1625,-3.0453,-2.891,-2.8724,-2.8081,-2.7357,-2.7357,-2.7262,-2.7262,-2.7262,-2.7081,-2.69,-2.6602,-2.6304,-2.61,-2.583,-2.5732,-2.5732,-2.5742,-2.5742,-2.5742,-2.5742,-2.5742,-2.5742,-2.5742,-2.5742,-2.5742,-2.5742,-2.5742,-2.5742,-2.5742,-2.5742,-2.5323,-2.4295,-2.3294,-2.1887,-1.968,-1.9576,-1.948,-1.9279,-1.9279,-1.9279,-1.9279,-1.9279,-1.9279,-1.9279,-1.9279,-1.9279,-1.9279,-1.9279,-1.9279,-1.9279,-1.9279,-1.9279,-2.7661,-2.7406,-2.7406,-2.7879,-2.7976,-2.7964,-2.7962,-2.7959,-2.8375,-2.992,-2.9955,-3.0112,-3.1577,-3.1731,-3.1744,-3.211,-3.2163,-3.2163,-3.2293,-3.2644,-3.3005,-3.3302,-3.3213,-3.3674,-3.5074,-3.5114,-3.5413,-3.6503,-3.6582,-3.6582,-3.6582,-3.6582,-3.6267,-3.5615,-3.5087,-3.4538,-3.3907,-3.3411,-3.3081,-3.3081,-3.3081,-3.3081,-3.3081,-3.3081,-3.3081,-3.3081,-3.3081,-3.3081,-3.3081,-3.3081,-3.3081,-3.3081,-3.3081,-3.3081,-3.3081,-3.3081,-3.2438,-3.1536,-3.0902,-2.9806,-2.8631,-2.7998,-2.7631,-2.7262,-2.7262,-2.7262,-2.7262,-2.7262,-2.7081,-2.6805,-2.6602,-2.6294,-2.6004,-2.5732,-2.5742,-2.5742,-2.5742,-2.5742,-2.5742,-2.5742,-2.5742,-2.5742,-2.5742,-2.5742,-2.5742,-2.5742,-2.5742,-2.5742,-2.5742,-2.5118,-2.4501,-2.4187,-2.2584,-2.1183,-2.038,-1.968,-1.9279,-1.9279,-1.9279,-1.9279,-1.9279,-1.9279,-1.9279,-1.9279,-1.9279,-1.9279,-1.9279,-1.9279,-1.9279,-1.9279,-1.9279,-1.9279,-2.8211,-2.8119,-2.8119,-2.8664,-2.9114,-2.9377,-2.9234,-2.9126,-2.9389,-3.0491,-3.052,-3.065,-3.1603,-3.1522,-3.1378,-3.1707,-3.1615,-3.1473,-3.1474,-3.1771,-3.2156,-3.2547,-3.2459,-3.2764,-3.396,-3.4088,-3.4495,-3.5263,-3.5506,-3.5615,-3.5615,-3.5615,-3.5467,-3.5237,-3.4703,-3.423,-3.3992,-3.3411,-3.3081,-3.3081,-3.3081,-3.3081,-3.3081,-3.3081,-3.3081,-3.3081,-3.3081,-3.3081,-3.3081,-3.3081,-3.3081,-3.3081,-3.3081,-3.3081,-3.3081,-3.2711,-3.1989,-3.0991,-3.0079,-2.9084,-2.8175,-2.7536,-2.7262,-2.7262,-2.7262,-2.7262,-2.7262,-2.7262,-2.7081,-2.6699,-2.6506,-2.6294,-2.6004,-2.5732,-2.5742,-2.5742,-2.5742,-2.5742,-2.5742,-2.5742,-2.5742,-2.5742,-2.5742,-2.5742,-2.5742,-2.5742,-2.543,-2.5216,-2.5216,-2.4304,-2.3493,-2.3094,-2.1481,-2.038,-2.038,-1.968,-1.9279,-1.9279,-1.9279,-1.9279,-1.9279,-1.9279,-1.9279,-1.9279,-1.9279,-1.9279,-1.9279,-1.9279,-1.9279,-1.9279,-1.9279,-1.9279,-2.9081,-2.8755,-2.8585,-2.9459,-2.9716,-2.9947,-3.0823,-3.0804,-3.0722,-3.0953,-3.1444,-3.1759,-3.1759,-3.1836,-3.1759,-3.1759,-3.1213,-3.0879,-3.141,-3.1345,-3.1327,-3.1741,-3.1805,-3.2034,-3.2646,-3.3156,-3.3873,-3.4719,-3.5262,-3.5521,-3.5615,-3.5615,-3.5224,-3.4397,-3.4397,-3.3979,-3.3081,-3.3081,-3.3081,-3.3081,-3.3081,-3.3081,-3.3081,-3.3081,-3.3081,-3.3081,-3.3081,-3.3081,-3.3081,-3.3081,-3.3081,-3.3081,-3.3081,-3.3068,-3.2982,-3.1989,-3.0991,-3.0079,-2.9084,-2.8081,-2.7262,-2.7262,-2.7262,-2.7262,-2.7262,-2.7262,-2.7262,-2.7262,-2.688,-2.6496,-2.6496,-2.6294,-2.6004,-2.5732,-2.5742,-2.5742,-2.5742,-2.5742,-2.5742,-2.5742,-2.5742,-2.5742,-2.5742,-2.5732,-2.5635,-2.5635,-2.4805,-2.4088,-2.4088,-2.3185,-2.2089,-2.0987,-1.9983,-1.9279,-1.9279,-1.9279,-1.9279,-1.9279,-1.9279,-1.9279,-1.9279,-1.9279,-1.9279,-1.9279,-1.9279,-1.9279,-1.9279,-1.9279,-1.9279,-1.9279,-1.9279,-1.9279,-2.9471,-2.9381,-2.9537,-3.0419,-3.088,-3.1151,-3.1003,-3.1189,-3.1474,-3.155,-3.1718,-3.1759,-3.1759,-3.1509,-3.1289,-3.1526,-3.106,-3.0674,-3.0522,-3.0471,-3.0532,-3.0943,-3.0939,-3.1145,-3.1741,-3.1932,-3.2102,-3.2413,-3.2568,-3.2838,-3.3155,-3.3168,-3.329,-3.3471,-3.3496,-3.3326,-3.3081,-3.3081,-3.3081,-3.3081,-3.3081,-3.3081,-3.3081,-3.3081,-3.3081,-3.3081,-3.3081,-3.3081,-3.3081,-3.3081,-3.3081,-3.3081,-3.3081,-3.2711,-3.1989,-3.1713,-3.0531,-2.9084,-2.8806,-2.8081,-2.7262,-2.7262,-2.7262,-2.7262,-2.7262,-2.7177,-2.6986,-2.6986,-2.6794,-2.6496,-2.6294,-2.6197,-2.6004,-2.5732,-2.5742,-2.5742,-2.5742,-2.5742,-2.5742,-2.5742,-2.5742,-2.5742,-2.5742,-2.5118,-2.4599,-2.4599,-2.3692,-2.2685,-2.1988,-2.1582,-2.0987,-1.9879,-1.948,-1.9279,-1.9279,-1.9279,-1.9279,-1.9279,-1.9279,-1.9279,-1.9279,-1.9279,-1.9279,-1.9279,-1.9279,-1.9279,-1.9279,-1.9279,-1.9279,-1.9279,-1.9279,-1.9279,-3.019,-3.019,-3.0343,-3.0898,-3.1248,-3.147,-3.1352,-3.1418,-3.1496,-3.1496,-3.1496,-3.1496,-3.1496,-3.1146,-3.0953,-3.1125,-3.0752,-3.0394,-3.0152,-3.0011,-3.006,-3.0244,-3.0281,-3.0419,-3.0721,-3.0959,-3.1085,-3.1085,-3.1273,-3.1537,-3.1863,-3.1888,-3.2051,-3.239,-3.2403,-3.2403,-3.2403,-3.2629,-3.2729,-3.2742,-3.2968,-3.3081,-3.3081,-3.3081,-3.3081,-3.3081,-3.3081,-3.3081,-3.3081,-3.3081,-3.2884,-3.2525,-3.2525,-3.1901,-3.0991,-3.0633,-2.9726,-2.8631,-2.8269,-2.7809,-2.7262,-2.7167,-2.7177,-2.7081,-2.6976,-2.688,-2.6699,-2.6699,-2.6506,-2.6294,-2.61,-2.6004,-2.5917,-2.5732,-2.5742,-2.5742,-2.5742,-2.5742,-2.5742,-2.5742,-2.5333,-2.502,-2.502,-2.4196,-2.3484,-2.3484,-2.2584,-2.1489,-2.038,-2.0285,-1.9983,-1.9383,-1.9279,-1.9279,-1.9279,-1.9279,-1.9279,-1.9279,-1.9279,-1.9279,-1.9279,-1.9279,-1.9279,-1.9279,-1.9279,-1.9279,-1.9279,-1.9279,-1.9279,-1.9279,-1.9279,-1.9279,-3.0986,-3.0986,-3.0986,-3.0986,-3.0986,-3.1117,-3.164,-3.1365,-3.0999,-3.1052,-3.1013,-3.0986,-3.0986,-3.0849,-3.0698,-3.0698,-3.0394,-3.0075,-3.0075,-2.9934,-2.9792,-2.9792,-2.9792,-2.9792,-2.9792,-3.0244,-3.0545,-3.0545,-3.0984,-3.126,-3.1311,-3.1323,-3.1336,-3.1386,-3.1386,-3.1386,-3.1386,-3.1888,-3.2139,-3.2139,-3.2667,-3.293,-3.293,-3.3031,-3.3081,-3.2982,-3.2982,-3.2896,-3.281,-3.281,-3.2264,-3.1448,-3.1448,-3.0902,-2.9988,-2.9084,-2.8631,-2.8445,-2.7631,-2.7262,-2.7262,-2.6986,-2.69,-2.6805,-2.6602,-2.6496,-2.6496,-2.6496,-2.6294,-2.61,-2.61,-2.5917,-2.5742,-2.5742,-2.5742,-2.5742,-2.5742,-2.5742,-2.5742,-2.5742,-2.4815,-2.4088,-2.4088,-2.3094,-2.2291,-2.219,-2.1387,-2.038,-1.948,-1.9279,-1.9279,-1.9279,-1.9279,-1.9279,-1.9279,-1.9279,-1.9279,-1.9279,-1.9279,-1.9279,-1.9279,-1.9279,-1.9279,-1.9279,-1.9279,-1.9279,-1.9279,-1.9279,-1.9279,-1.9279,-1.9279,-1.9279,-3.0986,-3.0986,-3.0986,-3.0986,-3.0986,-3.1013,-3.1143,-3.1065,-3.1117,-3.1561,-3.13,-3.0986,-3.0986,-3.0849,-3.0622,-3.052,-3.0228,-3.0011,-2.9869,-2.9869,-2.9792,-2.9792,-2.9792,-2.9792,-2.9792,-2.9892,-2.9967,-2.9967,-3.008,-3.0331,-3.0758,-3.0783,-3.0972,-3.1386,-3.1386,-3.1386,-3.1386,-3.1499,-3.1574,-3.1574,-3.1687,-3.175,-3.1788,-3.2667,-3.2711,-3.1901,-3.1901,-3.1524,-3.08,-3.08,-3.0711,-3.0531,-3.0531,-2.9897,-2.8991,-2.8817,-2.8269,-2.7536,-2.7357,-2.7262,-2.7262,-2.6986,-2.69,-2.6805,-2.6602,-2.639,-2.6197,-2.6197,-2.6014,-2.583,-2.583,-2.5732,-2.5742,-2.5742,-2.5742,-2.5742,-2.5742,-2.5742,-2.5742,-2.5742,-2.4815,-2.4088,-2.4088,-2.2484,-2.0987,-2.0078,-1.9776,-1.9576,-1.9383,-1.9279,-1.9279,-1.9279,-1.9279,-1.9279,-1.9279,-1.9279,-1.9279,-1.9279,-1.9279,-1.9279,-1.9279,-1.9279,-1.9279,-1.9279,-1.9279,-1.9279,-1.9279,-1.9279,-1.9279,-1.9279,-1.9279,-1.9279,-3.0986,-3.0986,-3.0986,-3.0986,-3.0986,-3.0986,-3.0986,-3.0986,-3.1065,-3.1365,-3.1196,-3.0986,-3.0986,-3.0761,-3.0533,-3.0444,-3.0152,-2.9934,-2.9792,-2.9792,-2.9792,-2.9792,-2.9792,-2.9792,-2.9792,-2.9792,-2.9792,-2.9792,-2.9792,-2.9917,-3.0206,-3.0218,-3.0344,-3.062,-3.062,-3.062,-3.062,-3.0884,-3.1022,-3.1022,-3.0852,-3.0538,-3.0205,-3.1209,-3.1125,-3.0237,-3.0237,-2.9963,-2.9546,-2.9788,-2.9623,-2.9206,-2.9351,-2.8899,-2.7987,-2.7987,-2.7715,-2.7262,-2.7262,-2.7262,-2.7081,-2.6794,-2.6602,-2.6496,-2.6217,-2.6014,-2.5917,-2.5917,-2.583,-2.5742,-2.5742,-2.5742,-2.5742,-2.5742,-2.5742,-2.5742,-2.5742,-2.5742,-2.5742,-2.5742,-2.4815,-2.3989,-2.3384,-2.1582,-1.9983,-1.9376,-1.9279,-1.9279,-1.9279,-1.9279,-1.9279,-1.9279,-1.9279,-1.9279,-1.9279,-1.9279,-1.9279,-1.9279,-1.9279,-1.9279,-1.9279,-1.9279,-1.9279,-1.9279,-1.9279,-1.9279,-1.9279,-1.9279,-1.9279,-1.9279,-1.9279,-1.9279,-3.0986,-3.0986,-3.0986,-3.0986,-3.0986,-3.0986,-3.0986,-3.0986,-3.0986,-3.0986,-3.0986,-3.0986,-3.0986,-3.0672,-3.0368,-3.0368,-3.0088,-2.9792,-2.9792,-2.9792,-2.9792,-2.9792,-2.9792,-2.9792,-2.9792,-2.9792,-2.9792,-2.9792,-2.9792,-2.9792,-2.9792,-2.9792,-2.9792,-2.9792,-2.9792,-2.9792,-2.9792,-3.0074,-3.0219,-3.0231,-2.9816,-2.9152,-2.8294,-2.9068,-2.9089,-2.8557,-2.8557,-2.8471,-2.8332,-2.8752,-2.8388,-2.7655,-2.8131,-2.787,-2.7148,-2.7231,-2.7262,-2.7262,-2.7262,-2.7081,-2.6805,-2.6496,-2.6294,-2.6004,-2.5732,-2.5742,-2.5742,-2.5742,-2.5742,-2.5742,-2.5742,-2.5742,-2.5742,-2.5742,-2.5742,-2.5742,-2.5742,-2.5742,-2.5742,-2.5742,-2.4707,-2.3493,-2.2391,-2.0585,-1.9279,-1.9279,-1.9279,-1.9279,-1.9279,-1.9279,-1.9279,-1.9279,-1.9279,-1.9279,-1.9279,-1.9279,-1.9279,-1.9279,-1.9279,-1.9279,-1.9279,-1.9279,-1.9279,-1.9279,-1.9279,-1.9279,-1.9279,-1.9279,-1.9279,-1.9279,-1.9279,-1.9279,-3.0986,-3.0986,-3.0986,-3.0986,-3.0986,-3.0986,-3.0986,-3.0986,-3.0911,-3.0773,-3.0911,-3.0986,-3.0986,-3.0672,-3.0368,-3.0368,-3.0088,-2.9792,-2.9792,-2.9792,-2.9792,-2.9792,-2.9792,-2.9792,-2.9792,-2.9792,-2.9792,-2.9792,-2.9792,-2.9792,-2.9792,-2.9792,-2.9792,-2.9792,-2.9792,-2.9792,-2.9792,-2.9113,-2.8809,-2.873,-2.7894,-2.7016,-2.6173,-2.634,-2.6816,-2.7547,-2.7536,-2.7006,-2.6315,-2.6378,-2.6319,-2.6191,-2.666,-2.6847,-2.6703,-2.7107,-2.7177,-2.6996,-2.6996,-2.6794,-2.6496,-2.6197,-2.61,-2.6004,-2.5732,-2.5742,-2.5742,-2.5742,-2.5742,-2.5742,-2.5742,-2.5742,-2.5742,-2.5742,-2.5742,-2.5742,-2.5742,-2.5742,-2.5742,-2.5742,-2.4106,-2.2383,-2.1285,-2.0086,-1.9279,-1.9279,-1.9279,-1.9279,-1.9279,-1.9279,-1.9279,-1.9279,-1.9279,-1.9279,-1.9279,-1.9279,-1.9279,-1.9279,-1.9279,-1.9279,-1.9279,-1.9279,-1.9279,-1.9279,-1.9279,-1.9279,-1.9279,-1.9279,-1.9279,-1.9279,-1.9279,-1.9279,-3.0986,-3.0986,-3.0986,-3.0986,-3.0986,-3.0986,-3.0986,-3.0986,-3.0911,-3.0773,-3.0773,-3.0849,-3.0849,-3.0533,-3.0292,-3.0368,-3.0088,-2.9792,-2.9792,-2.9792,-2.9792,-2.9792,-2.9792,-2.9792,-2.9792,-2.9792,-2.9792,-2.9792,-2.9792,-2.9792,-2.9792,-2.9378,-2.904,-2.904,-2.8554,-2.8303,-2.8303,-2.7891,-2.7476,-2.6976,-2.6565,-2.5913,-2.5105,-2.5105,-2.5338,-2.573,-2.572,-2.5469,-2.515,-2.5409,-2.5513,-2.5564,-2.6009,-2.6185,-2.6237,-2.6526,-2.6607,-2.6553,-2.6617,-2.6496,-2.6294,-2.61,-2.6004,-2.582,-2.5732,-2.5742,-2.5742,-2.5742,-2.5742,-2.5742,-2.5742,-2.5742,-2.5742,-2.5742,-2.5742,-2.5538,-2.4913,-2.5323,-2.5528,-2.4913,-2.3094,-2.1481,-2.0987,-1.9975,-1.9279,-1.9279,-1.9279,-1.9279,-1.9279,-1.9279,-1.9279,-1.9279,-1.9279,-1.9279,-1.9279,-1.9279,-1.9279,-1.9279,-1.9279,-1.9279,-1.9279,-1.9279,-1.9279,-1.9279,-1.9279,-1.9279,-1.9279,-1.9279,-1.9279,-1.9279,-1.9279,-1.9279,-3.0986,-3.0986,-3.0986,-3.0986,-3.0986,-3.0986,-3.0986,-3.0986,-3.0911,-3.0685,-3.0609,-3.0622,-3.0546,-3.0305,-3.0152,-3.0292,-3.0011,-2.9792,-2.9792,-2.9792,-2.9792,-2.9792,-2.9792,-2.9792,-2.9792,-2.9792,-2.9792,-2.9792,-2.9624,-2.9456,-2.9456,-2.8633,-2.8131,-2.8131,-2.7476,-2.7069,-2.7069,-2.6894,-2.6318,-2.5505,-2.5505,-2.5105,-2.454,-2.454,-2.454,-2.454,-2.454,-2.454,-2.4571,-2.4912,-2.5057,-2.5099,-2.5544,-2.572,-2.5681,-2.5972,-2.6032,-2.607,-2.6215,-2.6108,-2.6004,-2.6004,-2.582,-2.5742,-2.5742,-2.5742,-2.5742,-2.5742,-2.5742,-2.5742,-2.5742,-2.5528,-2.5333,-2.5635,-2.5235,-2.4716,-2.4196,-2.4501,-2.4618,-2.3899,-2.219,-2.0885,-2.0885,-1.9975,-1.9279,-1.9279,-1.9279,-1.9279,-1.9279,-1.9279,-1.9279,-1.9279,-1.9279,-1.9279,-1.9279,-1.9279,-1.9279,-1.9279,-1.9279,-1.9279,-1.9279,-1.9279,-1.9279,-1.9279,-1.9279,-1.9279,-1.9279,-1.9279,-1.9279,-1.9279,-1.9279,-1.9279,-3.0986,-3.0986,-3.0986,-3.0986,-3.0986,-3.0986,-3.0986,-3.0986,-3.0911,-3.052,-3.0444,-3.0368,-3.0152,-3.0075,-3.0075,-3.0075,-2.9934,-2.9792,-2.9792,-2.9792,-2.9792,-2.9792,-2.9792,-2.9792,-2.9792,-2.9792,-2.9792,-2.9792,-2.904,-2.8542,-2.8542,-2.7637,-2.7151,-2.7151,-2.7151,-2.7069,-2.7069,-2.6318,-2.5421,-2.454,-2.454,-2.454,-2.454,-2.454,-2.454,-2.454,-2.454,-2.454,-2.454,-2.4571,-2.4581,-2.4623,-2.5088,-2.5088,-2.4972,-2.5431,-2.5583,-2.556,-2.558,-2.5678,-2.5732,-2.5732,-2.5732,-2.5742,-2.5742,-2.5742,-2.5742,-2.5742,-2.5742,-2.5742,-2.5742,-2.4913,-2.4402,-2.543,-2.4115,-2.2894,-2.389,-2.3384,-2.2693,-2.2584,-2.1684,-2.0885,-2.0885,-1.9975,-1.9279,-1.9279,-1.9279,-1.9279,-1.9279,-1.9279,-1.9279,-1.9279,-1.9279,-1.9279,-1.9279,-1.9279,-1.9279,-1.9279,-1.9279,-1.9279,-1.9279,-1.9279,-1.9279,-1.9279,-1.9279,-1.9279,-1.9279,-1.9279,-1.9279,-1.9279,-1.9279,-1.9279,-3.0986,-3.0986,-3.0986,-3.0986,-3.0986,-3.0986,-3.0986,-3.0986,-3.0911,-3.052,-3.0368,-3.0292,-2.9934,-2.9934,-2.9934,-3.0075,-2.9934,-2.9792,-2.9792,-2.9792,-2.9792,-2.9792,-2.9792,-2.9546,-2.904,-2.8961,-2.8712,-2.8131,-2.781,-2.7637,-2.7637,-2.673,-2.6235,-2.6235,-2.5757,-2.5443,-2.5443,-2.5105,-2.4775,-2.454,-2.454,-2.454,-2.454,-2.454,-2.454,-2.454,-2.454,-2.454,-2.454,-2.454,-2.454,-2.4464,-2.4553,-2.4528,-2.4502,-2.4585,-2.4846,-2.507,-2.5169,-2.5457,-2.5742,-2.5742,-2.5742,-2.5742,-2.5742,-2.5742,-2.5742,-2.5742,-2.5742,-2.5742,-2.5742,-2.4913,-2.3989,-2.3701,-2.2492,-2.1582,-2.1988,-2.1785,-2.1481,-2.1481,-2.0585,-1.9879,-1.9879,-1.9576,-1.9279,-1.9279,-1.9279,-1.9279,-1.9279,-1.9279,-1.9279,-1.9279,-1.9279,-1.9279,-1.9279,-1.9279,-1.9279,-1.9279,-1.9279,-1.9279,-1.9279,-1.9279,-1.9279,-1.9279,-1.9279,-1.9279,-1.9279,-1.9279,-1.9279,-1.9279,-1.9279,-1.9279,-3.0911,-3.0911,-3.0911,-3.0836,-3.0836,-3.0836,-3.0836,-3.0836,-3.0672,-3.0368,-3.0292,-3.0228,-2.9869,-2.9792,-2.9869,-3.0011,-2.9869,-2.9792,-2.9792,-2.9792,-2.9714,-2.9378,-2.9378,-2.904,-2.8131,-2.8051,-2.7799,-2.7151,-2.6823,-2.6648,-2.6648,-2.5841,-2.5337,-2.5337,-2.4775,-2.454,-2.454,-2.454,-2.454,-2.454,-2.454,-2.454,-2.454,-2.454,-2.454,-2.454,-2.454,-2.454,-2.454,-2.454,-2.4454,-2.4378,-2.4292,-2.412,-2.3978,-2.3909,-2.4117,-2.4461,-2.479,-2.5137,-2.5537,-2.5684,-2.5742,-2.5742,-2.5742,-2.5742,-2.5742,-2.5742,-2.5742,-2.5635,-2.5226,-2.4402,-2.3185,-2.1785,-2.1183,-2.0783,-2.0483,-2.038,-2.038,-2.038,-1.9783,-1.9279,-1.9279,-1.9279,-1.9279,-1.9279,-1.9279,-1.9279,-1.9279,-1.9279,-1.9279,-1.9279,-1.9279,-1.9279,-1.9279,-1.9279,-1.9279,-1.9279,-1.9279,-1.9279,-1.9279,-1.9279,-1.9279,-1.9279,-1.9279,-1.9279,-1.9279,-1.9279,-1.9279,-1.9279,-1.9279,-1.9279,0.0,0.0,0.0,-3.0444,-3.0368,-3.0368,-3.0368,-3.0368,-3.0368,-3.0152,-3.0075,-3.0011,-2.9869,-2.9792,-2.9792,-2.9792,-2.9792,-2.9792,-2.9792,-2.9792,-2.9456,-2.8621,-2.8462,-2.8131,-2.7151,-2.7069,-2.7058,-2.7069,-2.6235,-2.5746,-2.5746,-2.4946,-2.454,-2.454,-2.454,-2.454,-2.454,-2.454,-2.454,-2.454,-2.454,-2.454,-2.454,-2.454,-2.454,-2.4454,-2.4454,-2.4454,-2.4454,-2.4454,-2.4368,-2.4206,-2.4206,-2.3937,-2.3503,-2.3503,-2.3605,-2.3857,-2.4268,-2.4697,-2.5137,-2.5596,-2.5742,-2.5742,-2.5742,-2.5742,-2.5742,-2.5742,-2.5742,-2.543,-2.4295,-2.3285,-2.1887,-1.9776,-2.0078,-2.0585,-1.948,-1.9279,-1.9279,-1.9279,-1.9279,-1.9279,-1.9279,-1.9279,-1.9279,-1.9279,-1.9279,-1.9279,-1.9279,-1.9279,-1.9279,-1.9279,-1.9279,-1.9279,-1.9279,-1.9279,-1.9279,-1.9279,-1.9279,-1.9279,-1.9279,-1.9279,-1.9279,-1.9279,-1.9279,-1.9279,-1.9279,-1.9279,-1.9279,-1.9279,-1.9279,-1.9279,-3.052,0.0,0.0,0.0,0.0,0.0,-3.0368,-3.0368,-3.0368,-3.0152,-3.0075,-3.0011,-2.9869,-2.9792,-2.9792,-2.9792,-2.9792,-2.9792,-2.9792,-2.9287,-2.8791,-2.8542,-2.7891,-2.7151,-2.6235,-2.6152,-2.5913,-2.5274,-2.5031,-2.4861,-2.4861,-2.4615,-2.454,-2.454,-2.454,-2.454,-2.454,-2.454,-2.454,-2.454,-2.454,-2.454,-2.454,-2.454,-2.4454,-2.4282,-2.4282,-2.4196,-2.4013,-2.4196,-2.411,-2.3927,-2.3764,-2.359,-2.3503,-2.3319,-2.3506,-2.3857,-2.4268,-2.4697,-2.5137,-2.5596,-2.5742,-2.5742,-2.5742,-2.5742,-2.5742,-2.5742,-2.5742,-2.5226,-2.3393,-2.219,-2.0987,-1.9576,-1.948,-1.968,-1.9376,-1.9279,-1.9279,-1.9279,-1.9279,-1.9279,-1.9279,-1.9279,-1.9279,-1.9279,-1.9279,-1.9279,-1.9279,-1.9279,-1.9279,-1.9279,-1.9279,-1.9279,-1.9279,-1.9279,-1.9279,-1.9279,-1.9279,-1.9279,-1.9279,-1.9279,-1.9279,-1.9279,-1.9279,-1.9279,-1.9279,-1.9279,-1.9279,-1.9279,-1.9279,-1.9279,-3.0292,-3.0292,-3.0216,-3.0152,0.0,0.0,-3.0152,-3.0152,-3.0152,-3.0011,-2.9934,-2.9934,-2.9792,-2.9792,-2.9702,-2.9287,-2.9287,-2.9287,-2.9287,-2.8462,-2.7799,-2.7383,-2.6894,-2.6246,-2.5348,-2.5263,-2.502,-2.454,-2.454,-2.454,-2.454,-2.454,-2.454,-2.454,-2.454,-2.454,-2.454,-2.454,-2.454,-2.454,-2.454,-2.4454,-2.4368,-2.4368,-2.4282,-2.4024,-2.4024,-2.3937,-2.3677,-2.3851,-2.3851,-2.3667,-2.359,-2.3406,-2.3319,-2.3144,-2.3301,-2.3584,-2.4014,-2.4434,-2.4873,-2.5312,-2.5586,-2.5742,-2.5742,-2.5742,-2.5742,-2.5742,-2.503,-2.4106,-2.2793,-2.1387,-2.0078,-1.948,-1.9279,-1.9279,-1.9279,-1.9279,-1.9279,-1.9279,-1.9279,-1.9279,-1.9279,-1.9279,-1.9279,-1.9279,-1.9279,-1.9279,-1.9279,-1.9279,-1.9279,-1.9279,-1.9279,-1.9279,-1.9279,-1.9279,-1.9279,-1.9279,-1.9279,-1.9279,-1.9279,-1.9279,-1.9279,-1.9279,-1.9279,-1.9279,-1.9279,-1.9279,-1.9279,-1.9279,-1.9279,-1.9279,-3.0152,-3.0075,-3.0011,-2.9869,-2.9792,0.0,-2.9792,-2.9792,-2.9792,-2.9714,-2.9624,-2.9624,-2.9546,-2.9468,-2.9221,-2.8462,-2.8291,-2.8211,-2.8291,-2.7557,-2.6648,-2.5902,-2.5746,-2.5348,-2.4625,-2.454,-2.454,-2.454,-2.454,-2.454,-2.454,-2.454,-2.454,-2.454,-2.454,-2.454,-2.454,-2.454,-2.454,-2.454,-2.4454,-2.4368,-2.4206,-2.4206,-2.4024,-2.3754,-2.3754,-2.3667,-2.3503,-2.3503,-2.3503,-2.3503,-2.3503,-2.3319,-2.3135,-2.3135,-2.3135,-2.3203,-2.3633,-2.4062,-2.4492,-2.4922,-2.5371,-2.5742,-2.5742,-2.5742,-2.5635,-2.5538,-2.4106,-2.2484,-2.2383,-2.0783,-1.9279,-1.9279,-1.9279,-1.9279,-1.9279,-1.9279,-1.9279,-1.9279,-1.9279,-1.9279,-1.9279,-1.9279,-1.9279,-1.9279,-1.9279,-1.9279,-1.9279,-1.9279,-1.9279,-1.9279,-1.9279,-1.9279,-1.9279,-1.9279,-1.9279,-1.9279,-1.9279,-1.9279,-1.9279,-1.9279,-1.9279,-1.9279,-1.9279,-1.9279,-1.9279,-1.9279,-1.9279,-1.9279,-1.9279,-1.9279,-2.9869,-2.9869,-2.9869,-2.9792,-2.9792,0.0,-2.9792,-2.9792,-2.9624,-2.887,-2.8791,-2.8542,-2.781,-2.7649,-2.7557,-2.7395,-2.6812,-2.6565,-2.7302,-2.6565,-2.5986,-2.583,-2.5179,-2.47,-2.454,-2.454,-2.454,-2.454,-2.454,-2.454,-2.454,-2.454,-2.454,-2.454,-2.454,-2.454,-2.454,-2.454,-2.454,-2.454,-2.4378,-2.4206,-2.4206,-2.4024,-2.3754,-2.359,-2.359,-2.3406,-2.3144,-2.3144,-2.3144,-2.3144,-2.3144,-2.3144,-2.3135,-2.3135,-2.3135,-2.3203,-2.3633,-2.4062,-2.4492,-2.4922,-2.5371,-2.5742,-2.5742,-2.5742,-2.5528,-2.4707,-2.3493,-2.2291,-2.1489,-2.0285,-1.9279,-1.9279,-1.9279,-1.9279,-1.9279,-1.9279,-1.9279,-1.9279,-1.9279,-1.9279,-1.9279,-1.9279,-1.9279,-1.9279,-1.9279,-1.9279,-1.9279,-1.9279,-1.9279,-1.9279,-1.9279,-1.9279,-1.9279,-1.9279,-1.9279,-1.9279,-1.9279,-1.9279,-1.9279,-1.9279,-1.9279,-1.9279,-1.9279,-1.9279,-1.9279,-1.9279,-1.9279,-1.9279,-1.9279,-1.9279,-2.9792,-2.9792,-2.9792,-2.9792,-2.9456,0.0,0.0,-2.8803,-2.8303,-2.7891,-2.7799,-2.7637,-2.7151,-2.7069,-2.6987,-2.6483,-2.6069,-2.583,-2.5841,-2.5432,-2.5179,-2.5179,-2.4786,-2.454,-2.454,-2.454,-2.454,-2.454,-2.454,-2.454,-2.454,-2.454,-2.454,-2.454,-2.454,-2.454,-2.454,-2.454,-2.4454,-2.4368,-2.4292,-2.412,-2.3851,-2.3677,-2.3493,-2.3319,-2.3319,-2.3232,-2.3135,-2.3135,-2.3135,-2.3135,-2.3135,-2.3135,-2.3135,-2.3135,-2.3135,-2.3164,-2.3389,-2.3887,-2.4453,-2.4668,-2.5195,-2.5742,-2.5742,-2.5742,-2.543,-2.4402,-2.3294,-2.2282,-2.1183,-2.0078,-1.9279,-1.9279,-1.9279,-1.9279,-1.9279,-1.9279,-1.9279,-1.9279,-1.9279,-1.9279,-1.9279,-1.9279,-1.9279,-1.9279,-1.9279,-1.9279,-1.9279,-1.9279,-1.9279,-1.9279,-1.9279,-1.9279,-1.9279,-1.9279,-1.9279,-1.9279,-1.9279,-1.9279,-1.9279,-1.9279,-1.9279,-1.9279,-1.9279,-1.9279,-1.9279,-1.9279,-1.9279,-1.9279,-1.9279,-1.9279,-2.9624,-2.9546,-2.9534,-2.93,-2.8712,-2.8211,0.0,0.0,0.0,-2.6894,-2.6812,-2.6823,-2.6659,-2.6577,-2.6329,-2.5663,-2.5579,-2.5337,-2.4615,-2.454,-2.454,-2.454,-2.454,-2.454,-2.454,-2.454,-2.454,-2.454,-2.454,-2.454,-2.454,-2.454,-2.454,-2.454,-2.4358,-2.4272,-2.4272,-2.4003,-2.3917,-2.3937,-2.3841,-2.3667,-2.3503,-2.3416,-2.3319,-2.3135,-2.3135,-2.3135,-2.3135,-2.3135,-2.3135,-2.3135,-2.3135,-2.3135,-2.3135,-2.3135,-2.3135,-2.3135,-2.3135,-2.3643,-2.4297,-2.4297,-2.4893,-2.5605,-2.5605,-2.5674,-2.543,-2.4196,-2.3194,-2.219,-2.0885,-1.9983,-1.9279,-1.9279,-1.9279,-1.9279,-1.9279,-1.9279,-1.9279,-1.9279,-1.9279,-1.9279,-1.9279,-1.9279,-1.9279,-1.9279,-1.9279,-1.9279,-1.9279,-1.9279,-1.9279,-1.9279,-1.9279,-1.9279,-1.9279,-1.9279,-1.9279,-1.9279,-1.9279,-1.9279,-1.9279,-1.9279,-1.9279,-1.9279,-1.9279,-1.9279,-1.9279,-1.9279,-1.9279,-1.9279,-1.9279,-1.9279,-2.887,-2.8633,-2.8462,-2.7637,-2.7313,-2.7232,-2.7232,0.0,-2.6894,-2.6069,0.0,-2.5746,-2.4946,0.0,0.0,-2.4615,-2.4615,-2.4615,-2.454,-2.454,-2.454,-2.454,-2.454,-2.454,-2.454,-2.454,-2.454,-2.454,-2.454,-2.454,-2.454,-2.454,-2.454,-2.454,-2.3724,-2.328,-2.328,-2.2189,-2.211,-2.2931,-2.2482,-2.2677,-2.3503,-2.3232,-2.3144,-2.3135,-2.3135,-2.3135,-2.3135,-2.3135,-2.3135,-2.3135,-2.3135,-2.3135,-2.3135,-2.3135,-2.3135,-2.3135,-2.3135,-2.3457,-2.3857,-2.3857,-2.4443,-2.5146,-2.5146,-2.542,-2.5235,-2.3294,-2.2584,-2.1988,-1.9983,-1.9376,-1.9279,-1.9279,-1.9279,-1.9279,-1.9279,-1.9279,-1.9279,-1.9279,-1.9279,-1.9279,-1.9279,-1.9279,-1.9279,-1.9279,-1.9279,-1.9279,-1.9279,-1.9279,-1.9279,-1.9279,-1.9279,-1.9279,-1.9279,-1.9279,-1.9279,-1.9279,-1.9279,-1.9279,-1.9279,-1.9279,-1.9279,-1.9279,-1.9279,-1.9279,-1.9279,-1.9279,-1.9279,-1.9279,-1.9279,-1.9279,-2.7971,-2.7718,-2.7557,-2.7232,-2.673,-2.6318,-2.6318,-2.5913,-2.5516,-2.5105,0.0,0.0,0.0,0.0,0.0,0.0,-2.4292,-2.4378,-2.4454,-2.454,-2.454,-2.454,-2.454,-2.454,-2.454,-2.454,-2.454,-2.454,-2.454,-2.454,-2.454,-2.454,-2.4272,-2.3724,-2.328,-2.2736,-2.2101,-2.156,-2.1658,-2.2306,-2.2129,-2.2492,-2.3232,-2.3135,-2.3135,-2.3135,-2.3135,-2.3135,-2.3135,-2.3135,-2.3135,-2.3135,-2.3135,-2.3135,-2.3135,-2.3135,-2.3135,-2.3135,-2.3135,-2.3428,-2.3828,-2.4072,-2.4394,-2.4687,-2.4687,-2.5,-2.4948,-2.2769,-2.2321,-2.1988,-1.9879,-1.9279,-1.9279,-1.9279,-1.9279,-1.9279,-1.9279,-1.9279,-1.9279,-1.9279,-1.9279,-1.9279,-1.9279,-1.9279,-1.9279,-1.9279,-1.9279,-1.9279,-1.9279,-1.9279,-1.9279,-1.9279,-1.9279,-1.9279,-1.9279,-1.9279,-1.9279,-1.9279,-1.9279,-1.9279,-1.9279,-1.9279,-1.9279,-1.9279,-1.9279,-1.9279,-1.9279,-1.9279,-1.9279,-1.9279,-1.9279,-1.9279,-2.6976,-2.673,-2.6659,-2.6412,-2.5841,-2.5337,-2.5337,-2.485,-2.4282,-2.4282,-2.4196,0.0,0.0,0.0,-2.3841,-2.4024,0.0,-2.411,-2.4282,-2.4282,-2.4368,-2.4454,-2.4272,-2.409,-2.409,-2.3917,-2.3831,-2.409,-2.409,-2.4272,-2.4454,-2.454,-2.4003,-2.3008,-2.2736,-2.2022,-2.0854,-2.0494,-2.0773,-2.1596,-2.1498,-2.2041,-2.3135,-2.3135,-2.3135,-2.3135,-2.3135,-2.3135,-2.3135,-2.3135,-2.3135,-2.3135,-2.3135,-2.3135,-2.3135,-2.3135,-2.3135,-2.3135,-2.3135,-2.335,-2.3662,-2.3965,-2.4141,-2.4248,-2.4248,-2.4541,-2.4496,-2.2364,-2.2055,-2.1837,-1.9743,-1.9206,-1.9279,-1.9279,-1.9279,-1.9279,-1.9279,-1.9279,-1.9279,-1.9279,-1.9279,-1.9279,-1.9279,-1.9279,-1.9279,-1.9279,-1.9279,-1.9279,-1.9279,-1.9279,-1.9279,-1.9279,-1.9279,-1.9279,-1.9279,-1.9279,-1.9279,-1.9279,-1.9279,-1.9279,-1.9279,-1.9279,-1.9279,-1.9279,-1.9279,-1.9279,-1.9279,-1.9279,-1.9279,-1.9279,-1.9279,-1.9279,-2.6069,-2.5819,-2.5663,-2.4786,-2.4454,-2.4282,-2.4282,-2.4024,-2.3841,-2.3841,-2.3841,-2.3841,-2.3841,-2.3841,-2.3841,-2.3841,-2.3841,0.0,0.0,-2.3841,-2.4013,-2.4454,-2.3724,-2.3096,-2.3096,-2.2306,-2.2138,-2.3096,-2.3096,-2.3551,-2.4454,-2.454,-2.3907,-2.2736,-2.1836,-2.0764,-1.953,-1.8357,-1.8812,-2.0637,-2.0421,-2.123,-2.3135,-2.3135,-2.3135,-2.3135,-2.3135,-2.3135,-2.3135,-2.3135,-2.3135,-2.3135,-2.3135,-2.3135,-2.3135,-2.3135,-2.3135,-2.3135,-2.3135,-2.3154,-2.3164,-2.3174,-2.3467,-2.3809,-2.3809,-2.4102,-2.3961,-2.196,-2.1662,-2.1469,-1.9403,-1.9038,-1.9279,-1.9279,-1.9279,-1.9279,-1.9279,-1.9279,-1.9279,-1.9279,-1.9279,-1.9279,-1.9279,-1.9279,-1.9279,-1.9279,-1.9279,-1.9279,-1.9279,-1.9279,-1.9279,-1.9279,-1.9279,-1.9279,-1.9279,-1.9279,-1.9279,-1.9279,-1.9279,-1.9279,-1.9279,-1.9279,-1.9279,-1.9279,-1.9279,-1.9279,-1.9279,-1.9279,-1.9279,-1.9279,-1.9279,-1.9279,-2.5189,-2.4935,-2.4861,-2.4454,-2.4292,-2.411,-2.4024,-2.3841,-2.3841,-2.3841,-2.3667,-2.358,-2.358,-2.3493,-2.3406,-2.358,-2.358,-2.3667,0.0,-2.3299,-2.2931,-2.3105,-2.3018,-2.2755,-2.2217,-2.2482,-2.2482,-2.2227,-2.2746,-2.2931,-2.2668,-2.2668,-2.2129,-2.0872,-2.0512,-1.9704,-1.8357,-1.8542,-1.9263,-2.0331,-2.0872,-2.1872,-2.3135,-2.3135,-2.3135,-2.3135,-2.3135,-2.3135,-2.3135,-2.3135,-2.3135,-2.3135,-2.3135,-2.3135,-2.3135,-2.3135,-2.3135,-2.3135,-2.3135,-2.3135,-2.3135,-2.3135,-2.3242,-2.3359,-2.3359,-2.3662,-2.353,-2.1555,-2.1352,-2.1444,-1.9381,-1.903,-1.9279,-1.9279,-1.9279,-1.9279,-1.9279,-1.9279,-1.9279,-1.9279,-1.9279,-1.9279,-1.9279,-1.9279,-1.9279,-1.9279,-1.9279,-1.9279,-1.9279,-1.9279,-1.9279,-1.9279,-1.9279,-1.9279,-1.9279,-1.9279,-1.9279,-1.9279,-1.9279,-1.9279,-1.9279,-1.9279,-1.9279,-1.9279,-1.9279,-1.9279,-1.9279,-1.9279,-1.9279,-1.9279,-1.9279,-1.9279,-2.4433,-2.4272,-2.4196,-2.411,-2.4024,-2.3937,-2.3754,-2.358,-2.358,-2.358,-2.3406,-2.3319,-2.3319,-2.3232,-2.3047,-2.2872,-2.2872,-2.2775,0.0,-2.2031,-2.1498,-2.1329,-2.1507,-2.1418,-2.097,-2.1141,-2.1221,-2.097,-2.1498,-2.1667,-2.1409,-2.1409,-2.0863,-1.9604,-1.9613,-1.898,-1.7527,-1.8535,-1.9438,-2.0232,-2.1239,-2.2236,-2.3135,-2.3135,-2.3135,-2.3135,-2.3135,-2.3135,-2.3135,-2.3135,-2.3135,-2.3135,-2.3135,-2.3135,-2.3135,-2.3135,-2.3135,-2.3135,-2.3135,-2.3135,-2.3135,-2.3135,-2.3135,-2.3135,-2.3135,-2.333,-2.3099,-2.1059,-2.0951,-2.0987,-1.907,-1.8855,-1.9133,-1.925,-1.9279,-1.9279,-1.9279,-1.9279,-1.9279,-1.9279,-1.9279,-1.9279,-1.9279,-1.9279,-1.9279,-1.9279,-1.9279,-1.9279,-1.9279,-1.9279,-1.9279,-1.9279,-1.9279,-1.9279,-1.9279,-1.9279,-1.9279,-1.9279,-1.9279,-1.9279,-1.9279,-1.9279,-1.9279,-1.9279,-1.9279,-1.9279,-1.9279,-1.9279,-1.9279,-1.9279,-1.9279,-1.9279]},{"header":{"parameterUnit":"m.s-1","parameterCategory":1,"la1":30.6,"la2":29.2853,"lo1":-89.7004,"lo2":-87.6739,"dy":0.0162,"dx":0.0183,"nx":112,"ny":82,"refTime":"2023-10-08T12:00:00:Z","depth":0,"parameterNumber":3,"parameterNumberName":"V-component_of_WINDS"},"data":[0.0,0.0,0.0,0.0,0.0,0.0,0.0,0.0,0.0,0.0,0.0,0.0,0.0,0.0,0.0,0.0,0.0,0.0,0.0,0.0,0.0,0.0,0.0,0.0,0.0,0.0,0.0,0.0,0.0,0.0,0.0,0.0,0.0,0.0,0.0,0.0,0.0,0.0,0.0,0.0,0.0,0.0,0.0,0.0,0.0,0.0,0.0,0.0,0.0,0.0,0.0,0.0,0.0,0.0,0.0,0.0,0.0,0.0,0.0,0.0,0.0,0.0,0.0,0.0,0.0,0.0,0.0,0.0,0.0,0.0,0.0,0.0,0.0,0.0,0.0,0.0,0.0,0.0,0.0,0.0,0.0,0.0,0.0,0.0,0.0,0.0,0.0,0.0,0.0,0.0,-2.9715,-2.8631,-2.7809,-2.7357,-2.7536,-2.8269,-2.9176,-3.0351,0.0,0.0,0.0,0.0,0.0,0.0,0.0,0.0,0.0,0.0,0.0,0.0,0.0,0.0,0.0,0.0,0.0,0.0,0.0,0.0,0.0,0.0,0.0,0.0,0.0,0.0,0.0,0.0,0.0,0.0,0.0,0.0,0.0,0.0,0.0,0.0,0.0,0.0,0.0,0.0,0.0,0.0,0.0,0.0,0.0,0.0,0.0,0.0,0.0,0.0,0.0,0.0,0.0,0.0,0.0,0.0,0.0,0.0,0.0,0.0,0.0,0.0,0.0,0.0,0.0,0.0,0.0,0.0,0.0,0.0,0.0,0.0,0.0,0.0,0.0,0.0,0.0,0.0,0.0,0.0,0.0,0.0,0.0,0.0,0.0,0.0,0.0,0.0,0.0,0.0,0.0,0.0,0.0,0.0,0.0,0.0,0.0,0.0,0.0,0.0,0.0,0.0,0.0,0.0,-2.9532,-2.7715,-2.7357,-2.7631,-2.8445,-2.8631,-2.9452,-3.1258,0.0,0.0,0.0,0.0,0.0,0.0,0.0,0.0,0.0,0.0,0.0,0.0,0.0,0.0,0.0,0.0,0.0,0.0,0.0,0.0,0.0,0.0,0.0,0.0,0.0,0.0,0.0,0.0,0.0,0.0,0.0,0.0,0.0,0.0,0.0,0.0,0.0,0.0,0.0,0.0,0.0,0.0,0.0,0.0,0.0,0.0,0.0,0.0,0.0,0.0,0.0,0.0,0.0,0.0,0.0,0.0,0.0,0.0,0.0,0.0,0.0,0.0,0.0,0.0,0.0,0.0,0.0,0.0,0.0,0.0,0.0,0.0,0.0,0.0,0.0,0.0,0.0,0.0,0.0,0.0,0.0,0.0,0.0,0.0,0.0,0.0,0.0,0.0,0.0,0.0,0.0,0.0,0.0,0.0,0.0,0.0,0.0,0.0,0.0,0.0,0.0,0.0,0.0,-3.026,-2.8806,-2.7441,-2.7262,-2.7726,-2.8631,-2.9176,-3.0079,-3.1536,-3.2077,0.0,0.0,0.0,0.0,0.0,0.0,0.0,0.0,0.0,0.0,0.0,0.0,0.0,0.0,0.0,0.0,0.0,0.0,0.0,0.0,0.0,0.0,0.0,0.0,0.0,0.0,0.0,0.0,0.0,0.0,0.0,0.0,0.0,0.0,0.0,0.0,0.0,0.0,0.0,0.0,0.0,0.0,0.0,0.0,0.0,0.0,0.0,0.0,0.0,0.0,0.0,0.0,0.0,0.0,0.0,0.0,0.0,0.0,0.0,0.0,0.0,0.0,0.0,0.0,0.0,0.0,0.0,0.0,0.0,0.0,0.0,0.0,0.0,0.0,0.0,0.0,0.0,0.0,0.0,0.0,0.0,0.0,0.0,0.0,0.0,0.0,0.0,0.0,0.0,0.0,0.0,0.0,0.0,0.0,0.0,0.0,0.0,0.0,0.0,0.0,0.0,0.0,-2.9988,-2.9165,-2.8164,-2.807,-2.8434,-2.936,-3.0079,-3.0902,-3.1889,-3.2711,0.0,0.0,0.0,0.0,0.0,0.0,0.0,0.0,0.0,0.0,0.0,0.0,0.0,0.0,0.0,0.0,0.0,0.0,0.0,0.0,0.0,0.0,0.0,0.0,0.0,0.0,0.0,0.0,0.0,0.0,0.0,0.0,0.0,0.0,0.0,0.0,0.0,0.0,0.0,0.0,0.0,0.0,0.0,0.0,0.0,0.0,0.0,0.0,0.0,0.0,0.0,0.0,0.0,0.0,0.0,0.0,0.0,0.0,0.0,0.0,0.0,0.0,0.0,0.0,0.0,0.0,0.0,0.0,0.0,0.0,0.0,0.0,0.0,0.0,0.0,0.0,0.0,0.0,0.0,0.0,0.0,0.0,0.0,0.0,0.0,0.0,0.0,0.0,0.0,0.0,0.0,0.0,0.0,0.0,0.0,0.0,0.0,0.0,0.0,0.0,0.0,0.0,-3.1965,-3.1589,-3.0406,-3.0316,-3.0687,-3.1713,-3.1625,-3.1901,-3.2896,-3.3081,0.0,0.0,0.0,0.0,0.0,0.0,0.0,0.0,0.0,0.0,0.0,0.0,0.0,0.0,0.0,0.0,0.0,0.0,0.0,0.0,0.0,0.0,0.0,0.0,0.0,0.0,0.0,0.0,0.0,0.0,0.0,0.0,0.0,0.0,0.0,0.0,0.0,0.0,0.0,0.0,0.0,0.0,0.0,0.0,0.0,0.0,0.0,0.0,0.0,0.0,0.0,0.0,0.0,0.0,0.0,0.0,0.0,0.0,0.0,0.0,0.0,0.0,0.0,0.0,0.0,0.0,0.0,0.0,0.0,0.0,0.0,0.0,0.0,0.0,0.0,0.0,0.0,0.0,0.0,0.0,0.0,0.0,0.0,0.0,0.0,0.0,0.0,0.0,0.0,0.0,0.0,0.0,0.0,0.0,0.0,0.0,0.0,0.0,0.0,0.0,0.0,0.0,-3.2152,-3.1777,-3.0831,-3.0496,-3.0789,-3.1889,-3.1713,-3.2064,-3.324,0.0,0.0,0.0,0.0,0.0,0.0,0.0,0.0,0.0,0.0,0.0,0.0,0.0,0.0,0.0,0.0,0.0,0.0,0.0,0.0,0.0,0.0,0.0,0.0,0.0,0.0,0.0,0.0,0.0,0.0,0.0,0.0,0.0,0.0,0.0,0.0,0.0,0.0,0.0,0.0,0.0,0.0,0.0,0.0,0.0,0.0,0.0,0.0,0.0,0.0,0.0,0.0,0.0,0.0,0.0,0.0,0.0,0.0,0.0,0.0,0.0,0.0,0.0,0.0,0.0,0.0,0.0,0.0,0.0,0.0,0.0,0.0,0.0,0.0,0.0,0.0,0.0,0.0,0.0,0.0,0.0,0.0,0.0,0.0,0.0,0.0,0.0,0.0,0.0,0.0,0.0,0.0,0.0,0.0,0.0,0.0,0.0,0.0,0.0,0.0,0.0,0.0,-3.292,-3.2846,-3.2562,-3.1904,-3.1565,-3.1777,-3.2599,-3.2413,-3.2587,-3.3471,0.0,0.0,0.0,0.0,0.0,0.0,0.0,0.0,0.0,0.0,0.0,0.0,0.0,0.0,0.0,0.0,0.0,0.0,0.0,0.0,0.0,0.0,0.0,0.0,0.0,0.0,0.0,0.0,0.0,0.0,0.0,0.0,0.0,0.0,0.0,0.0,0.0,0.0,0.0,0.0,0.0,0.0,0.0,0.0,0.0,0.0,0.0,0.0,0.0,0.0,0.0,0.0,0.0,0.0,0.0,0.0,0.0,0.0,0.0,0.0,0.0,0.0,0.0,0.0,0.0,0.0,0.0,0.0,0.0,0.0,0.0,0.0,0.0,0.0,0.0,0.0,0.0,0.0,0.0,0.0,0.0,0.0,0.0,0.0,0.0,0.0,0.0,0.0,0.0,0.0,0.0,0.0,0.0,0.0,0.0,0.0,0.0,0.0,0.0,0.0,0.0,0.0,-3.416,-3.4314,-3.4314,-3.416,-3.4076,-3.4076,-3.4076,-3.3894,-3.3713,0.0,0.0,0.0,0.0,0.0,0.0,0.0,0.0,0.0,0.0,0.0,0.0,0.0,0.0,0.0,0.0,0.0,0.0,0.0,0.0,0.0,0.0,0.0,0.0,0.0,0.0,0.0,0.0,0.0,0.0,0.0,0.0,0.0,0.0,0.0,0.0,0.0,0.0,0.0,0.0,0.0,0.0,0.0,0.0,0.0,0.0,0.0,0.0,0.0,0.0,0.0,0.0,0.0,0.0,0.0,0.0,0.0,0.0,0.0,0.0,0.0,0.0,0.0,0.0,0.0,0.0,0.0,0.0,0.0,0.0,0.0,0.0,0.0,0.0,0.0,0.0,0.0,0.0,0.0,0.0,0.0,0.0,0.0,0.0,0.0,0.0,0.0,0.0,0.0,0.0,0.0,0.0,0.0,0.0,0.0,0.0,0.0,0.0,0.0,0.0,0.0,0.0,0.0,-3.4314,-3.4243,-3.4243,-3.4314,-3.3979,-3.3894,-3.4076,-3.3894,-3.381,-3.3992,0.0,0.0,0.0,0.0,0.0,0.0,0.0,0.0,0.0,0.0,0.0,0.0,0.0,0.0,0.0,0.0,0.0,0.0,0.0,0.0,0.0,0.0,0.0,0.0,0.0,0.0,0.0,0.0,0.0,0.0,0.0,0.0,0.0,0.0,0.0,0.0,0.0,0.0,0.0,0.0,0.0,0.0,0.0,0.0,0.0,0.0,0.0,0.0,0.0,0.0,0.0,0.0,0.0,0.0,0.0,0.0,0.0,0.0,0.0,0.0,0.0,0.0,0.0,0.0,0.0,0.0,0.0,0.0,0.0,0.0,0.0,0.0,0.0,0.0,0.0,0.0,0.0,0.0,0.0,0.0,0.0,0.0,0.0,0.0,0.0,0.0,0.0,0.0,0.0,0.0,0.0,0.0,0.0,0.0,0.0,0.0,0.0,0.0,0.0,0.0,0.0,0.0,-3.4397,-3.4314,-3.4243,-3.4397,-3.4147,-3.4063,-3.4243,-3.4063,-3.4063,-3.4243,0.0,0.0,0.0,0.0,0.0,0.0,0.0,0.0,0.0,0.0,0.0,0.0,0.0,0.0,0.0,0.0,0.0,0.0,0.0,0.0,0.0,0.0,0.0,0.0,0.0,0.0,0.0,0.0,0.0,0.0,0.0,0.0,0.0,0.0,0.0,0.0,0.0,0.0,0.0,0.0,0.0,0.0,0.0,0.0,0.0,0.0,0.0,0.0,0.0,0.0,0.0,0.0,0.0,0.0,0.0,0.0,0.0,0.0,0.0,0.0,0.0,0.0,0.0,0.0,0.0,0.0,0.0,0.0,0.0,0.0,0.0,0.0,0.0,0.0,0.0,0.0,0.0,0.0,0.0,0.0,0.0,0.0,0.0,0.0,0.0,0.0,0.0,0.0,0.0,0.0,0.0,0.0,0.0,0.0,0.0,0.0,0.0,0.0,0.0,0.0,0.0,0.0,-3.4397,-3.4397,-3.4397,-3.4397,-3.4397,-3.4397,-3.4397,-3.4397,-3.4397,-3.4397,0.0,0.0,0.0,0.0,0.0,0.0,0.0,0.0,0.0,0.0,0.0,0.0,0.0,0.0,0.0,0.0,0.0,0.0,0.0,0.0,0.0,0.0,0.0,0.0,0.0,0.0,0.0,0.0,0.0,0.0,0.0,0.0,0.0,0.0,0.0,0.0,0.0,0.0,0.0,0.0,0.0,0.0,0.0,0.0,0.0,0.0,0.0,0.0,0.0,0.0,0.0,0.0,0.0,0.0,0.0,0.0,0.0,0.0,0.0,0.0,-2.9792,-2.9792,0.0,0.0,0.0,0.0,0.0,0.0,0.0,0.0,0.0,0.0,0.0,0.0,0.0,0.0,0.0,0.0,0.0,0.0,0.0,0.0,0.0,0.0,0.0,0.0,0.0,0.0,0.0,0.0,0.0,0.0,0.0,0.0,0.0,0.0,0.0,0.0,0.0,0.0,0.0,0.0,-3.4481,-3.4397,-3.4397,-3.4397,-3.4397,-3.4397,-3.4397,-3.4397,-3.4397,-3.4397,-3.4397,0.0,0.0,0.0,0.0,0.0,0.0,0.0,0.0,0.0,0.0,0.0,0.0,0.0,0.0,0.0,0.0,0.0,0.0,0.0,0.0,0.0,0.0,0.0,0.0,0.0,0.0,0.0,0.0,0.0,0.0,0.0,0.0,0.0,0.0,0.0,0.0,0.0,0.0,0.0,0.0,0.0,0.0,0.0,0.0,0.0,0.0,0.0,0.0,0.0,0.0,0.0,0.0,0.0,0.0,0.0,0.0,0.0,0.0,0.0,-2.9921,-2.9792,0.0,0.0,0.0,0.0,0.0,0.0,0.0,0.0,0.0,0.0,0.0,0.0,0.0,0.0,0.0,0.0,0.0,0.0,0.0,0.0,0.0,0.0,0.0,0.0,0.0,0.0,0.0,0.0,0.0,0.0,0.0,0.0,0.0,0.0,0.0,0.0,0.0,0.0,0.0,0.0,-3.4481,-3.4397,-3.4397,-3.4397,-3.4397,-3.4397,-3.4397,-3.4397,-3.4551,-3.5032,-3.5032,0.0,0.0,0.0,0.0,0.0,0.0,0.0,0.0,0.0,0.0,0.0,0.0,0.0,0.0,0.0,0.0,0.0,0.0,0.0,0.0,0.0,0.0,0.0,0.0,0.0,0.0,0.0,0.0,0.0,0.0,0.0,0.0,0.0,0.0,0.0,0.0,0.0,0.0,0.0,0.0,0.0,0.0,0.0,0.0,0.0,0.0,0.0,0.0,0.0,0.0,0.0,0.0,0.0,-3.2218,-3.2146,-3.1928,-3.2015,-3.1636,-3.0895,-3.0432,-3.0152,-2.9998,-2.9856,0.0,0.0,0.0,0.0,0.0,0.0,0.0,0.0,0.0,0.0,0.0,0.0,0.0,0.0,0.0,0.0,0.0,0.0,0.0,0.0,0.0,0.0,-3.7677,-3.7204,-3.7601,-3.7904,-3.7281,0.0,0.0,0.0,0.0,0.0,0.0,0.0,0.0,0.0,0.0,0.0,-3.4799,-3.4786,-3.4868,-3.4868,-3.4868,-3.4868,-3.4868,-3.4868,-3.5101,-3.5896,-3.5896,-3.5896,0.0,0.0,0.0,0.0,0.0,0.0,0.0,0.0,0.0,0.0,0.0,0.0,0.0,0.0,0.0,0.0,0.0,0.0,0.0,0.0,0.0,0.0,0.0,0.0,0.0,0.0,0.0,0.0,0.0,0.0,0.0,0.0,-3.5088,-3.4942,0.0,0.0,0.0,0.0,0.0,0.0,0.0,0.0,0.0,0.0,0.0,0.0,0.0,-3.3894,-3.3073,-3.3756,-3.3395,-3.2074,-3.272,-3.2349,-3.1106,-3.1783,-3.1636,-3.097,-3.1576,0.0,-3.0683,-3.0062,0.0,0.0,0.0,0.0,0.0,0.0,0.0,0.0,0.0,0.0,0.0,0.0,0.0,0.0,0.0,0.0,0.0,0.0,0.0,0.0,0.0,0.0,-3.9104,-3.9031,-3.9104,-3.8958,-3.8188,-3.8575,-3.8797,-3.7886,-3.8412,-3.8797,0.0,0.0,0.0,0.0,0.0,0.0,-3.5749,-3.6122,-3.6568,-3.6568,-3.6568,-3.6568,-3.6568,-3.6568,-3.6646,-3.6724,-3.6724,-3.6724,-3.6724,-3.7553,0.0,0.0,0.0,0.0,0.0,0.0,0.0,0.0,0.0,0.0,0.0,0.0,0.0,0.0,0.0,0.0,0.0,0.0,0.0,0.0,0.0,0.0,0.0,0.0,0.0,0.0,0.0,0.0,0.0,-3.5688,-3.5088,-3.5088,-3.4196,-3.3605,0.0,0.0,0.0,0.0,0.0,0.0,0.0,0.0,0.0,-3.4414,-3.4414,-3.4264,-3.3894,-3.4196,-3.4045,-3.3395,-3.3742,-3.352,-3.2875,-3.3381,-3.3087,-3.2205,-3.2706,-3.272,-3.2277,-3.1071,-3.0859,-3.1206,0.0,0.0,0.0,0.0,-3.2796,-3.2671,-3.4968,-3.5624,-3.564,-3.6734,0.0,0.0,0.0,0.0,0.0,0.0,0.0,-3.9424,-3.9424,-3.9424,-3.9424,-3.9424,-3.9424,-3.9265,-3.8958,-3.9119,-3.9031,-3.7691,-3.8486,-3.9119,-3.8352,-3.8885,0.0,0.0,0.0,-3.772,-3.6517,-3.666,-3.688,-3.688,-3.688,-3.688,-3.688,-3.688,-3.7127,-3.7615,-3.763,-3.763,-3.763,-3.8412,-3.8664,0.0,0.0,0.0,0.0,0.0,0.0,0.0,0.0,0.0,0.0,0.0,0.0,0.0,0.0,0.0,0.0,0.0,0.0,0.0,0.0,0.0,0.0,0.0,0.0,0.0,0.0,0.0,0.0,-3.5703,-3.5169,-3.5169,-3.4249,-3.3675,0.0,0.0,0.0,0.0,0.0,0.0,-3.4414,-3.4414,-3.4414,-3.4414,-3.4414,-3.4414,-3.4414,-3.4414,-3.4414,-3.4414,-3.4414,-3.4264,-3.4113,-3.4481,-3.4182,-3.3297,-3.3713,-3.3659,-3.3227,-3.2001,-3.1563,-3.1696,-3.2001,-3.2096,-3.2299,-3.3684,-3.4022,-3.3938,-3.5899,-3.6475,-3.6548,-3.7463,-3.8074,-3.8481,-3.8517,0.0,0.0,0.0,0.0,-3.9424,-3.9424,-3.9424,-3.9424,-3.9424,-3.9424,-3.9424,-3.9424,-3.9424,-3.9017,-3.7753,-3.8546,-3.9192,-3.859,-3.9031,0.0,-3.8352,-3.8352,-3.8188,-3.7372,-3.7434,-3.751,-3.751,-3.751,-3.751,-3.751,-3.751,-3.7843,-3.8501,-3.8516,-3.8516,-3.8516,-3.9104,-3.9119,-3.8501,0.0,0.0,0.0,0.0,0.0,0.0,0.0,0.0,0.0,0.0,0.0,0.0,0.0,0.0,0.0,0.0,0.0,0.0,0.0,0.0,0.0,0.0,0.0,0.0,0.0,0.0,0.0,0.0,0.0,-3.5169,-3.4249,0.0,0.0,0.0,0.0,-3.4346,-3.4196,-3.4196,-3.4414,-3.4414,-3.4414,-3.4414,-3.4414,-3.4414,-3.4414,-3.4414,-3.4414,-3.4414,-3.4414,-3.3977,-3.3297,-3.4249,-3.4249,-3.3506,-3.4438,-3.4016,-3.269,-3.2349,-3.2492,-3.2903,-3.2834,-3.2922,-3.3104,-3.391,-3.5025,-3.6229,-3.7012,-3.7678,-3.8381,-3.9068,-3.9292,-3.9379,-3.9337,-3.9337,0.0,0.0,-3.9424,-3.9424,-3.9424,-3.9424,-3.9424,-3.9424,-3.9424,-3.9424,-3.9424,-3.9424,-3.9352,-3.9265,-3.9337,-3.9424,-3.9352,0.0,-3.9119,-3.8352,-3.8811,-3.9046,-3.8277,-3.8811,-3.9265,-3.9265,-3.9265,-3.9265,-3.9265,-3.9265,-3.9265,-3.9352,-3.9352,-3.9352,-3.9352,-3.9352,-3.9352,-3.9337,-3.9352,0.0,0.0,0.0,0.0,0.0,0.0,0.0,0.0,0.0,0.0,0.0,0.0,0.0,0.0,0.0,0.0,0.0,0.0,0.0,0.0,0.0,0.0,0.0,0.0,0.0,0.0,0.0,0.0,-3.4735,-3.4264,0.0,-3.4059,-3.4059,-3.4142,-3.4414,-3.4346,-3.4346,-3.4414,-3.4414,-3.4414,-3.4414,-3.4414,-3.4414,-3.4414,-3.4414,-3.4481,-3.4563,-3.4481,-3.4385,-3.4288,-3.4668,-3.4654,-3.4438,-3.4868,-3.4802,-3.4332,-3.4654,-3.4312,-3.3603,-3.4213,-3.4754,-3.531,-3.6501,-3.695,-3.7113,-3.8222,-3.882,-3.9095,-3.9334,-3.9424,-3.9424,-3.9424,-3.9424,-3.9424,-3.9424,-3.9424,-3.9424,-3.9424,-3.9424,-3.9424,-3.9424,-3.9424,-3.9424,-3.9424,-3.9424,-3.9424,-3.9424,-3.9424,-3.9424,-3.9424,-3.9424,-3.9265,-3.9046,-3.9192,-3.9265,-3.9031,-3.9192,-3.9424,-3.9424,-3.9424,-3.9424,-3.9424,-3.9424,-3.9424,-3.9424,-3.9424,-3.9424,-3.9424,-3.9424,-3.9424,-3.9424,-3.9424,-3.9424,0.0,0.0,0.0,0.0,0.0,0.0,0.0,0.0,0.0,0.0,0.0,0.0,0.0,0.0,0.0,0.0,0.0,0.0,0.0,0.0,0.0,0.0,0.0,0.0,0.0,-3.5688,-3.5285,-3.4787,-3.4399,-3.4196,-3.4196,-3.4128,-3.4196,-3.4414,-3.4414,-3.4414,-3.4414,-3.4414,-3.4414,-3.4414,-3.4414,-3.4414,-3.4414,-3.4414,-3.4481,-3.4698,-3.4563,-3.4616,-3.4935,-3.5001,-3.5001,-3.5016,-3.5451,-3.5474,-3.5288,-3.6238,-3.5974,-3.5109,-3.5747,-3.6292,-3.6778,-3.7931,-3.8243,-3.8135,-3.9116,-3.9424,-3.9424,-3.9424,-3.9424,-3.9424,-3.9424,-3.9424,-3.9424,-3.9424,-3.9424,-3.9424,-3.9424,-3.9424,-3.9424,-3.9424,-3.9424,-3.9424,-3.9424,-3.9424,-3.9424,-3.9424,-3.9424,-3.9424,-3.9424,-3.9424,-3.9424,-3.9424,-3.9424,-3.9424,-3.9424,-3.9424,-3.9424,-3.9424,-3.9424,-3.9424,-3.9424,-3.9424,-3.9424,-3.9424,-3.9424,-3.9424,-3.9424,-3.9424,-3.9424,-3.9424,-3.9424,-3.9424,-3.9481,0.0,0.0,0.0,0.0,0.0,0.0,0.0,0.0,0.0,0.0,0.0,0.0,0.0,0.0,0.0,0.0,0.0,0.0,0.0,0.0,0.0,0.0,0.0,-3.6492,-3.6022,-3.5608,-3.54,-3.4854,-3.4414,-3.4414,-3.4264,-3.4196,-3.4414,-3.4414,-3.4414,-3.4414,-3.4414,-3.4414,-3.4414,-3.4414,-3.4414,-3.4414,-3.4414,-3.4481,-3.4698,-3.4698,-3.4765,-3.4935,-3.5082,-3.5228,-3.5288,-3.6141,-3.6096,-3.5481,-3.6862,-3.7375,-3.7361,-3.7396,-3.7405,-3.7463,-3.8195,-3.8841,-3.9424,-3.9424,-3.9424,-3.9424,-3.9424,-3.9424,-3.9424,-3.9424,-3.9424,-3.9424,-3.9424,-3.9424,-3.9424,-3.9424,-3.9424,-3.9424,-3.9424,-3.9424,-3.9424,-3.9424,-3.9424,-3.9424,-3.9424,-3.9424,-3.9424,-3.9424,-3.9424,-3.9424,-3.9424,-3.9424,0.0,-3.9424,-3.9424,-3.9424,-3.9424,-3.9424,-3.9424,-3.9424,-3.9424,-3.9424,-3.9424,-3.9424,-3.9424,-3.9424,-3.9424,-3.9424,-3.9424,-3.9424,-3.9481,-3.9681,0.0,0.0,0.0,0.0,0.0,0.0,0.0,0.0,0.0,0.0,0.0,0.0,0.0,0.0,0.0,0.0,0.0,0.0,0.0,0.0,0.0,-3.6816,-3.6492,-3.5958,-3.607,-3.5991,-3.5464,-3.5037,-3.4787,-3.4876,-3.4572,-3.4346,-3.4414,-3.4414,-3.4414,-3.4414,-3.4414,-3.4414,-3.4414,-3.4414,-3.4414,-3.4414,-3.4414,-3.4549,-3.4868,-3.4765,-3.4898,-3.5359,-3.5228,-3.5547,-3.6156,-3.6402,-3.6596,-3.6891,-3.7769,-3.8072,-3.808,-3.8112,-3.8385,-3.8837,-3.9053,-3.926,-3.9424,-3.9424,-3.9424,-3.9424,-3.9424,-3.9424,-3.9424,-3.9424,-3.9424,-3.9424,-3.9424,-3.9424,-3.9424,-3.9424,-3.9424,-3.9424,-3.9424,-3.9424,-3.9424,-3.9424,-3.9424,-3.9424,-3.9424,-3.9424,-3.9424,-3.9424,-3.9424,-3.9424,-3.9424,-3.9424,-3.9424,-3.9424,-3.9424,-3.9424,-3.9424,-3.9424,-3.9424,-3.9424,-3.9424,-3.9424,-3.9424,-3.9424,-3.9424,-3.9424,-3.9424,-3.9424,-3.9424,-3.9424,-3.9481,0.0,0.0,0.0,0.0,0.0,0.0,0.0,0.0,0.0,0.0,0.0,0.0,0.0,0.0,0.0,0.0,0.0,0.0,0.0,0.0,0.0,0.0,-3.7029,-3.6708,-3.6274,-3.6461,-3.6445,-3.5913,-3.5544,-3.5285,-3.5255,-3.4706,-3.4414,-3.4414,-3.4414,-3.4414,-3.4414,-3.4414,-3.4414,-3.4414,-3.4414,-3.4414,-3.4414,-3.4414,-3.4549,-3.4817,-3.5096,-3.5429,-3.5776,-3.6045,-3.6373,-3.6881,-3.7165,-3.7479,-3.7868,-3.8542,-3.8826,-3.8826,0.0,0.0,0.0,0.0,-3.9424,-3.9424,-3.9424,-3.9424,-3.9424,-3.9424,-3.9424,-3.9424,-3.9424,-3.9424,-3.9424,-3.9424,-3.9424,-3.9424,-3.9424,-3.9424,-3.9424,-3.9424,-3.9424,-3.9424,-3.9424,-3.9424,-3.9424,-3.9424,-3.9424,0.0,-3.9424,-3.9424,-3.9424,-3.9424,-3.9424,-3.9424,-3.9424,-3.9424,-3.9424,-3.9424,-3.9424,-3.9424,-3.9424,-3.9424,0.0,0.0,0.0,-3.9424,-3.9424,-3.9424,0.0,0.0,0.0,-3.9625,-3.9839,-3.991,0.0,0.0,-4.0078,-4.0063,0.0,0.0,0.0,0.0,0.0,0.0,0.0,0.0,0.0,0.0,0.0,0.0,0.0,0.0,0.0,0.0,-3.7417,-3.7314,-3.706,-3.706,-3.6968,-3.6616,-3.6165,-3.5785,-3.5514,-3.4839,-3.4414,-3.4414,-3.4414,-3.4414,-3.4414,-3.4414,0.0,0.0,0.0,-3.4414,-3.4414,-3.4486,-3.4598,-3.48,-3.5633,-3.6079,-3.6327,-3.7082,-3.7449,-3.7554,-3.8138,-3.8437,-3.8556,-3.917,-3.9424,-3.9424,-3.9424,-3.9424,-3.9424,-3.9424,-3.9424,-3.9424,-3.9424,0.0,0.0,-3.9424,-3.9424,-3.9424,-3.9424,-3.9424,-3.9424,-3.9424,-3.9424,-3.9424,-3.9424,-3.9424,-3.9424,-3.9424,-3.9424,-3.9424,-3.9424,-3.9424,-3.9424,-3.9424,-3.9424,-3.9424,-3.9424,-3.9424,-3.9424,-3.9424,-3.9424,-3.9424,-3.9424,-3.9424,-3.9424,-3.9424,-3.9424,0.0,-3.9424,-3.9424,-3.9424,-3.9424,-3.9424,-3.9424,-3.9424,-3.9409,-3.9409,-3.9409,-3.9625,-3.9839,-3.9996,-4.0207,-4.0331,-4.0524,-4.0401,-4.0347,0.0,0.0,0.0,0.0,0.0,0.0,0.0,0.0,0.0,0.0,0.0,0.0,0.0,0.0,0.0,-3.7476,-3.7417,-3.7358,-3.7298,-3.7551,-3.7711,-3.7637,-3.66,-3.5961,-3.6197,-3.5088,-3.4414,-3.4414,-3.4414,-3.4414,-3.4414,-3.4414,-3.4414,-3.4414,-3.4414,-3.4414,-3.4414,-3.4922,-3.5307,-3.5444,-3.6325,0.0,-3.6912,-3.7291,-3.7704,-3.8197,-3.8332,-3.8706,-3.923,-3.9364,-3.9424,-3.9424,-3.9424,-3.9424,-3.9424,-3.9424,-3.9424,-3.9424,-3.9424,-3.9424,-3.9424,-3.9424,-3.9424,-3.9424,-3.9424,-3.9424,0.0,-3.9424,-3.9424,-3.9424,-3.9424,-3.9424,-3.9424,-3.9424,-3.9424,-3.9424,-3.9424,-3.9424,-3.9424,-3.9424,-3.9424,-3.9424,-3.9424,-3.9424,-3.9424,-3.9424,-3.9424,-3.9424,-3.9424,-3.9424,-3.9424,-3.9424,-3.9424,-3.9424,-3.9424,-3.9424,-3.9424,-3.9424,-3.9424,-3.9424,-3.9424,-3.9553,-3.9625,-3.9625,-3.9854,-4.0066,-4.0277,-4.0277,-4.0331,-4.0524,-4.0455,-4.047,0.0,0.0,0.0,0.0,0.0,0.0,0.0,0.0,0.0,0.0,0.0,-3.9935,-3.9454,0.0,-3.8383,-3.7754,-3.7653,-3.7653,-3.7653,-3.796,-3.8075,-3.7943,-3.7147,-3.6723,-3.689,-3.5721,-3.4905,-3.4905,-3.4601,-3.4414,-3.4414,-3.4414,-3.4414,-3.4414,-3.4414,-3.4559,-3.4893,-3.5198,-3.5587,-3.5962,-3.6846,-3.7311,-3.7523,-3.8046,-3.8516,-3.8901,-3.8901,-3.9095,-3.9424,-3.9424,-3.9424,-3.9424,-3.9424,-3.9424,-3.9424,-3.9424,-3.9424,-3.9424,-3.9424,-3.9424,-3.9424,-3.9424,-3.9424,-3.9424,-3.9424,-3.9424,-3.9424,-3.9424,-3.9424,-3.9424,-3.9424,-3.9424,-3.9424,-3.9424,-3.9424,-3.9424,-3.9424,-3.9424,-3.9424,-3.9424,-3.9424,-3.9424,-3.9424,-3.9424,-3.9424,-3.9424,-3.9424,-3.9424,-3.9424,-3.9424,-3.9424,-3.9424,-3.9424,-3.9424,-3.9424,-3.9424,-3.9424,-3.9424,-3.9424,-3.9424,-3.9553,-3.9625,-3.9768,-3.9839,-4.0066,-4.0207,-4.0277,-4.0331,-4.047,-4.0524,-4.0524,-4.0524,0.0,0.0,0.0,0.0,0.0,0.0,0.0,-4.0866,-4.0648,-4.0776,-4.0776,-4.0468,-3.9765,-3.9401,-3.8936,-3.8157,-3.8001,-3.8001,-3.8001,-3.8205,-3.8278,-3.8017,-3.7653,-3.7417,-3.7417,-3.6228,-3.54,-3.54,-3.4787,-3.4414,-3.4414,-3.4414,-3.4414,-3.4414,-3.453,-3.4835,-3.5357,-3.5619,-3.5996,-3.6504,-3.7361,-3.7828,-3.8074,-3.8722,-3.9177,-3.9337,-3.9352,-3.9424,-3.9424,-3.9424,-3.9424,-3.9424,-3.9424,-3.9424,-3.9424,-3.9424,-3.9424,-3.9424,-3.9424,-3.9424,-3.9424,-3.9424,-3.9424,-3.9424,-3.9424,-3.9424,-3.9424,-3.9424,-3.9424,-3.9424,-3.9424,-3.9424,-3.9424,-3.9424,-3.9424,-3.9424,-3.9424,-3.9424,-3.9424,-3.9424,-3.9424,-3.9424,-3.9424,-3.9424,-3.9424,-3.9424,-3.9424,-3.9424,-3.9424,-3.9424,-3.9424,-3.9424,-3.9424,-3.9424,-3.9424,-3.9424,-3.9424,-3.9496,-3.9409,-3.9481,-3.9768,-3.9768,-3.9839,-4.0066,-4.0277,-4.0331,-4.0331,-4.047,-4.0524,-4.0524,-4.0524,-4.0524,-4.1656,-4.1587,-4.1666,-4.1463,-4.1192,-4.0849,0.0,-4.037,-4.0238,-4.0468,-4.0238,-3.9969,-3.98,-3.9348,-3.8898,-3.8518,-3.8399,-3.8335,-3.8335,-3.8391,-3.8408,-3.8335,-3.7786,-3.7417,-3.7417,-3.6228,-3.54,-3.54,-3.4787,-3.4414,-3.4414,-3.4414,-3.4414,-3.4414,-3.4965,-3.5285,-3.5427,-3.6504,-3.7128,-3.7201,-3.8047,-3.8413,-3.8413,-3.8694,-3.8943,-3.9104,-3.9337,-3.9424,-3.9424,-3.9424,-3.9424,-3.9424,-3.9424,-3.9424,-3.9424,-3.9424,-3.9424,-3.9424,-3.9424,-3.9424,-3.9424,-3.9424,-3.9424,-3.9424,-3.9424,-3.9424,-3.9424,-3.9424,-3.9424,-3.9424,-3.9424,-3.9424,-3.9424,-3.9424,-3.9424,-3.9424,-3.9424,-3.9424,-3.9424,-3.9424,-3.9424,-3.9424,-3.9424,-3.9424,-3.9424,-3.9424,-3.9424,-3.9424,-3.9424,-3.9424,-3.9424,-3.9424,-3.9424,-3.9424,-3.9424,-3.9424,-3.9496,-3.9696,-3.9481,-3.9568,-3.9925,-3.9996,-4.0066,-4.0277,-4.0401,-4.0455,-4.0455,-4.0455,-4.0524,-4.0524,-4.0524,-4.0524,-4.2516,-4.2216,-4.199,-4.1966,-4.1472,-4.0972,-4.0879,-4.0645,-4.0485,-4.0583,-4.0534,-4.0387,-4.0154,-3.9901,-3.9644,-3.9226,-3.8936,-3.8766,-3.8766,-3.856,-3.8391,-3.8391,-3.8148,-3.796,-3.796,-3.7087,-3.6538,-3.6538,-3.5593,-3.4957,-3.4957,-3.4587,-3.4414,-3.4414,-3.5024,-3.5546,-3.5909,-3.6838,-3.7491,-3.7839,-3.8161,-3.8366,-3.8516,-3.859,-3.8811,-3.9104,-3.9177,-3.9265,-3.9424,-3.9424,-3.9424,-3.9424,-3.9424,-3.9424,-3.9424,-3.9424,-3.9424,-3.9424,-3.9424,-3.9424,-3.9424,-3.9424,-3.9424,-3.9424,-3.9424,-3.9424,-3.9424,-3.9424,-3.9424,-3.9424,-3.9424,-3.9424,-3.9424,-3.9424,-3.9424,-3.9424,-3.9424,-3.9424,-3.9424,-3.9424,-3.9424,-3.9424,-3.9424,-3.9424,-3.9424,-3.9424,-3.9424,-3.9424,-3.9424,-3.9424,-3.9424,-3.9424,-3.9424,-3.9424,-3.9424,-3.9481,-3.9625,-3.9681,-3.9711,-3.9854,-4.0137,-4.0137,-4.0277,-4.0401,-4.0455,-4.0715,-4.1091,-4.1091,-4.1276,-4.1641,-4.1641,-4.1641,-4.3104,-4.2786,-4.2436,-4.2436,-4.176,-4.1157,-4.1139,-4.0836,-4.06,-4.0697,-4.0793,-4.0793,-4.0485,-4.0387,-4.0188,-3.9833,-3.9329,-3.9023,-3.9023,-3.8655,-3.8391,-3.8391,-3.8391,-3.8391,-3.8391,-3.7786,-3.7342,-3.7147,-3.6024,-3.5335,-3.5154,-3.4654,-3.4486,-3.4675,-3.5299,-3.5938,-3.6577,-3.723,-3.7781,-3.8202,-3.8202,-3.8277,-3.8441,-3.8441,-3.8664,-3.9017,-3.9104,-3.9192,-3.9424,-3.9424,-3.9424,-3.9424,-3.9424,-3.9424,-3.9424,-3.9424,-3.9424,-3.9424,-3.9424,-3.9424,-3.9424,-3.9424,-3.9424,-3.9424,-3.9424,-3.9424,-3.9424,-3.9424,-3.9424,-3.9424,-3.9424,-3.9424,-3.9424,-3.9424,-3.9424,-3.9424,-3.9424,-3.9424,-3.9424,-3.9424,-3.9424,-3.9424,-3.9424,-3.9424,-3.9424,-3.9424,-3.9424,-3.9424,-3.9424,-3.9553,-3.9681,-3.9681,-3.9879,-4.0005,-3.999,-4.02,-4.0339,-4.0393,-4.0478,-4.0631,-4.0904,-4.0904,-4.0904,-4.1024,-4.1024,-4.1276,-4.1771,-4.1771,-4.2013,-4.252,-4.252,-4.252,-4.3104,-4.3067,-4.2974,-4.2516,-4.1931,-4.1455,-4.1237,-4.0758,-4.0404,-4.0648,-4.0697,-4.0745,-4.0888,-4.0534,-4.0305,-4.0305,-3.9556,-3.9023,-3.9023,-3.8655,-3.8391,-3.8391,-3.8391,-3.8391,-3.8391,-3.7786,-3.7147,-3.6508,-3.577,-3.5088,-3.4481,-3.4414,-3.4704,-3.5314,-3.5952,-3.6591,-3.7273,-3.7883,-3.8188,-3.8202,-3.8202,-3.8202,-3.8202,-3.8441,-3.8575,-3.8782,-3.9017,-3.9192,-3.9424,-3.9424,-3.9424,-3.9424,-3.9424,-3.9424,-3.9424,-3.9424,-3.9424,-3.9424,-3.9424,-3.9424,-3.9424,-3.9424,-3.9424,-3.9424,-3.9424,-3.9424,-3.9424,-3.9424,-3.9424,-3.9424,-3.9424,-3.9424,-3.9424,-3.9424,-3.9424,-3.9424,-3.9424,-3.9424,-3.9424,-3.9424,-3.9424,-3.9424,-3.9424,-3.9424,-3.9424,-3.9424,-3.9424,-3.9424,-3.9424,-4.0021,-4.0478,-4.0478,-4.1075,-4.1509,-4.1593,-4.1658,-4.1804,-4.2205,-4.2062,-4.2062,-4.2395,-4.2332,-4.2332,-4.2458,-4.2458,-4.2458,-4.2458,-4.2458,-4.2458,-4.252,-4.252,-4.252,-4.2956,-4.2956,-4.2862,-4.2378,-4.2157,-4.1906,-4.1202,-4.1019,-4.0896,-4.0728,-4.0793,-4.084,-4.0888,-4.0776,-4.068,-4.068,-4.0003,-3.9418,-3.9418,-3.8805,-3.8391,-3.8391,-3.8391,-3.8391,-3.8391,-3.8221,-3.7786,-3.7087,-3.6446,-3.577,-3.5088,-3.4668,-3.4704,-3.5412,-3.5981,-3.6635,-3.7302,-3.7897,-3.8202,-3.8202,-3.8202,-3.8202,-3.8202,-3.8277,-3.8427,-3.8575,-3.8797,-3.9017,-3.9192,-3.9337,-3.9424,-3.9424,-3.9424,-3.9424,-3.9424,-3.9424,-3.9424,-3.9424,-3.9424,-3.9424,-3.9424,-3.9424,-3.9424,-3.9424,-3.9424,-3.9424,-3.9424,-3.9424,-3.9424,-3.9424,-3.9424,-3.9424,-3.9424,-3.9424,-3.9424,-3.9424,-3.9424,-3.9424,-3.9424,-3.9424,-3.9824,-4.0146,-4.0146,-4.0478,-4.0805,-4.0805,-4.0005,-3.9553,-4.0091,-4.0355,-4.0668,-4.1142,-4.1428,-4.1674,-4.1723,-4.1917,-4.2125,-4.2269,-4.2332,-4.2379,-4.252,-4.2458,-4.2458,-4.252,-4.252,-4.2707,-4.3136,-4.3136,-4.341,-4.3873,-4.3873,-4.3873,-4.292,-4.2938,-4.29,-4.2613,-4.2476,-4.2257,-4.1717,-4.1569,-4.1437,-4.1053,-4.1024,-4.1088,-4.0918,-4.0888,-4.0888,-4.0888,-4.0303,-3.9782,-3.961,-3.9007,-3.856,-3.8391,-3.8391,-3.8391,-3.8391,-3.8391,-3.8017,-3.7087,-3.6631,-3.6009,-3.5088,-3.4873,-3.5038,-3.5677,-3.633,-3.6983,-3.7622,-3.8014,-3.8202,-3.8202,-3.8202,-3.8202,-3.8202,-3.8202,-3.8277,-3.8516,-3.8723,-3.8943,-3.9104,-3.9337,-3.9424,-3.9424,-3.9424,-3.9424,-3.9424,-3.9424,-3.9424,-3.9424,-3.9424,-3.9424,-3.9424,-3.9424,-3.9424,-3.9424,-3.9424,-3.9424,-3.9424,-3.9424,-3.9424,-3.9424,-3.9424,-3.9424,-3.9424,-3.9424,-3.9424,-3.9424,-3.9424,-3.9424,-3.9424,-3.9424,-4.0021,-4.0478,-4.0478,-4.1075,-4.1525,-4.1525,-4.0737,-4.0339,-4.0805,-4.1075,-4.1459,-4.1901,-4.2285,-4.252,-4.2629,-4.2892,-4.3031,-4.3108,-4.3213,-4.3229,-4.3229,-4.3229,-4.3229,-4.3229,-4.3229,-4.3469,-4.3898,-4.3898,-4.4121,-4.4587,-4.4587,-4.4587,-4.2938,-4.2994,-4.3104,-4.3104,-4.2786,-4.2498,-4.2673,-4.2342,-4.1955,-4.1561,-4.1472,-4.1356,-4.0965,-4.0888,-4.0888,-4.0888,-4.0534,-4.0121,-3.9662,-3.9259,-3.8821,-3.8448,-3.8391,-3.8391,-3.8391,-3.8391,-3.7844,-3.6554,-3.643,-3.5879,-3.4525,-3.5067,-3.5706,-3.6344,-3.6983,-3.7593,-3.8188,-3.8202,-3.8202,-3.8202,-3.8202,-3.8202,-3.8202,-3.8202,-3.8277,-3.8516,-3.8723,-3.887,-3.9104,-3.9265,-3.9424,-3.9424,-3.9424,-3.9424,-3.9424,-3.9424,-3.9424,-3.9424,-3.9424,-3.9424,-3.9424,-3.9424,-3.9424,-3.9424,-3.9424,-3.9424,-3.9424,-3.9424,-3.9424,-3.9424,-3.9424,-3.9424,-3.9424,-3.9424,-3.9424,-3.9424,-3.9424,-3.9424,-3.9409,-3.9409,-4.0076,-4.0615,-4.0684,-4.1194,-4.1591,-4.1591,-4.1591,-4.1591,-4.1591,-4.219,-4.2694,-4.2863,-4.3476,-4.3998,-4.431,-4.431,-4.4384,-4.4587,-4.4587,-4.4587,-4.4587,-4.4587,-4.4587,-4.4587,-4.4587,-4.4587,-4.4587,-4.4587,-4.4587,-4.4587,-4.4587,-4.4587,-4.29,-4.2994,-4.3104,-4.3104,-4.3123,-4.305,-4.275,-4.2693,-4.2458,-4.1648,-4.1472,-4.1356,-4.0965,-4.0888,-4.0888,-4.0888,-4.0254,-3.9714,-3.961,-3.9007,-3.8504,-3.8391,-3.8391,-3.8391,-3.8391,-3.8391,-3.8051,-3.7201,-3.7169,-3.6526,-3.5194,-3.572,-3.6373,-3.7027,-3.7215,-3.7593,-3.8188,-3.8202,-3.8202,-3.8202,-3.8202,-3.8202,-3.8202,-3.8202,-3.8202,-3.8277,-3.8516,-3.8649,-3.887,-3.9104,-3.9265,-3.9424,-3.9424,-3.9424,-3.9424,-3.9424,-3.9424,-3.9424,-3.9424,-3.9424,-3.9424,-3.9424,-3.9424,-3.9424,-3.9424,-3.9424,-3.9424,-3.9424,-3.9424,-3.9424,-3.9424,-3.9424,-3.9424,-3.9424,-3.9424,-3.9424,-3.9424,-3.9424,-3.9553,-4.0076,-4.1209,-4.2253,-4.271,-4.2974,-4.3035,-4.3035,-4.3174,-4.3035,-4.238,-4.2553,-4.2941,-4.3552,-4.3981,-4.4196,-4.4293,-4.444,-4.457,-4.4587,-4.4587,-4.4587,-4.4587,-4.4587,-4.4587,-4.4587,-4.4587,-4.4587,-4.4587,-4.4587,-4.4587,-4.4587,-4.4587,-4.4587,-4.2882,-4.2938,-4.3031,-4.3123,-4.3233,-4.3251,-4.3105,-4.2957,-4.2673,-4.1948,-4.1648,-4.1356,-4.0965,-4.0888,-4.0888,-4.0888,-4.0353,-3.9833,-3.961,-3.9061,-3.8616,-3.8391,-3.8391,-3.8521,-3.8845,-3.8877,-3.8595,-3.788,-3.7536,-3.692,-3.5819,-3.6402,-3.6925,-3.7302,-3.7564,-3.7868,-3.8202,-3.8202,-3.8202,-3.8202,-3.8202,-3.8202,-3.8202,-3.8202,-3.8202,-3.8202,-3.8441,-3.8575,-3.8782,-3.9017,-3.9192,-3.9424,-3.9424,-3.9424,-3.9424,-3.9424,-3.9424,-3.9424,-3.9424,-3.9424,-3.9424,-3.9424,-3.9424,-3.9424,-3.9424,-3.9424,-3.9424,-3.9424,-3.9424,-3.9424,-3.9424,-3.9424,-3.9424,-3.9424,-3.9424,-3.9481,-3.9824,-3.9879,-4.0216,-4.1194,-4.2061,-4.2834,-4.3492,-4.3628,-4.3628,-4.3628,-4.3763,-4.3704,-4.3235,-4.3279,-4.3578,-4.4039,-4.4196,-4.4367,-4.4423,-4.4514,-4.4587,-4.4587,-4.4587,-4.4587,-4.4587,-4.4587,-4.4587,-4.4587,-4.4587,-4.4587,-4.4587,-4.4587,-4.4587,-4.4587,-4.4587,-4.4587,-4.2882,-4.292,-4.2975,-4.316,-4.3214,-4.3268,-4.3375,-4.3142,-4.275,-4.2198,-4.1778,-4.1356,-4.0965,-4.0888,-4.0871,-4.084,-4.0485,-4.007,-3.9558,-3.9152,-3.8854,-3.8594,-3.8537,-3.8829,-3.9541,-3.9548,-3.9253,-3.8558,-3.7885,-3.718,-3.6474,-3.707,-3.7433,-3.7433,-3.7941,-3.8202,-3.8202,-3.8202,-3.8202,-3.8202,-3.8202,-3.8202,-3.8202,-3.8202,-3.8202,-3.8202,-3.8366,-3.8575,-3.8782,-3.9017,-3.9177,-3.9424,-3.9424,-3.9424,-3.9424,-3.9424,-3.9424,-3.9424,-3.9424,-3.9424,-3.9424,-3.9424,-3.9424,-3.9424,-3.9424,-3.9424,-3.9424,-3.9424,-3.9424,-3.9424,-3.9424,-3.9424,-3.9424,-3.9424,-3.9481,-3.9753,-4.0339,-4.0684,-4.1142,-4.238,-4.2648,-4.2912,-4.3492,-4.3628,-4.3628,-4.3628,-4.3763,-4.3956,-4.3956,-4.4039,-4.4155,-4.431,-4.431,-4.444,-4.4587,-4.4587,-4.4587,-4.4587,-4.4587,-4.4587,-4.4587,-4.4587,-4.4587,-4.4587,-4.4587,-4.4587,-4.4587,-4.4587,-4.4587,-4.4587,-4.4587,-4.4587,-4.2882,-4.3013,-4.316,-4.3196,-4.3304,-4.3375,-4.3069,-4.2957,-4.2673,-4.1778,-4.1561,-4.1356,-4.0965,-4.0888,-4.0776,-4.0453,-4.0003,-3.9575,-3.9169,-3.8766,-3.8731,-3.9217,-3.9298,-3.9557,-4.0254,-3.979,-3.9361,-3.9216,-3.8561,-3.7827,-3.7186,-3.7709,-3.8043,-3.8043,-3.8144,-3.8202,-3.8202,-3.8202,-3.8202,-3.8202,-3.8202,-3.8202,-3.8202,-3.8202,-3.8202,-3.8202,-3.8202,-3.8501,-3.8782,-3.8855,-3.9104,-3.9424,-3.9424,-3.9424,-3.9424,-3.9424,-3.9424,-3.9424,-3.9424,-3.9424,-3.9424,-3.9424,-3.9424,-3.9424,-3.9424,-3.9424,-3.9424,-3.9424,-3.9424,-3.9424,-3.9424,-3.9424,-3.9424,-3.9424,-3.9895,-4.0339,-4.0478,-4.1393,-4.2317,-4.2522,-4.3035,-4.3432,-4.3568,-4.3628,-4.3628,-4.3628,-4.3864,-4.4056,-4.4056,-4.4212,-4.4253,-4.431,-4.444,-4.457,-4.4587,-4.4587,-4.4587,-4.4587,-4.4587,-4.4587,-4.4587,-4.4587,-4.4587,-4.4587,-4.4587,-4.4587,-4.4587,-4.4587,-4.4587,-4.4587,-4.4587,-4.4587,-4.2882,-4.3013,-4.316,-4.3214,-4.3322,-4.3358,-4.2957,-4.2711,-4.2338,-4.1648,-4.1311,-4.1117,-4.0918,-4.0728,-4.0583,-4.0583,-3.985,-3.9312,-3.9312,-3.9132,-3.9088,-3.9444,-3.98,-4.0286,-4.0982,-4.0401,-3.9955,-3.9908,-3.9279,-3.8527,-3.7767,-3.8043,-3.8202,-3.8202,-3.8202,-3.8202,-3.8202,-3.8202,-3.8202,-3.8202,-3.8202,-3.8202,-3.8202,-3.8202,-3.8202,-3.8202,-3.8277,-3.8501,-3.8782,-3.8943,-3.9104,-3.9424,-3.9424,-3.9424,-3.9424,-3.9424,-3.9424,-3.9424,-3.9424,-3.9424,-3.9424,-3.9424,-3.9424,-3.9424,-3.9424,-3.9424,-3.9424,-3.9424,-3.9681,-3.995,-3.995,-4.0216,-4.0462,-4.0462,-4.1075,-4.1591,-4.1591,-4.238,-4.3113,-4.3113,-4.3372,-4.3628,-4.3628,-4.3687,-4.3763,-4.3763,-4.4039,-4.4196,-4.4196,-4.4327,-4.444,-4.444,-4.457,-4.4587,-4.4587,-4.4587,-4.4587,-4.4587,-4.4587,-4.4587,-4.4587,-4.4587,-4.4587,-4.4587,-4.4587,-4.4587,-4.4587,-4.4587,-4.4587,-4.4587,-4.4587,-4.4587,-4.2938,-4.3031,-4.3123,-4.3214,-4.3322,-4.3286,-4.2844,-4.2458,-4.2032,-4.149,-4.1117,-4.0871,-4.0793,-4.0485,-4.0337,-4.0468,-3.9778,-3.9308,-3.9545,-3.9657,-3.9693,-3.972,-4.0204,-4.0739,-4.1323,-4.0671,-4.0215,-4.0178,-3.9448,-3.8826,-3.8202,-3.8202,-3.8202,-3.8202,-3.8202,-3.8202,-3.8202,-3.8202,-3.8202,-3.8202,-3.8202,-3.8202,-3.8202,-3.8202,-3.8202,-3.8277,-3.8441,-3.8664,-3.887,-3.9017,-3.9192,-3.9424,-3.9424,-3.9424,-3.9424,-3.9424,-3.9424,-3.9424,-3.9424,-3.9424,-3.9424,-3.9424,-3.9424,-3.9424,-3.9424,-3.9424,-3.9424,-3.9424,-3.9824,-4.0285,-4.0478,-4.0873,-4.1393,-4.1656,-4.219,-4.2648,-4.2772,-4.3235,-4.3628,-4.3628,-4.3628,-4.3628,-4.3628,-4.3763,-4.3898,-4.3956,-4.4155,-4.431,-4.431,-4.4514,-4.4587,-4.4587,-4.4587,-4.4587,-4.4587,-4.4587,-4.4587,-4.4587,-4.4587,-4.4587,-4.4587,-4.4587,-4.4587,-4.4587,-4.4587,-4.4587,-4.4587,-4.4587,-4.4587,-4.4587,-4.4587,-4.4587,-4.3049,-4.3123,-4.3214,-4.334,-4.3446,-4.3286,-4.244,-4.2239,-4.1948,-4.1134,-4.0918,-4.0776,-4.0404,-4.0337,-4.0037,-3.9292,-3.9638,-3.986,-3.9536,-4.0021,-4.0385,-4.0404,-4.0467,-4.0493,-4.0535,-3.9838,-3.9388,-3.9376,-3.8694,-3.8277,-3.8202,-3.8202,-3.8202,-3.8202,-3.8202,-3.8202,-3.8202,-3.8202,-3.8202,-3.8202,-3.8202,-3.8202,-3.8202,-3.8202,-3.8277,-3.8441,-3.8516,-3.8738,-3.9104,-3.9104,-3.9192,-3.9424,-3.9424,-3.9424,-3.9424,-3.9424,-3.9424,-3.9424,-3.9424,-3.9424,-3.9424,-3.9424,-3.9424,-3.9424,-3.9424,-3.9424,-3.9424,-3.9424,-3.9409,-3.9681,-4.0355,-4.0547,-4.094,-4.219,-4.2522,-4.2789,-4.3372,-4.3568,-4.3628,-4.3628,-4.3628,-4.3628,-4.3839,-4.3898,-4.3956,-4.4039,-4.4212,-4.431,-4.431,-4.4514,-4.4587,-4.4587,-4.4587,-4.4587,-4.4587,-4.4587,-4.4587,-4.4587,-4.4587,-4.4587,-4.4587,-4.4587,-4.4587,-4.4587,-4.4587,-4.4587,-4.4587,-4.4587,-4.4587,-4.4587,-4.4587,-4.4587,-4.2729,-4.2747,-4.2862,-4.2975,-4.2864,-4.2559,-4.1948,-4.1778,-4.1622,-4.0995,-4.068,-4.0485,-4.0355,-3.9867,-3.9487,-3.9365,-3.9578,-3.9748,-3.9862,-4.022,-4.0483,-4.0498,-4.0485,-4.0411,-4.0385,-3.9718,-3.9103,-3.8694,-3.8337,-3.8202,-3.8202,-3.8202,-3.8202,-3.8202,-3.8202,-3.8202,-3.8202,-3.8202,-3.8202,-3.8202,-3.8202,-3.8202,-3.8202,-3.8366,-3.8441,-3.8516,-3.8738,-3.8958,-3.9104,-3.9265,-3.9337,-3.9424,-3.9424,-3.9424,-3.9424,-3.9424,-3.9424,-3.9424,-3.9424,-3.9424,-3.9424,-3.9424,-3.9424,-3.9424,-3.9424,-3.9424,-3.9424,-3.9424,-3.9753,-4.0216,-4.094,-4.1722,-4.2522,-4.3035,-4.3174,-4.3295,-4.3552,-4.3628,-4.3628,-4.3628,-4.3628,-4.3687,-4.3839,-4.3956,-4.4056,-4.4196,-4.4384,-4.4497,-4.4497,-4.457,-4.4587,-4.4587,-4.4587,-4.4587,-4.4587,-4.4587,-4.4587,-4.4587,-4.4587,-4.4587,-4.4587,-4.4587,-4.4587,-4.4587,-4.4587,-4.4587,-4.4587,-4.4587,-4.4587,-4.4587,-4.4587,-4.4587,-4.2297,-4.2274,-4.2374,-4.2516,-4.236,-4.2032,-4.1604,-4.1428,-4.1202,-4.0823,-4.0387,-4.007,-3.9935,-3.9398,-3.9061,-3.9206,-3.9535,-3.9826,-3.9894,-4.0446,-4.0619,-4.0224,-4.0071,-3.9999,-3.9788,-3.932,-3.8752,-3.8277,-3.8202,-3.8202,-3.8202,-3.8202,-3.8202,-3.8202,-3.8202,-3.8202,-3.8202,-3.8202,-3.8202,-3.8202,-3.8277,-3.8277,-3.8277,-3.8516,-3.859,-3.8664,-3.8958,-3.9104,-3.9177,-3.9337,-3.9424,-3.9424,-3.9424,-3.9424,-3.9424,-3.9424,-3.9424,-3.9424,-3.9424,-3.9424,-3.9424,-3.9424,-3.9424,-3.9424,-3.9424,-3.9424,-3.9424,-3.9424,-4.0076,-4.094,-4.1656,-4.271,-4.3628,-4.3628,-4.3628,-4.3628,-4.3628,-4.3628,-4.3628,-4.3628,-4.3628,-4.3687,-4.3839,-4.3998,-4.4155,-4.431,-4.444,-4.4587,-4.4587,-4.4587,-4.4587,-4.4587,-4.4587,-4.4587,-4.4587,-4.4587,-4.4587,-4.4587,-4.4587,-4.4587,-4.4587,-4.4587,-4.4587,-4.4587,-4.4587,-4.4587,-4.4587,-4.4587,-4.4587,-4.4587,-4.4587,-4.4587,-4.1821,-4.1796,-4.1796,-4.2115,-4.2098,-4.1913,-4.1561,-4.1213,-4.078,-4.037,-3.9952,-3.9506,-3.9077,-3.9023,-3.886,-3.8504,-3.9573,-4.0224,-3.9486,-4.0625,-4.0961,-3.9505,-3.9305,-3.903,-3.8263,-3.8202,-3.8202,-3.8202,-3.8202,-3.8202,-3.8202,-3.8202,-3.8202,-3.8202,-3.8202,-3.8202,-3.8202,-3.8202,-3.8202,-3.8202,-3.8366,-3.8516,-3.8516,-3.8723,-3.8943,-3.9104,-3.9104,-3.9192,-3.9424,-3.9424,-3.9424,-3.9424,-3.9424,-3.9424,-3.9424,-3.9424,-3.9424,-3.9424,-3.9424,-3.9424,-3.9424,-3.9424,-3.9424,-3.9424,-3.9424,-3.9424,-3.9424,-3.9424,-4.0409,-4.1656,-4.2396,-4.3096,-4.3628,-4.3628,-4.3628,-4.3628,-4.3628,-4.3628,-4.3628,-4.3628,-4.3628,-4.3687,-4.3839,-4.3998,-4.4155,-4.431,-4.444,-4.4587,-4.4587,-4.4587,-4.4587,-4.4587,-4.4587,-4.4587,-4.4587,-4.4587,-4.4587,-4.4587,-4.4587,-4.4587,-4.4587,-4.4587,-4.4587,-4.4587,-4.4587,-4.4587,-4.4587,-4.4587,-4.4587,-4.4587,-4.4587,-4.4587,-4.1286,-4.123,-4.1248,-4.141,-4.1293,-4.1007,-4.0628,-4.0531,-4.0336,-3.9935,-3.947,-3.9169,-3.9023,-3.8766,-3.856,-3.8391,-3.9129,-3.9704,-3.9439,-3.9756,-3.9788,-3.9391,-3.8826,-3.8486,-3.8202,-3.8202,-3.8202,-3.8202,-3.8202,-3.8202,-3.8202,-3.8202,-3.8202,-3.8202,-3.8202,-3.8202,-3.8202,-3.8202,-3.8277,-3.8441,-3.8441,-3.859,-3.8723,-3.8943,-3.9031,-3.9104,-3.9265,-3.9337,-3.9424,-3.9424,-3.9424,-3.9424,-3.9424,-3.9424,-3.9424,-3.9424,-3.9424,-3.9424,-3.9424,-3.9424,-3.9424,-3.9424,-3.9424,-3.9424,-3.9424,-3.9753,-4.0285,-4.0737,-4.1525,-4.2317,-4.2522,-4.3113,-4.3628,-4.3628,-4.3628,-4.3628,-4.3628,-4.3628,-4.3628,-4.3628,-4.3628,-4.3687,-4.3839,-4.3998,-4.4155,-4.431,-4.444,-4.4587,-4.4587,-4.4587,-4.4587,-4.4587,-4.4587,-4.4587,-4.4587,-4.4587,-4.4587,-4.4587,-4.4587,-4.4587,-4.4587,-4.4587,-4.4587,-4.4587,-4.4587,-4.4587,-4.4587,-4.4587,-4.4587,-4.4587,-4.4587,-4.4587,-4.072,-4.0642,-4.0724,-4.0896,-4.0645,-4.0355,-4.0188,-3.9986,-3.9713,-3.9418,-3.9061,-3.8766,-3.8766,-3.856,-3.8335,-3.8091,-3.8814,-3.9235,-3.8645,-3.9024,-3.9175,-3.8899,-3.8472,-3.8202,-3.8202,-3.8202,-3.8202,-3.8202,-3.8202,-3.8202,-3.8202,-3.8202,-3.8202,-3.8202,-3.8202,-3.8202,-3.8202,-3.8277,-3.8366,-3.8516,-3.8664,-3.8811,-3.8943,-3.9104,-3.9192,-3.9192,-3.9337,-3.9424,0.0,-3.9424,-3.9424,-3.9424,-3.9424,-3.9424,-3.9424,-3.9424,-3.9424,-3.9424,-3.9424,-3.9424,-3.9424,-3.9424,-3.9424,-3.9409,-3.9753,-4.0161,-4.06,-4.1327,-4.2061,-4.2648,-4.2912,-4.3295,-4.3628,-4.3628,-4.3628,-4.3628,-4.3628,-4.3628,-4.3628,-4.3628,-4.3628,-4.3763,-4.3898,-4.4039,-4.4196,-4.431,-4.444,-4.4587,-4.4587,-4.4587,-4.4587,-4.4587,-4.4587,-4.4587,-4.4587,-4.4587,-4.4587,-4.4587,-4.4587,-4.4587,-4.4587,-4.4587,-4.4587,-4.4587,-4.4587,-4.4587,-4.4587,-4.4759,-4.4961,-4.5159,-4.5159,-4.5159,0.0,-4.007,-4.0121,-4.0534,-4.0238,-3.9884,-4.0138,-3.9556,0.0,-3.8969,-3.8655,-3.8408,-3.8335,-3.8335,-3.8091,-3.7417,-3.8416,-3.8789,-3.7481,-3.8411,-3.8957,-3.8277,-3.8202,-3.8202,-3.8202,-3.8202,-3.8202,-3.8127,-3.8127,-3.8052,-3.8037,-3.8127,-3.8113,-3.8113,-3.8202,-3.8202,-3.8202,-3.8441,-3.8516,-3.8516,-3.8885,-3.9104,-3.9104,-3.9337,-3.9424,-3.9424,-3.9424,-3.9424,-3.9424,-3.9424,-3.9424,-3.9424,-3.9424,-3.9424,-3.9424,-3.9424,-3.9424,-3.9424,-3.9424,-3.9424,-3.9424,-3.9424,-3.9424,-3.9553,-4.0285,-4.0547,-4.0737,-4.1393,-4.2126,-4.2834,-4.3432,-4.3628,-4.3628,-4.3628,-4.3628,-4.3628,-4.3628,-4.3628,-4.3628,-4.3628,-4.3763,-4.3898,-4.3898,-4.4155,-4.431,-4.431,-4.444,-4.4587,-4.4587,-4.4587,-4.4587,-4.4587,-4.4587,-4.4587,-4.4587,-4.4587,-4.4587,-4.4587,-4.4587,-4.4626,-4.4626,-4.4626,-4.4682,-4.4737,-4.4737,-4.4737,-4.4737,-4.5125,-4.5597,-4.6098,-4.6098,-4.6098,-3.8903,0.0,-3.9487,-3.9867,-3.9592,-3.9206,0.0,-3.9077,-3.8914,-3.86,-3.8448,-3.8205,-3.7727,-3.7653,-3.7401,-3.6753,-3.7266,-3.7669,-3.7345,-3.7942,-3.8412,-3.8202,-3.8202,-3.8202,-3.8202,-3.8202,-3.7886,-3.7246,-3.7169,-3.6922,-3.6267,-3.6972,-3.7448,-3.7448,-3.8234,-3.8575,-3.8441,-3.8649,-3.8797,-3.8958,-3.9031,-3.9177,-3.9337,-3.9352,-3.9424,-3.9424,-3.9424,-3.9424,-3.9424,-3.9424,-3.9424,-3.9424,-3.9424,-3.9424,-3.9424,-3.9424,-3.9424,-3.9424,-3.9424,-3.9424,-3.9424,-3.9424,-3.9424,-3.9553,-4.0285,-4.0873,-4.1393,-4.2126,-4.2851,-4.3432,-4.3568,-4.3628,-4.3628,-4.3628,-4.3628,-4.3628,-4.3628,-4.3628,-4.3628,-4.3822,-4.3898,-4.3956,-4.4056,-4.4196,-4.431,-4.431,-4.444,-4.4587,-4.4587,-4.4587,-4.4587,-4.4587,-4.4587,-4.4587,-4.4587,-4.4587,-4.4587,-4.4587,-4.4587,-4.4759,-4.5125,-4.5125,-4.532,-4.5734,-4.5734,-4.5734,-4.5734,-4.5868,-4.5968,-4.6098,-4.6098,-4.6098,-3.859,-3.8772,-3.9044,-3.9329,-3.9152,-3.8898,-3.8898,-3.8821,-3.8655,-3.8448,-3.8164,-3.7844,-3.7476,-3.7163,-3.6707,-3.6072,-3.6691,-3.7431,-3.7689,-3.7959,-3.8202,-3.8202,-3.8202,-3.8202,-3.8202,-3.8202,-3.781,-3.6936,-3.7028,-3.6702,-3.5803,-3.6425,-3.6986,-3.7372,-3.8023,-3.8486,-3.8664,-3.887,-3.9017,-3.9104,-3.9177,-3.9265,-3.9424,-3.9424,-3.9424,-3.9424,-3.9424,-3.9424,-3.9424,-3.9424,-3.9424,-3.9424,-3.9424,-3.9424,-3.9424,-3.9424,-3.9424,-3.9424,-3.9424,-3.9424,-3.9481,-3.9809,-3.9879,-4.0021,-4.0737,-4.1459,-4.2126,-4.2522,-4.3096,-4.3628,-4.3628,-4.3628,-4.3628,-4.3704,-4.3763,-4.3747,-4.3805,-4.3805,-4.3864,-4.3998,-4.4056,-4.4097,-4.4212,-4.4327,-4.444,-4.444,-4.4514,-4.4587,-4.4587,-4.4587,-4.4587,-4.4587,-4.4587,-4.4665,-4.4889,-4.4889,-4.4889,-4.4889,-4.5142,-4.539,-4.5665,-4.5665,-4.58,-4.6098,-4.6098,-4.6213,-4.6454,-4.6454,-4.6595,-4.6845,-4.6845,-4.6845,-3.8455,-3.8583,-3.8678,-3.8882,-3.8827,-3.8694,-3.886,-3.8655,-3.8391,-3.8278,-3.7786,-3.7358,-3.7163,-3.6646,-3.6039,-3.5469,-3.6454,-3.7523,-3.8103,-3.8202,-3.8202,-3.8202,-3.8202,-3.8127,-3.8052,-3.8052,-3.7658,-3.6702,-3.6794,-3.6573,-3.5655,-3.5976,-3.6531,-3.74,-3.7796,-3.8263,-3.887,-3.9031,-3.9177,-3.9177,-3.9337,-3.9424,-3.9424,-3.9424,-3.9424,-3.9424,-3.9424,-3.9424,-3.9424,-3.9424,-3.9424,-3.9424,-3.9424,-3.9424,-3.9424,-3.9424,-3.9424,-3.9424,-3.9424,-3.9481,-3.9681,-4.0285,-4.0547,-4.0805,-4.1459,-4.2126,-4.2648,-4.271,-4.3174,-4.3628,-4.3628,-4.3628,-4.3687,-4.3898,-4.3956,-4.3956,-4.4114,-4.4097,-4.4097,-4.4155,-4.4196,-4.431,-4.4367,-4.4497,-4.4587,-4.4587,-4.4587,-4.4587,-4.4587,-4.4587,-4.4587,-4.4587,-4.4665,-4.4852,-4.5267,-4.5459,-4.5545,-4.5545,-4.59,-4.6165,-4.6213,-4.631,-4.6358,-4.6358,-4.6358,-4.6566,-4.7017,-4.7017,-4.7258,-4.7717,-4.7717,-4.7717,-3.7329,-3.7433,-3.7812,-3.8623,-3.8455,-3.8116,-3.8432,-3.8448,-3.8221,-3.7653,-3.7476,-3.7027,-3.5897,-3.5642,-3.5514,-3.5453,-3.6428,-3.7536,-3.8101,-3.8202,-3.8202,-3.8202,-3.8202,-3.7976,-3.7534,-3.7457,-3.6808,-3.5426,-3.5359,-3.4937,-3.4121,-3.491,-3.5855,-3.6738,-3.763,-3.8501,-3.9265,-3.9337,-3.9337,-3.9337,-3.9424,-3.9424,-3.9424,-3.9424,-3.9424,-3.9424,-3.9424,-3.9424,-3.9424,-3.9424,-3.9424,-3.9424,-3.9424,-3.9424,-3.9424,-3.9424,-3.9424,-3.9424,-3.9424,-3.9824,-4.0339,-4.0478,-4.0873,-4.1459,-4.219,-4.2522,-4.271,-4.3295,-4.3492,-4.3628,-4.3822,-4.3839,-4.3881,-4.4056,-4.4039,-4.4039,-4.4097,-4.4097,-4.4155,-4.4253,-4.431,-4.4367,-4.4514,-4.457,-4.4587,-4.4587,-4.4587,-4.4587,-4.4587,-4.4587,-4.4587,-4.4587,-4.4944,-4.5214,-4.5303,-4.6098,-4.666,-4.666,-4.631,-4.631,-4.6753,-4.7214,-4.745,-4.745,-4.745,-4.7511,-4.7572,-4.7572,-4.7615,-4.7717,-4.7717,-4.7717,-3.715,-3.7314,-3.7594,-3.8375,-3.8375,-3.8205,-3.8335,-3.8391,-3.8221,-3.7535,-3.7087,-3.6585,-3.5578,-3.5088,-3.4993,-3.5325,-3.6156,-3.6983,-3.7622,-3.7999,-3.8202,-3.8202,-3.8277,-3.8052,-3.738,-3.7366,-3.6794,-3.5114,-3.5127,-3.4812,-3.3979,-3.4454,-3.5251,-3.6122,-3.6986,-3.7933,-3.8738,-3.9192,-3.9424,-3.9424,-3.9424,-3.9424,-3.9424,-3.9424,-3.9424,-3.9424,-3.9424,-3.9424,-3.9424,-3.9424,-3.9424,-3.9424,-3.9424,-3.9424,-3.9424,-3.9424,-3.9424,-3.9481,-3.9895,-4.0216,-4.0615,-4.1393,-4.1852,-4.2253,-4.2912,-4.3174,-4.3235,-4.3492,-4.3628,-4.3628,-4.3839,-4.3898,-4.3956,-4.4155,-4.4196,-4.427,-4.4344,-4.44,-4.44,-4.444,-4.444,-4.4497,-4.457,-4.4587,-4.4587,-4.4587,-4.4587,-4.4587,-4.4587,-4.4587,-4.4587,-4.4587,-4.4814,-4.5142,-4.5716,-4.6196,-4.6707,-4.732,-4.7107,-4.7062,-4.7302,-4.7554,-4.7717,-4.7717,-4.7717,-4.7717,-4.7717,-4.7717,-4.7717,-4.7717,-4.7717,-4.7717,-3.7238,-3.7476,-3.7594,-3.8091,-3.8278,-3.8335,-3.8221,-3.8148,-3.7902,-3.7103,-3.6523,-3.6006,-3.5478,-3.5072,-3.5009,-3.5503,-3.5996,-3.6533,-3.7215,-3.7709,-3.8043,-3.8263,-3.8441,-3.8127,-3.7211,-3.726,-3.6702,-3.495,-3.5059,-3.4895,-3.4243,-3.4314,-3.4868,-3.5976,-3.6582,-3.7372,-3.8501,-3.9104,-3.9424,-3.9424,-3.9424,-3.9424,-3.9424,-3.9424,-3.9424,-3.9424,-3.9424,-3.9424,-3.9424,-3.9424,-3.9424,-3.9424,-3.9424,-3.9424,-3.9424,-3.9424,-3.9481,-3.9753,-4.0285,-4.0752,-4.1142,-4.2253,-4.271,-4.2912,-4.3432,-4.3628,-4.3628,-4.3628,-4.3628,-4.3687,-4.3898,-4.3939,-4.4056,-4.4327,-4.4367,-4.444,-4.457,-4.4587,-4.4587,-4.4587,-4.4587,-4.4587,-4.4587,-4.4587,-4.4587,-4.4587,-4.4587,-4.4587,-4.4587,-4.4587,-4.4626,-4.4759,-4.4869,-4.5337,-4.6406,-4.6454,-4.6817,-4.7657,-4.7717,-4.7717,-4.7717,-4.7717,-4.7717,-4.7717,-4.7717,-4.7717,-4.7717,-4.7717,-4.7717,-4.7717,-4.7717,-4.7717,-3.7314,-3.7653,-3.7828,-3.7535,-3.796,-3.8221,-3.7594,-3.7476,-3.7103,-3.5834,-3.5529,-3.5463,-3.5375,-3.5848,-3.6185,-3.6228,-3.6272,-3.6533,-3.7215,-3.7346,-3.7652,-3.8368,-3.8516,-3.8037,-3.678,-3.6702,-3.6056,-3.4551,-3.4481,-3.4481,-3.4397,-3.4397,-3.5182,-3.6724,-3.688,-3.7677,-3.9265,-3.9337,-3.9424,-3.9424,-3.9424,-3.9424,-3.9424,-3.9424,-3.9424,-3.9424,-3.9424,-3.9424,-3.9424,-3.9424,-3.9424,-3.9424,-3.9424,-3.9424,-3.9424,-3.9424,-3.9809,-4.0409,-4.0478,-4.1343,-4.2459,-4.2585,-4.3035,-4.3568,-4.3568,-4.3628,-4.3628,-4.3628,-4.3763,-4.3898,-4.4056,-4.4212,-4.431,-4.4514,-4.457,-4.457,-4.4587,-4.4587,-4.4587,-4.4587,-4.4587,-4.4587,-4.4587,-4.4587,-4.4587,-4.4587,-4.4587,-4.4587,-4.4587,-4.4587,-4.4759,-4.5214,-4.5716,-4.6406,-4.7511,-4.7554,-4.7615,-4.7717,-4.7717,-4.7717,-4.7717,-4.7717,-4.7717,-4.7717,-4.7717,-4.7717,-4.7717,-4.7717,-4.7717,-4.7717,-4.7717,-4.7717,-3.7042,-3.7207,-3.7207,-3.6829,-3.7294,-3.762,-3.6938,-3.6768,-3.6647,-3.6135,-3.5699,-3.5413,-3.5379,-3.5241,-3.5256,-3.5662,-3.572,-3.5878,-3.6181,-3.6574,-3.7142,-3.7974,-3.8207,-3.8062,-3.7448,-3.7491,-3.7155,-3.6029,-3.5949,-3.5949,-3.5949,-3.5949,-3.6267,-3.688,-3.7462,-3.8023,-3.8664,-3.9119,-3.9424,-3.9424,-3.9424,-3.9424,-3.9424,-3.9424,-3.9424,-3.9424,-3.9424,-3.9424,-3.9424,-3.9424,-3.9424,-3.9424,-3.9424,-3.9424,-3.9424,-3.9424,-3.9879,-4.0547,-4.1008,-4.1787,-4.2648,-4.3113,-4.3372,-4.3628,-4.3628,-4.3628,-4.3628,-4.3628,-4.3763,-4.3956,-4.4056,-4.4196,-4.4367,-4.457,-4.4587,-4.4587,-4.4587,-4.4587,-4.4587,-4.4587,-4.4587,-4.4587,-4.4587,-4.4587,-4.4587,-4.4587,-4.4587,-4.4587,-4.4587,-4.4852,-4.5125,-4.525,-4.6049,-4.6753,-4.7151,-4.7511,-4.7717,-4.7717,-4.7717,-4.7717,-4.7717,-4.7717,-4.7717,-4.7717,-4.7717,-4.7717,-4.7717,-4.7717,-4.7717,-4.7717,-4.7717,-4.7717,-3.66,-3.6646,-3.6646,-3.6197,-3.6438,-3.6603,-3.594,-3.6128,-3.6292,-3.5859,-3.5577,-3.5414,-3.5409,-3.5009,-3.4849,-3.5369,-3.5267,-3.5263,-3.5575,-3.6069,-3.6667,-3.7441,-3.7671,-3.7691,-3.7387,-3.7692,-3.748,-3.6676,-3.6768,-3.688,-3.688,-3.688,-3.7049,-3.7295,-3.7872,-3.8352,-3.859,-3.9119,-3.9424,-3.9424,-3.9424,-3.9424,-3.9424,-3.9424,-3.9424,-3.9424,-3.9424,-3.9424,-3.9424,-3.9424,-3.9424,-3.9424,-3.9424,-3.9424,-3.9424,-3.9681,-4.0216,-4.094,-4.1591,-4.2317,-4.2974,-4.3432,-4.3628,-4.3628,-4.3628,-4.3628,-4.3628,-4.3628,-4.3763,-4.3998,-4.4114,-4.4196,-4.4367,-4.457,-4.4587,-4.4587,-4.4587,-4.4587,-4.4587,-4.4587,-4.4587,-4.4587,-4.4587,-4.4587,-4.4587,-4.4587,-4.472,-4.4797,-4.4797,-4.5232,-4.5614,-4.5817,-4.6595,-4.7151,-4.7151,-4.7511,-4.7717,-4.7717,-4.7717,-4.7717,-4.7717,-4.7717,-4.7717,-4.7717,-4.7717,-4.7717,-4.7717,-4.7717,-4.7717,-4.7717,-4.7717,-4.7717,-3.5913,-3.615,-3.6259,-3.5578,-3.5415,-3.5219,-3.4534,-3.5436,-3.5971,-3.468,-3.4922,-3.5427,-3.5427,-3.5357,-3.5427,-3.5427,-3.4971,-3.4902,-3.5502,-3.5742,-3.6197,-3.7001,-3.7075,-3.6851,-3.6257,-3.6823,-3.6804,-3.5953,-3.6515,-3.6944,-3.688,-3.688,-3.7281,-3.8202,-3.8202,-3.8575,-3.9424,-3.9424,-3.9424,-3.9424,-3.9424,-3.9424,-3.9424,-3.9424,-3.9424,-3.9424,-3.9424,-3.9424,-3.9424,-3.9424,-3.9424,-3.9424,-3.9424,-3.9409,-3.9481,-4.0216,-4.094,-4.1591,-4.2317,-4.3035,-4.3628,-4.3628,-4.3628,-4.3628,-4.3628,-4.3628,-4.3628,-4.3628,-4.3864,-4.4097,-4.4097,-4.4196,-4.4367,-4.457,-4.4587,-4.4587,-4.4587,-4.4587,-4.4587,-4.4587,-4.4587,-4.4587,-4.4587,-4.457,-4.4626,-4.4626,-4.4981,-4.5303,-4.5303,-4.5749,-4.631,-4.6863,-4.7363,-4.7717,-4.7717,-4.7717,-4.7717,-4.7717,-4.7717,-4.7717,-4.7717,-4.7717,-4.7717,-4.7717,-4.7717,-4.7717,-4.7717,-4.7717,-4.7717,-4.7717,-4.7717,-4.7717,-3.5593,-3.5642,-3.5514,-3.4839,-3.5058,-3.521,-3.4583,-3.5098,-3.5575,-3.5194,-3.5227,-3.5427,-3.5427,-3.4994,-3.4903,-3.5477,-3.5107,-3.4823,-3.5267,-3.5363,-3.5748,-3.6552,-3.6709,-3.679,-3.7001,-3.7223,-3.7257,-3.696,-3.7137,-3.7445,-3.7973,-3.7987,-3.8296,-3.9017,-3.9046,-3.9192,-3.9424,-3.9424,-3.9424,-3.9424,-3.9424,-3.9424,-3.9424,-3.9424,-3.9424,-3.9424,-3.9424,-3.9424,-3.9424,-3.9424,-3.9424,-3.9424,-3.9424,-3.9681,-4.0216,-4.0409,-4.126,-4.2317,-4.2506,-4.3035,-4.3628,-4.3628,-4.3628,-4.3628,-4.3628,-4.3704,-4.3822,-4.3822,-4.3939,-4.4097,-4.4196,-4.4253,-4.4367,-4.457,-4.4587,-4.4587,-4.4587,-4.4587,-4.4587,-4.4587,-4.4587,-4.4587,-4.4587,-4.4852,-4.5072,-4.5072,-4.5511,-4.6,-4.6358,-4.6548,-4.6863,-4.7407,-4.7615,-4.7717,-4.7717,-4.7717,-4.7717,-4.7717,-4.7717,-4.7717,-4.7717,-4.7717,-4.7717,-4.7717,-4.7717,-4.7717,-4.7717,-4.7717,-4.7717,-4.7717,-4.7717,-4.7717,-3.5037,-3.5037,-3.4905,-3.4467,-3.4704,-3.4951,-3.482,-3.4893,-3.498,-3.498,-3.498,-3.498,-3.498,-3.4743,-3.468,-3.518,-3.5066,-3.4964,-3.5148,-3.5294,-3.5508,-3.6043,-3.6088,-3.6252,-3.6611,-3.6896,-3.7045,-3.7045,-3.727,-3.7584,-3.7973,-3.8003,-3.8197,-3.8601,-3.8616,-3.8616,-3.8616,-3.8886,-3.9005,-3.902,-3.929,-3.9424,-3.9424,-3.9424,-3.9424,-3.9424,-3.9424,-3.9424,-3.9424,-3.9424,-3.9538,-3.9809,-3.9809,-4.0285,-4.094,-4.1209,-4.1868,-4.2648,-4.2912,-4.3235,-4.3628,-4.3687,-4.3704,-4.3763,-4.3805,-4.3864,-4.3998,-4.3998,-4.4114,-4.4196,-4.431,-4.4367,-4.444,-4.457,-4.4587,-4.4587,-4.4587,-4.4587,-4.4587,-4.4587,-4.4776,-4.4906,-4.4906,-4.5267,-4.5597,-4.5597,-4.6049,-4.6613,-4.7151,-4.7214,-4.7363,-4.7675,-4.7717,-4.7717,-4.7717,-4.7717,-4.7717,-4.7717,-4.7717,-4.7717,-4.7717,-4.7717,-4.7717,-4.7717,-4.7717,-4.7717,-4.7717,-4.7717,-4.7717,-4.7717,-4.7717,-4.7717,-3.4414,-3.4414,-3.4414,-3.4414,-3.4414,-3.4559,-3.514,-3.4835,-3.4428,-3.4486,-3.4443,-3.4414,-3.4414,-3.4563,-3.4698,-3.4698,-3.4964,-3.5213,-3.5213,-3.5359,-3.5504,-3.5504,-3.5504,-3.5504,-3.5504,-3.6043,-3.6402,-3.6402,-3.6926,-3.7255,-3.7315,-3.733,-3.7345,-3.7404,-3.7404,-3.7404,-3.7404,-3.8003,-3.8302,-3.8302,-3.8931,-3.9245,-3.9245,-3.9364,-3.9424,-3.9481,-3.9481,-3.9553,-3.9625,-3.9625,-4.0021,-4.0615,-4.0615,-4.1008,-4.1656,-4.2317,-4.2648,-4.2772,-4.3372,-4.3628,-4.3628,-4.3822,-4.3898,-4.3956,-4.4056,-4.4097,-4.4097,-4.4097,-4.4196,-4.431,-4.431,-4.444,-4.4587,-4.4587,-4.4587,-4.4587,-4.4587,-4.4587,-4.4587,-4.4587,-4.4998,-4.5303,-4.5303,-4.5817,-4.6213,-4.6262,-4.666,-4.7151,-4.7615,-4.7717,-4.7717,-4.7717,-4.7717,-4.7717,-4.7717,-4.7717,-4.7717,-4.7717,-4.7717,-4.7717,-4.7717,-4.7717,-4.7717,-4.7717,-4.7717,-4.7717,-4.7717,-4.7717,-4.7717,-4.7717,-4.7717,-4.7717,-3.4414,-3.4414,-3.4414,-3.4414,-3.4414,-3.4443,-3.4588,-3.4501,-3.4559,-3.5053,-3.4762,-3.4414,-3.4414,-3.4563,-3.4765,-3.4802,-3.5082,-3.5294,-3.5439,-3.5439,-3.5504,-3.5504,-3.5504,-3.5504,-3.5504,-3.5624,-3.5714,-3.5714,-3.5848,-3.6148,-3.6656,-3.6686,-3.6911,-3.7404,-3.7404,-3.7404,-3.7404,-3.7539,-3.7629,-3.7629,-3.7764,-3.7838,-3.7883,-3.8931,-3.9681,-4.0285,-4.0285,-4.0531,-4.106,-4.106,-4.1127,-4.126,-4.126,-4.1722,-4.238,-4.2522,-4.2912,-4.3432,-4.3568,-4.3628,-4.3628,-4.3822,-4.3898,-4.3956,-4.4056,-4.4138,-4.4253,-4.4253,-4.4384,-4.4514,-4.4514,-4.457,-4.4587,-4.4587,-4.4587,-4.4587,-4.4587,-4.4587,-4.4587,-4.4587,-4.4998,-4.5303,-4.5303,-4.6098,-4.6863,-4.7302,-4.745,-4.7554,-4.7675,-4.7717,-4.7717,-4.7717,-4.7717,-4.7717,-4.7717,-4.7717,-4.7717,-4.7717,-4.7717,-4.7717,-4.7717,-4.7717,-4.7717,-4.7717,-4.7717,-4.7717,-4.7717,-4.7717,-4.7717,-4.7717,-4.7717,-4.7717,-3.4414,-3.4414,-3.4414,-3.4414,-3.4414,-3.4414,-3.4414,-3.4414,-3.4501,-3.4835,-3.4646,-3.4414,-3.4414,-3.4616,-3.4817,-3.4868,-3.5148,-3.5359,-3.5504,-3.5504,-3.5504,-3.5504,-3.5504,-3.5504,-3.5504,-3.5504,-3.5504,-3.5504,-3.5504,-3.5654,-3.5998,-3.6013,-3.6163,-3.6492,-3.6492,-3.6492,-3.6492,-3.6806,-3.6971,-3.6971,-3.7594,-3.805,-3.8315,-3.8713,-3.9305,-3.9944,-3.9944,-4.0125,-4.0481,-4.0812,-4.1149,-4.1518,-4.1917,-4.2443,-4.3096,-4.3096,-4.3295,-4.3628,-4.3628,-4.3628,-4.3763,-4.3939,-4.4056,-4.4097,-4.4286,-4.4384,-4.444,-4.444,-4.4514,-4.4587,-4.4587,-4.4587,-4.4587,-4.4587,-4.4587,-4.4587,-4.4587,-4.4587,-4.4587,-4.4587,-4.4998,-4.5355,-4.5648,-4.6548,-4.7363,-4.7657,-4.7717,-4.7717,-4.7717,-4.7717,-4.7717,-4.7717,-4.7717,-4.7717,-4.7717,-4.7717,-4.7717,-4.7717,-4.7717,-4.7717,-4.7717,-4.7717,-4.7717,-4.7717,-4.7717,-4.7717,-4.7717,-4.7717,-4.7717,-4.7717,-4.7717,-4.7717,-3.4414,-3.4414,-3.4414,-3.4414,-3.4414,-3.4414,-3.4414,-3.4414,-3.4414,-3.4414,-3.4414,-3.4414,-3.4414,-3.4668,-3.4935,-3.4935,-3.5228,-3.5504,-3.5504,-3.5504,-3.5504,-3.5504,-3.5504,-3.5504,-3.5504,-3.5504,-3.5504,-3.5504,-3.5504,-3.5504,-3.5504,-3.5504,-3.5504,-3.5504,-3.5504,-3.5504,-3.5504,-3.616,-3.6496,-3.6511,-3.7652,-3.8511,-3.9122,-3.8575,-3.8779,-3.9486,-3.9486,-3.9548,-3.972,-4.0308,-4.0922,-4.1585,-4.2301,-4.2916,-4.3446,-4.3578,-4.3628,-4.3628,-4.3628,-4.3763,-4.3956,-4.4097,-4.4196,-4.4367,-4.457,-4.4587,-4.4587,-4.4587,-4.4587,-4.4587,-4.4587,-4.4587,-4.4587,-4.4587,-4.4587,-4.4587,-4.4587,-4.4587,-4.4587,-4.4587,-4.5035,-4.5614,-4.6165,-4.7062,-4.7717,-4.7717,-4.7717,-4.7717,-4.7717,-4.7717,-4.7717,-4.7717,-4.7717,-4.7717,-4.7717,-4.7717,-4.7717,-4.7717,-4.7717,-4.7717,-4.7717,-4.7717,-4.7717,-4.7717,-4.7717,-4.7717,-4.7717,-4.7717,-4.7717,-4.7717,-4.7717,-4.7717,-3.4414,-3.4414,-3.4414,-3.4414,-3.4414,-3.4414,-3.4414,-3.4414,-3.4481,-3.4631,-3.4481,-3.4414,-3.4414,-3.4668,-3.4935,-3.4935,-3.5228,-3.5504,-3.5504,-3.5504,-3.5504,-3.5504,-3.5504,-3.5504,-3.5504,-3.5504,-3.5504,-3.5504,-3.5504,-3.5504,-3.5504,-3.5504,-3.5504,-3.5504,-3.5504,-3.5504,-3.5504,-3.6113,-3.6381,-3.6444,-3.7185,-3.7875,-3.844,-3.8325,-3.9017,-4.0268,-4.0252,-4.0609,-4.1107,-4.1206,-4.1313,-4.151,-4.2253,-4.2551,-4.2734,-4.338,-4.3704,-4.3839,-4.3839,-4.3939,-4.4097,-4.4253,-4.431,-4.4367,-4.457,-4.4587,-4.4587,-4.4587,-4.4587,-4.4587,-4.4587,-4.4587,-4.4587,-4.4587,-4.4587,-4.4587,-4.4587,-4.4587,-4.4587,-4.4587,-4.5337,-4.6147,-4.6707,-4.732,-4.7717,-4.7717,-4.7717,-4.7717,-4.7717,-4.7717,-4.7717,-4.7717,-4.7717,-4.7717,-4.7717,-4.7717,-4.7717,-4.7717,-4.7717,-4.7717,-4.7717,-4.7717,-4.7717,-4.7717,-4.7717,-4.7717,-4.7717,-4.7717,-4.7717,-4.7717,-4.7717,-4.7717,-3.4414,-3.4414,-3.4414,-3.4414,-3.4414,-3.4414,-3.4414,-3.4414,-3.4481,-3.4631,-3.4631,-3.4563,-3.4563,-3.4817,-3.5001,-3.4935,-3.5228,-3.5504,-3.5504,-3.5504,-3.5504,-3.5504,-3.5504,-3.5504,-3.5504,-3.5504,-3.5504,-3.5504,-3.5504,-3.5504,-3.5504,-3.5797,-3.6022,-3.6022,-3.6383,-3.6554,-3.6554,-3.6845,-3.7131,-3.7472,-3.7764,-3.8238,-3.8843,-3.8843,-3.9204,-3.9811,-3.9795,-3.9979,-4.0249,-4.0663,-4.0829,-4.0912,-4.1624,-4.1905,-4.1988,-4.2866,-4.3207,-4.3331,-4.3864,-4.4097,-4.4196,-4.431,-4.4367,-4.4497,-4.457,-4.4587,-4.4587,-4.4587,-4.4587,-4.4587,-4.4587,-4.4587,-4.4587,-4.4587,-4.4587,-4.4682,-4.4944,-4.4759,-4.4665,-4.4944,-4.5817,-4.6595,-4.6863,-4.7345,-4.7717,-4.7717,-4.7717,-4.7717,-4.7717,-4.7717,-4.7717,-4.7717,-4.7717,-4.7717,-4.7717,-4.7717,-4.7717,-4.7717,-4.7717,-4.7717,-4.7717,-4.7717,-4.7717,-4.7717,-4.7717,-4.7717,-4.7717,-4.7717,-4.7717,-4.7717,-4.7717,-4.7717,-3.4414,-3.4414,-3.4414,-3.4414,-3.4414,-3.4414,-3.4414,-3.4414,-3.4481,-3.4683,-3.475,-3.4765,-3.4831,-3.5016,-3.5148,-3.5001,-3.5294,-3.5504,-3.5504,-3.5504,-3.5504,-3.5504,-3.5504,-3.5504,-3.5504,-3.5504,-3.5504,-3.5504,-3.5619,-3.5733,-3.5733,-3.6321,-3.6662,-3.6662,-3.7131,-3.7429,-3.7429,-3.7531,-3.7937,-3.8535,-3.8535,-3.8843,-3.9272,-3.9272,-3.9272,-3.9272,-3.9272,-3.9272,-3.9322,-3.9868,-4.01,-4.0166,-4.0878,-4.116,-4.1299,-4.2176,-4.2689,-4.2963,-4.3628,-4.4102,-4.4367,-4.4367,-4.4497,-4.4587,-4.4587,-4.4587,-4.4587,-4.4587,-4.4587,-4.4587,-4.4587,-4.4665,-4.4776,-4.4626,-4.4831,-4.5052,-4.5267,-4.5125,-4.5106,-4.5425,-4.6262,-4.6908,-4.6908,-4.7345,-4.7717,-4.7717,-4.7717,-4.7717,-4.7717,-4.7717,-4.7717,-4.7717,-4.7717,-4.7717,-4.7717,-4.7717,-4.7717,-4.7717,-4.7717,-4.7717,-4.7717,-4.7717,-4.7717,-4.7717,-4.7717,-4.7717,-4.7717,-4.7717,-4.7717,-4.7717,-4.7717,-4.7717,-3.4414,-3.4414,-3.4414,-3.4414,-3.4414,-3.4414,-3.4414,-3.4414,-3.4481,-3.4802,-3.4868,-3.4935,-3.5148,-3.5213,-3.5213,-3.5213,-3.5359,-3.5504,-3.5504,-3.5504,-3.5504,-3.5504,-3.5504,-3.5504,-3.5504,-3.5504,-3.5504,-3.5504,-3.6022,-3.6368,-3.6368,-3.7011,-3.737,-3.737,-3.737,-3.7429,-3.7429,-3.7937,-3.859,-3.9272,-3.9272,-3.9272,-3.9272,-3.9272,-3.9272,-3.9272,-3.9272,-3.9272,-3.9272,-3.9322,-3.9338,-3.9404,-4.015,-4.0541,-4.075,-4.1499,-4.2367,-4.3177,-4.3211,-4.3811,-4.457,-4.457,-4.457,-4.4587,-4.4587,-4.4587,-4.4587,-4.4587,-4.4587,-4.4587,-4.4587,-4.4944,-4.5178,-4.472,-4.5354,-4.5918,-4.5407,-4.5648,-4.6017,-4.6049,-4.6501,-4.6908,-4.6908,-4.7345,-4.7717,-4.7717,-4.7717,-4.7717,-4.7717,-4.7717,-4.7717,-4.7717,-4.7717,-4.7717,-4.7717,-4.7717,-4.7717,-4.7717,-4.7717,-4.7717,-4.7717,-4.7717,-4.7717,-4.7717,-4.7717,-4.7717,-4.7717,-4.7717,-4.7717,-4.7717,-4.7717,-4.7717,-3.4414,-3.4414,-3.4414,-3.4414,-3.4414,-3.4414,-3.4414,-3.4414,-3.4481,-3.4802,-3.4935,-3.5001,-3.5359,-3.5359,-3.5359,-3.5213,-3.5359,-3.5504,-3.5504,-3.5504,-3.5504,-3.5504,-3.5504,-3.5683,-3.6022,-3.6085,-3.6258,-3.6662,-3.6906,-3.7011,-3.7011,-3.7648,-3.7994,-3.7994,-3.8367,-3.8623,-3.8623,-3.8843,-3.9077,-3.9272,-3.9272,-3.9272,-3.9272,-3.9272,-3.9272,-3.9272,-3.9272,-3.9272,-3.9272,-3.9272,-3.9272,-3.9342,-3.9677,-3.9831,-3.9984,-4.0916,-4.1762,-4.256,-4.3158,-4.3872,-4.4587,-4.4587,-4.4587,-4.4587,-4.4587,-4.4587,-4.4587,-4.4587,-4.4587,-4.4587,-4.4587,-4.4944,-4.5355,-4.5528,-4.6116,-4.6548,-4.6358,-4.6454,-4.6595,-4.6595,-4.7062,-4.7407,-4.7407,-4.7554,-4.7717,-4.7717,-4.7717,-4.7717,-4.7717,-4.7717,-4.7717,-4.7717,-4.7717,-4.7717,-4.7717,-4.7717,-4.7717,-4.7717,-4.7717,-4.7717,-4.7717,-4.7717,-4.7717,-4.7717,-4.7717,-4.7717,-4.7717,-4.7717,-4.7717,-4.7717,-4.7717,-4.7717,-3.4481,-3.4481,-3.4481,-3.4549,-3.4549,-3.4549,-3.4549,-3.4549,-3.4668,-3.4935,-3.5001,-3.5082,-3.5439,-3.5504,-3.5439,-3.5294,-3.5439,-3.5504,-3.5504,-3.5504,-3.5569,-3.5797,-3.5797,-3.6022,-3.6662,-3.6723,-3.689,-3.737,-3.7605,-3.7706,-3.7706,-3.8311,-3.8645,-3.8645,-3.9077,-3.9272,-3.9272,-3.9272,-3.9272,-3.9272,-3.9272,-3.9272,-3.9272,-3.9272,-3.9272,-3.9272,-3.9272,-3.9272,-3.9272,-3.9272,-3.9325,-3.9395,-3.9448,-3.9554,-3.9709,-4.0387,-4.1148,-4.1943,-4.2723,-4.3538,-4.4231,-4.4485,-4.4587,-4.4587,-4.4587,-4.4587,-4.4587,-4.4587,-4.4587,-4.4626,-4.4814,-4.5178,-4.5749,-4.6454,-4.6753,-4.6954,-4.7107,-4.7151,-4.7151,-4.7151,-4.7468,-4.7717,-4.7717,-4.7717,-4.7717,-4.7717,-4.7717,-4.7717,-4.7717,-4.7717,-4.7717,-4.7717,-4.7717,-4.7717,-4.7717,-4.7717,-4.7717,-4.7717,-4.7717,-4.7717,-4.7717,-4.7717,-4.7717,-4.7717,-4.7717,-4.7717,-4.7717,-4.7717,-4.7717,-4.7717,-4.7717,-4.7717,0.0,0.0,0.0,-3.4868,-3.4935,-3.4935,-3.4935,-3.4935,-3.4935,-3.5148,-3.5213,-3.5294,-3.5439,-3.5504,-3.5504,-3.5504,-3.5504,-3.5504,-3.5504,-3.5504,-3.5733,-3.6305,-3.643,-3.6662,-3.737,-3.7429,-3.7413,-3.7429,-3.7994,-3.8351,-3.8351,-3.8969,-3.9272,-3.9272,-3.9272,-3.9272,-3.9272,-3.9272,-3.9272,-3.9272,-3.9272,-3.9272,-3.9272,-3.9272,-3.9272,-3.9325,-3.9325,-3.9325,-3.9325,-3.9325,-3.9379,-3.9501,-3.9501,-3.9642,-3.9901,-3.9901,-4.0475,-4.1322,-4.2033,-4.2777,-4.3538,-4.4333,-4.4587,-4.4587,-4.4587,-4.4587,-4.4587,-4.4587,-4.4587,-4.472,-4.5214,-4.5699,-4.6406,-4.745,-4.7302,-4.7062,-4.7615,-4.7717,-4.7717,-4.7717,-4.7717,-4.7717,-4.7717,-4.7717,-4.7717,-4.7717,-4.7717,-4.7717,-4.7717,-4.7717,-4.7717,-4.7717,-4.7717,-4.7717,-4.7717,-4.7717,-4.7717,-4.7717,-4.7717,-4.7717,-4.7717,-4.7717,-4.7717,-4.7717,-4.7717,-4.7717,-4.7717,-4.7717,-4.7717,-4.7717,-4.7717,-4.7717,-3.4802,0.0,0.0,0.0,0.0,0.0,-3.4935,-3.4935,-3.4935,-3.5148,-3.5213,-3.5294,-3.5439,-3.5504,-3.5504,-3.5504,-3.5504,-3.5504,-3.5504,-3.5846,-3.6196,-3.6368,-3.6845,-3.737,-3.7994,-3.8051,-3.8238,-3.8733,-3.8914,-3.9023,-3.9023,-3.9202,-3.9272,-3.9272,-3.9272,-3.9272,-3.9272,-3.9272,-3.9272,-3.9272,-3.9272,-3.9272,-3.9272,-3.9272,-3.9325,-3.9432,-3.9432,-3.9484,-3.9573,-3.9484,-3.9537,-3.9625,-3.9746,-3.9849,-3.9901,-3.9986,-4.051,-4.1322,-4.2033,-4.2777,-4.3538,-4.4333,-4.4587,-4.4587,-4.4587,-4.4587,-4.4587,-4.4587,-4.4587,-4.4814,-4.5665,-4.6262,-4.6863,-4.7554,-4.7615,-4.7511,-4.7657,-4.7717,-4.7717,-4.7717,-4.7717,-4.7717,-4.7717,-4.7717,-4.7717,-4.7717,-4.7717,-4.7717,-4.7717,-4.7717,-4.7717,-4.7717,-4.7717,-4.7717,-4.7717,-4.7717,-4.7717,-4.7717,-4.7717,-4.7717,-4.7717,-4.7717,-4.7717,-4.7717,-4.7717,-4.7717,-4.7717,-4.7717,-4.7717,-4.7717,-4.7717,-4.7717,-3.5001,-3.5001,-3.5067,-3.5148,0.0,0.0,-3.5148,-3.5148,-3.5148,-3.5294,-3.5359,-3.5359,-3.5504,-3.5504,-3.5554,-3.5846,-3.5846,-3.5846,-3.5846,-3.643,-3.689,-3.7175,-3.7531,-3.801,-3.8662,-3.8717,-3.8898,-3.9272,-3.9272,-3.9272,-3.9272,-3.9272,-3.9272,-3.9272,-3.9272,-3.9272,-3.9272,-3.9272,-3.9272,-3.9272,-3.9272,-3.9325,-3.9379,-3.9379,-3.9432,-3.959,-3.959,-3.9642,-3.9798,-3.9694,-3.9694,-3.9781,-3.9849,-3.9935,-3.9986,-4.0087,-4.0358,-4.0849,-4.1593,-4.232,-4.3081,-4.3842,-4.4316,-4.4587,-4.4587,-4.4587,-4.4587,-4.4587,-4.4923,-4.5337,-4.5968,-4.666,-4.7302,-4.7615,-4.7717,-4.7717,-4.7717,-4.7717,-4.7717,-4.7717,-4.7717,-4.7717,-4.7717,-4.7717,-4.7717,-4.7717,-4.7717,-4.7717,-4.7717,-4.7717,-4.7717,-4.7717,-4.7717,-4.7717,-4.7717,-4.7717,-4.7717,-4.7717,-4.7717,-4.7717,-4.7717,-4.7717,-4.7717,-4.7717,-4.7717,-4.7717,-4.7717,-4.7717,-4.7717,-4.7717,-4.7717,-4.7717,-3.5148,-3.5213,-3.5294,-3.5439,-3.5504,0.0,-3.5504,-3.5504,-3.5504,-3.5569,-3.5619,-3.5619,-3.5683,-3.5748,-3.5925,-3.643,-3.6538,-3.66,-3.6538,-3.7071,-3.7706,-3.8222,-3.8351,-3.8662,-3.9218,-3.9272,-3.9272,-3.9272,-3.9272,-3.9272,-3.9272,-3.9272,-3.9272,-3.9272,-3.9272,-3.9272,-3.9272,-3.9272,-3.9272,-3.9272,-3.9325,-3.9379,-3.9501,-3.9501,-3.959,-3.9729,-3.9729,-3.9781,-3.9901,-3.9901,-3.9901,-3.9901,-3.9901,-3.9986,-4.007,-4.007,-4.007,-4.0189,-4.0933,-4.1677,-4.2422,-4.3166,-4.3944,-4.4587,-4.4587,-4.4587,-4.4626,-4.4682,-4.5337,-4.6098,-4.6147,-4.6954,-4.7717,-4.7717,-4.7717,-4.7717,-4.7717,-4.7717,-4.7717,-4.7717,-4.7717,-4.7717,-4.7717,-4.7717,-4.7717,-4.7717,-4.7717,-4.7717,-4.7717,-4.7717,-4.7717,-4.7717,-4.7717,-4.7717,-4.7717,-4.7717,-4.7717,-4.7717,-4.7717,-4.7717,-4.7717,-4.7717,-4.7717,-4.7717,-4.7717,-4.7717,-4.7717,-4.7717,-4.7717,-4.7717,-4.7717,-4.7717,-3.5439,-3.5439,-3.5439,-3.5504,-3.5504,0.0,-3.5504,-3.5504,-3.5619,-3.6133,-3.6196,-3.6368,-3.6906,-3.7027,-3.7071,-3.7191,-3.7589,-3.7764,-3.7235,-3.7764,-3.8165,-3.8294,-3.8772,-3.9148,-3.9272,-3.9272,-3.9272,-3.9272,-3.9272,-3.9272,-3.9272,-3.9272,-3.9272,-3.9272,-3.9272,-3.9272,-3.9272,-3.9272,-3.9272,-3.9272,-3.9395,-3.9501,-3.9501,-3.959,-3.9729,-3.9849,-3.9849,-3.9935,-4.0087,-4.0087,-4.0087,-4.0087,-4.0087,-4.0087,-4.007,-4.007,-4.007,-4.0189,-4.0933,-4.1677,-4.2422,-4.3166,-4.3944,-4.4587,-4.4587,-4.4587,-4.4665,-4.5035,-4.5614,-4.6213,-4.6613,-4.7214,-4.7717,-4.7717,-4.7717,-4.7717,-4.7717,-4.7717,-4.7717,-4.7717,-4.7717,-4.7717,-4.7717,-4.7717,-4.7717,-4.7717,-4.7717,-4.7717,-4.7717,-4.7717,-4.7717,-4.7717,-4.7717,-4.7717,-4.7717,-4.7717,-4.7717,-4.7717,-4.7717,-4.7717,-4.7717,-4.7717,-4.7717,-4.7717,-4.7717,-4.7717,-4.7717,-4.7717,-4.7717,-4.7717,-4.7717,-4.7717,-3.5504,-3.5504,-3.5504,-3.5504,-3.5733,0.0,0.0,-3.6211,-3.6554,-3.6845,-3.689,-3.7011,-3.737,-3.7429,-3.7488,-3.7822,-3.8108,-3.8294,-3.8311,-3.8606,-3.8772,-3.8772,-3.9094,-3.9272,-3.9272,-3.9272,-3.9272,-3.9272,-3.9272,-3.9272,-3.9272,-3.9272,-3.9272,-3.9272,-3.9272,-3.9272,-3.9272,-3.9272,-3.9325,-3.9379,-3.9448,-3.9554,-3.9694,-3.9798,-3.9884,-3.9986,-3.9986,-4.0037,-4.007,-4.007,-4.007,-4.007,-4.007,-4.007,-4.007,-4.007,-4.007,-4.0121,-4.051,-4.1373,-4.2354,-4.2726,-4.3639,-4.4587,-4.4587,-4.4587,-4.472,-4.5178,-4.5716,-4.6196,-4.6753,-4.7302,-4.7717,-4.7717,-4.7717,-4.7717,-4.7717,-4.7717,-4.7717,-4.7717,-4.7717,-4.7717,-4.7717,-4.7717,-4.7717,-4.7717,-4.7717,-4.7717,-4.7717,-4.7717,-4.7717,-4.7717,-4.7717,-4.7717,-4.7717,-4.7717,-4.7717,-4.7717,-4.7717,-4.7717,-4.7717,-4.7717,-4.7717,-4.7717,-4.7717,-4.7717,-4.7717,-4.7717,-4.7717,-4.7717,-4.7717,-4.7717,-3.5619,-3.5683,-3.5668,-3.5861,-3.6258,-3.66,0.0,0.0,0.0,-3.7531,-3.7589,-3.7605,-3.7722,-3.778,-3.7953,-3.8407,-3.8463,-3.8645,-3.9202,-3.9272,-3.9272,-3.9272,-3.9272,-3.9272,-3.9272,-3.9272,-3.9272,-3.9272,-3.9272,-3.9272,-3.9272,-3.9272,-3.9272,-3.9272,-3.9362,-3.9415,-3.9415,-3.9556,-3.9609,-3.9642,-3.9677,-3.9781,-3.9901,-3.9952,-3.9986,-4.007,-4.007,-4.007,-4.007,-4.007,-4.007,-4.007,-4.007,-4.007,-4.007,-4.007,-4.007,-4.007,-4.007,-4.095,-4.2083,-4.2083,-4.3115,-4.435,-4.435,-4.4468,-4.472,-4.5267,-4.5767,-4.6262,-4.6908,-4.7363,-4.7717,-4.7717,-4.7717,-4.7717,-4.7717,-4.7717,-4.7717,-4.7717,-4.7717,-4.7717,-4.7717,-4.7717,-4.7717,-4.7717,-4.7717,-4.7717,-4.7717,-4.7717,-4.7717,-4.7717,-4.7717,-4.7717,-4.7717,-4.7717,-4.7717,-4.7717,-4.7717,-4.7717,-4.7717,-4.7717,-4.7717,-4.7717,-4.7717,-4.7717,-4.7717,-4.7717,-4.7717,-4.7717,-4.7717,-4.7717,-3.6133,-3.6321,-3.643,-3.7011,-3.7251,-3.731,-3.731,0.0,-3.7531,-3.8108,0.0,-3.8351,-3.8969,0.0,0.0,-3.9202,-3.9202,-3.9202,-3.9272,-3.9272,-3.9272,-3.9272,-3.9272,-3.9272,-3.9272,-3.9272,-3.9272,-3.9272,-3.9272,-3.9272,-3.9272,-3.9272,-3.9272,-3.9272,-3.9679,-3.9919,-3.9919,-4.0446,-4.0511,-4.012,-4.0351,-4.0286,-3.9901,-4.0037,-4.0087,-4.007,-4.007,-4.007,-4.007,-4.007,-4.007,-4.007,-4.007,-4.007,-4.007,-4.007,-4.007,-4.007,-4.007,-4.0629,-4.1322,-4.1322,-4.2337,-4.3555,-4.3555,-4.4028,-4.4831,-4.5716,-4.6049,-4.6358,-4.7363,-4.7657,-4.7717,-4.7717,-4.7717,-4.7717,-4.7717,-4.7717,-4.7717,-4.7717,-4.7717,-4.7717,-4.7717,-4.7717,-4.7717,-4.7717,-4.7717,-4.7717,-4.7717,-4.7717,-4.7717,-4.7717,-4.7717,-4.7717,-4.7717,-4.7717,-4.7717,-4.7717,-4.7717,-4.7717,-4.7717,-4.7717,-4.7717,-4.7717,-4.7717,-4.7717,-4.7717,-4.7717,-4.7717,-4.7717,-4.7717,-4.7717,-3.6784,-3.6951,-3.7071,-3.731,-3.7648,-3.7937,-3.7937,-3.8238,-3.8551,-3.8843,0.0,0.0,0.0,0.0,0.0,0.0,-3.9448,-3.9395,-3.9325,-3.9272,-3.9272,-3.9272,-3.9272,-3.9272,-3.9272,-3.9272,-3.9272,-3.9272,-3.9272,-3.9272,-3.9272,-3.9272,-3.9415,-3.9679,-3.9919,-4.0186,-4.0494,-4.0763,-4.0733,-4.0449,-4.0546,-4.0368,-4.0037,-4.007,-4.007,-4.007,-4.007,-4.007,-4.007,-4.007,-4.007,-4.007,-4.007,-4.007,-4.007,-4.007,-4.007,-4.007,-4.007,-4.0578,-4.1271,-4.1694,-4.2252,-4.276,-4.276,-4.3301,-4.4096,-4.5172,-4.5765,-4.6358,-4.7407,-4.7717,-4.7717,-4.7717,-4.7717,-4.7717,-4.7717,-4.7717,-4.7717,-4.7717,-4.7717,-4.7717,-4.7717,-4.7717,-4.7717,-4.7717,-4.7717,-4.7717,-4.7717,-4.7717,-4.7717,-4.7717,-4.7717,-4.7717,-4.7717,-4.7717,-4.7717,-4.7717,-4.7717,-4.7717,-4.7717,-4.7717,-4.7717,-4.7717,-4.7717,-4.7717,-4.7717,-4.7717,-4.7717,-4.7717,-4.7717,-4.7717,-3.7472,-3.7648,-3.7722,-3.7895,-3.8311,-3.8645,-3.8645,-3.9007,-3.9432,-3.9432,-3.9484,0.0,0.0,0.0,-3.9677,-3.959,0.0,-3.9537,-3.9432,-3.9432,-3.9379,-3.9325,-3.9415,-3.9504,-3.9504,-3.9609,-3.9661,-3.9504,-3.9504,-3.9415,-3.9325,-3.9272,-3.9556,-4.0053,-4.0186,-4.0559,-4.115,-4.1331,-4.1213,-4.0832,-4.0861,-4.0594,-4.007,-4.007,-4.007,-4.007,-4.007,-4.007,-4.007,-4.007,-4.007,-4.007,-4.007,-4.007,-4.007,-4.007,-4.007,-4.007,-4.007,-4.0443,-4.0984,-4.1508,-4.1813,-4.1999,-4.1999,-4.2506,-4.3297,-4.437,-4.522,-4.6041,-4.7083,-4.7536,-4.7717,-4.7717,-4.7717,-4.7717,-4.7717,-4.7717,-4.7717,-4.7717,-4.7717,-4.7717,-4.7717,-4.7717,-4.7717,-4.7717,-4.7717,-4.7717,-4.7717,-4.7717,-4.7717,-4.7717,-4.7717,-4.7717,-4.7717,-4.7717,-4.7717,-4.7717,-4.7717,-4.7717,-4.7717,-4.7717,-4.7717,-4.7717,-4.7717,-4.7717,-4.7717,-4.7717,-4.7717,-4.7717,-4.7717,-4.7717,-3.8108,-3.8278,-3.8407,-3.9094,-3.9325,-3.9432,-3.9432,-3.959,-3.9677,-3.9677,-3.9677,-3.9677,-3.9677,-3.9677,-3.9677,-3.9677,-3.9677,0.0,0.0,-3.9677,-3.9573,-3.9325,-3.9679,-4.0003,-4.0003,-4.0449,-4.0563,-4.0003,-4.0003,-3.9782,-3.9325,-3.9272,-3.9592,-4.0186,-4.0638,-4.1196,-4.1881,-4.2472,-4.2251,-4.1391,-4.141,-4.1001,-4.007,-4.007,-4.007,-4.007,-4.007,-4.007,-4.007,-4.007,-4.007,-4.007,-4.007,-4.007,-4.007,-4.007,-4.007,-4.007,-4.007,-4.0104,-4.0121,-4.0138,-4.0646,-4.1238,-4.1238,-4.1745,-4.2567,-4.3568,-4.4413,-4.5264,-4.6272,-4.712,-4.7717,-4.7717,-4.7717,-4.7717,-4.7717,-4.7717,-4.7717,-4.7717,-4.7717,-4.7717,-4.7717,-4.7717,-4.7717,-4.7717,-4.7717,-4.7717,-4.7717,-4.7717,-4.7717,-4.7717,-4.7717,-4.7717,-4.7717,-4.7717,-4.7717,-4.7717,-4.7717,-4.7717,-4.7717,-4.7717,-4.7717,-4.7717,-4.7717,-4.7717,-4.7717,-4.7717,-4.7717,-4.7717,-4.7717,-4.7717,-3.8788,-3.8952,-3.9023,-3.9325,-3.9448,-3.9537,-3.959,-3.9677,-3.9677,-3.9677,-3.9781,-3.9833,-3.9833,-3.9884,-3.9935,-3.9833,-3.9833,-3.9781,0.0,-3.9952,-4.012,-4.002,-4.007,-4.022,-4.0497,-4.0351,-4.0351,-4.0514,-4.0203,-4.012,-4.0269,-4.0269,-4.0546,-4.1185,-4.1366,-4.1778,-4.2472,-4.2391,-4.2026,-4.1455,-4.1185,-4.0707,-4.007,-4.007,-4.007,-4.007,-4.007,-4.007,-4.007,-4.007,-4.007,-4.007,-4.007,-4.007,-4.007,-4.007,-4.007,-4.007,-4.007,-4.007,-4.007,-4.007,-4.0257,-4.046,-4.046,-4.0984,-4.1801,-4.2765,-4.4021,-4.5211,-4.6218,-4.7102,-4.7717,-4.7717,-4.7717,-4.7717,-4.7717,-4.7717,-4.7717,-4.7717,-4.7717,-4.7717,-4.7717,-4.7717,-4.7717,-4.7717,-4.7717,-4.7717,-4.7717,-4.7717,-4.7717,-4.7717,-4.7717,-4.7717,-4.7717,-4.7717,-4.7717,-4.7717,-4.7717,-4.7717,-4.7717,-4.7717,-4.7717,-4.7717,-4.7717,-4.7717,-4.7717,-4.7717,-4.7717,-4.7717,-4.7717,-4.7717,-3.9292,-3.9415,-3.9484,-3.9537,-3.959,-3.9642,-3.9729,-3.9833,-3.9833,-3.9833,-3.9935,-3.9986,-3.9986,-4.0037,-4.0121,-4.0221,-4.0221,-4.0254,0.0,-4.0577,-4.0861,-4.0972,-4.0879,-4.0926,-4.1157,-4.1047,-4.0984,-4.1157,-4.0861,-4.075,-4.0908,-4.0908,-4.1168,-4.1803,-4.1821,-4.2133,-4.2842,-4.2374,-4.1924,-4.1481,-4.1019,-4.0531,-4.007,-4.007,-4.007,-4.007,-4.007,-4.007,-4.007,-4.007,-4.007,-4.007,-4.007,-4.007,-4.007,-4.007,-4.007,-4.007,-4.007,-4.007,-4.007,-4.007,-4.007,-4.007,-4.007,-4.0409,-4.1035,-4.2009,-4.3195,-4.4498,-4.5755,-4.6667,-4.7355,-4.7645,-4.7717,-4.7717,-4.7717,-4.7717,-4.7717,-4.7717,-4.7717,-4.7717,-4.7717,-4.7717,-4.7717,-4.7717,-4.7717,-4.7717,-4.7717,-4.7717,-4.7717,-4.7717,-4.7717,-4.7717,-4.7717,-4.7717,-4.7717,-4.7717,-4.7717,-4.7717,-4.7717,-4.7717,-4.7717,-4.7717,-4.7717,-4.7717,-4.7717,-4.7717,-4.7717,-4.7717,-4.7717,-4.7717]}]]